<?xml version="1.0" encoding="UTF-8" standalone="no" ?>
<gpx xmlns="http://www.topografix.com/GPX/1/1" xmlns:xsi="http://www.w3.org/2001/XMLSchema-instance" xsi:schemaLocation="http://www.topografix.com/GPX/1/1 http://www.topografix.com/GPX/1/1/gpx.xsd" version="1.1" creator="VisuGPX - https://www.visugpx.com">
  <metadata>
    <name>09.juin 2020 -la Souche - le Travers ardeche etape 2</name>
    <desc><![CDATA[Beaucoup de cailloux mais roulable tout le parcours. Superbe. Cette journée sauve mon raid. ]]></desc>
  </metadata>
  <trk>
    <name><![CDATA[11480747-la Souche - le Travers ardeche etape 2]]></name>
    <extensions>
      <line xmlns="http://www.topografix.com/GPX/gpx_style/0/2">
        <color>0000FF</color>
        <width>4</width>
      </line>
    </extensions>
    <trkseg>
      <trkpt lat="44.6276" lon="4.16893">
        <ele>655</ele>
        <time>2022-06-09T15:08:41Z</time>
      </trkpt>
      <trkpt lat="44.62756" lon="4.16893">
        <ele>656</ele>
        <time>2022-06-09T15:08:42Z</time>
      </trkpt>
      <trkpt lat="44.62762" lon="4.16892">
        <ele>654</ele>
        <time>2022-06-09T15:08:43Z</time>
      </trkpt>
      <trkpt lat="44.62764" lon="4.16895">
        <ele>653</ele>
        <time>2022-06-09T15:08:44Z</time>
      </trkpt>
      <trkpt lat="44.62763" lon="4.16893">
        <ele>654</ele>
        <time>2022-06-09T15:08:44Z</time>
      </trkpt>
      <trkpt lat="44.62752" lon="4.16895">
        <ele>657</ele>
        <time>2022-06-09T15:08:47Z</time>
      </trkpt>
      <trkpt lat="44.62757" lon="4.16895">
        <ele>656</ele>
        <time>2022-06-09T15:08:48Z</time>
      </trkpt>
      <trkpt lat="44.62753" lon="4.16914">
        <ele>656</ele>
        <time>2022-06-09T15:08:51Z</time>
      </trkpt>
      <trkpt lat="44.62733" lon="4.1708">
        <ele>658</ele>
        <time>2022-06-09T15:09:19Z</time>
      </trkpt>
      <trkpt lat="44.62745" lon="4.17141">
        <ele>653</ele>
        <time>2022-06-09T15:09:30Z</time>
      </trkpt>
      <trkpt lat="44.62753" lon="4.1721">
        <ele>648</ele>
        <time>2022-06-09T15:09:42Z</time>
      </trkpt>
      <trkpt lat="44.62726" lon="4.17241">
        <ele>652</ele>
        <time>2022-06-09T15:09:50Z</time>
      </trkpt>
      <trkpt lat="44.62715" lon="4.17288">
        <ele>657</ele>
        <time>2022-06-09T15:09:58Z</time>
      </trkpt>
      <trkpt lat="44.62731" lon="4.17305">
        <ele>653</ele>
        <time>2022-06-09T15:10:03Z</time>
      </trkpt>
      <trkpt lat="44.62777" lon="4.17319">
        <ele>642</ele>
        <time>2022-06-09T15:10:14Z</time>
      </trkpt>
      <trkpt lat="44.62784" lon="4.1734">
        <ele>642</ele>
        <time>2022-06-09T15:10:18Z</time>
      </trkpt>
      <trkpt lat="44.62774" lon="4.17407">
        <ele>645</ele>
        <time>2022-06-09T15:10:29Z</time>
      </trkpt>
      <trkpt lat="44.62741" lon="4.17474">
        <ele>653</ele>
        <time>2022-06-09T15:10:42Z</time>
      </trkpt>
      <trkpt lat="44.62737" lon="4.17491">
        <ele>655</ele>
        <time>2022-06-09T15:10:45Z</time>
      </trkpt>
      <trkpt lat="44.62741" lon="4.17635">
        <ele>639</ele>
        <time>2022-06-09T15:11:09Z</time>
      </trkpt>
      <trkpt lat="44.6274" lon="4.17697">
        <ele>632</ele>
        <time>2022-06-09T15:11:20Z</time>
      </trkpt>
      <trkpt lat="44.6273" lon="4.17778">
        <ele>629</ele>
        <time>2022-06-09T15:11:33Z</time>
      </trkpt>
      <trkpt lat="44.62732" lon="4.17789">
        <ele>627</ele>
        <time>2022-06-09T15:11:35Z</time>
      </trkpt>
      <trkpt lat="44.6276" lon="4.17854">
        <ele>615</ele>
        <time>2022-06-09T15:11:48Z</time>
      </trkpt>
      <trkpt lat="44.62762" lon="4.17872">
        <ele>613</ele>
        <time>2022-06-09T15:11:51Z</time>
      </trkpt>
      <trkpt lat="44.62759" lon="4.17879">
        <ele>613</ele>
        <time>2022-06-09T15:11:52Z</time>
      </trkpt>
      <trkpt lat="44.62755" lon="4.17882">
        <ele>614</ele>
        <time>2022-06-09T15:11:53Z</time>
      </trkpt>
      <trkpt lat="44.62749" lon="4.17881">
        <ele>615</ele>
        <time>2022-06-09T15:11:55Z</time>
      </trkpt>
      <trkpt lat="44.6273" lon="4.17871">
        <ele>622</ele>
        <time>2022-06-09T15:11:59Z</time>
      </trkpt>
      <trkpt lat="44.62724" lon="4.17873">
        <ele>623</ele>
        <time>2022-06-09T15:12:01Z</time>
      </trkpt>
      <trkpt lat="44.62715" lon="4.17886">
        <ele>625</ele>
        <time>2022-06-09T15:12:04Z</time>
      </trkpt>
      <trkpt lat="44.62715" lon="4.17894">
        <ele>625</ele>
        <time>2022-06-09T15:12:05Z</time>
      </trkpt>
      <trkpt lat="44.62717" lon="4.17911">
        <ele>623</ele>
        <time>2022-06-09T15:12:08Z</time>
      </trkpt>
      <trkpt lat="44.62737" lon="4.1798">
        <ele>617</ele>
        <time>2022-06-09T15:12:20Z</time>
      </trkpt>
      <trkpt lat="44.62743" lon="4.17994">
        <ele>615</ele>
        <time>2022-06-09T15:12:23Z</time>
      </trkpt>
      <trkpt lat="44.62763" lon="4.1808">
        <ele>612</ele>
        <time>2022-06-09T15:12:38Z</time>
      </trkpt>
      <trkpt lat="44.62757" lon="4.18418">
        <ele>602</ele>
        <time>2022-06-09T15:13:34Z</time>
      </trkpt>
      <trkpt lat="44.62758" lon="4.18458">
        <ele>600</ele>
        <time>2022-06-09T15:13:41Z</time>
      </trkpt>
      <trkpt lat="44.6277" lon="4.18595">
        <ele>591</ele>
        <time>2022-06-09T15:14:04Z</time>
      </trkpt>
      <trkpt lat="44.62777" lon="4.18639">
        <ele>588</ele>
        <time>2022-06-09T15:14:11Z</time>
      </trkpt>
      <trkpt lat="44.62799" lon="4.18715">
        <ele>581</ele>
        <time>2022-06-09T15:14:25Z</time>
      </trkpt>
      <trkpt lat="44.628" lon="4.18739">
        <ele>580</ele>
        <time>2022-06-09T15:14:29Z</time>
      </trkpt>
      <trkpt lat="44.62795" lon="4.18761">
        <ele>581</ele>
        <time>2022-06-09T15:14:33Z</time>
      </trkpt>
      <trkpt lat="44.62796" lon="4.18771">
        <ele>581</ele>
        <time>2022-06-09T15:14:35Z</time>
      </trkpt>
      <trkpt lat="44.628" lon="4.18779">
        <ele>580</ele>
        <time>2022-06-09T15:14:36Z</time>
      </trkpt>
      <trkpt lat="44.62818" lon="4.18801">
        <ele>576</ele>
        <time>2022-06-09T15:14:42Z</time>
      </trkpt>
      <trkpt lat="44.62858" lon="4.1888">
        <ele>569</ele>
        <time>2022-06-09T15:14:58Z</time>
      </trkpt>
      <trkpt lat="44.62904" lon="4.19019">
        <ele>565</ele>
        <time>2022-06-09T15:15:23Z</time>
      </trkpt>
      <trkpt lat="44.62926" lon="4.19073">
        <ele>562</ele>
        <time>2022-06-09T15:15:34Z</time>
      </trkpt>
      <trkpt lat="44.62959" lon="4.19198">
        <ele>557</ele>
        <time>2022-06-09T15:15:56Z</time>
      </trkpt>
      <trkpt lat="44.62962" lon="4.19223">
        <ele>556</ele>
        <time>2022-06-09T15:16:00Z</time>
      </trkpt>
      <trkpt lat="44.62962" lon="4.19306">
        <ele>553</ele>
        <time>2022-06-09T15:16:14Z</time>
      </trkpt>
      <trkpt lat="44.62965" lon="4.19327">
        <ele>551</ele>
        <time>2022-06-09T15:16:17Z</time>
      </trkpt>
      <trkpt lat="44.62959" lon="4.19371">
        <ele>553</ele>
        <time>2022-06-09T15:16:25Z</time>
      </trkpt>
      <trkpt lat="44.62962" lon="4.1947">
        <ele>549</ele>
        <time>2022-06-09T15:16:41Z</time>
      </trkpt>
      <trkpt lat="44.62961" lon="4.19506">
        <ele>547</ele>
        <time>2022-06-09T15:16:47Z</time>
      </trkpt>
      <trkpt lat="44.62937" lon="4.19626">
        <ele>544</ele>
        <time>2022-06-09T15:17:08Z</time>
      </trkpt>
      <trkpt lat="44.62917" lon="4.19746">
        <ele>539</ele>
        <time>2022-06-09T15:17:29Z</time>
      </trkpt>
      <trkpt lat="44.62922" lon="4.19841">
        <ele>533</ele>
        <time>2022-06-09T15:17:44Z</time>
      </trkpt>
      <trkpt lat="44.62931" lon="4.19888">
        <ele>531</ele>
        <time>2022-06-09T15:17:53Z</time>
      </trkpt>
      <trkpt lat="44.6294" lon="4.19908">
        <ele>530</ele>
        <time>2022-06-09T15:17:56Z</time>
      </trkpt>
      <trkpt lat="44.62938" lon="4.19938">
        <ele>529</ele>
        <time>2022-06-09T15:18:01Z</time>
      </trkpt>
      <trkpt lat="44.62919" lon="4.20015">
        <ele>528</ele>
        <time>2022-06-09T15:18:15Z</time>
      </trkpt>
      <trkpt lat="44.62902" lon="4.2006">
        <ele>527</ele>
        <time>2022-06-09T15:18:23Z</time>
      </trkpt>
      <trkpt lat="44.62873" lon="4.201">
        <ele>527</ele>
        <time>2022-06-09T15:18:33Z</time>
      </trkpt>
      <trkpt lat="44.62856" lon="4.20141">
        <ele>525</ele>
        <time>2022-06-09T15:18:41Z</time>
      </trkpt>
      <trkpt lat="44.62852" lon="4.20171">
        <ele>523</ele>
        <time>2022-06-09T15:18:46Z</time>
      </trkpt>
      <trkpt lat="44.62826" lon="4.20294">
        <ele>520</ele>
        <time>2022-06-09T15:19:07Z</time>
      </trkpt>
      <trkpt lat="44.62764" lon="4.20404">
        <ele>518</ele>
        <time>2022-06-09T15:19:31Z</time>
      </trkpt>
      <trkpt lat="44.62688" lon="4.20484">
        <ele>523</ele>
        <time>2022-06-09T15:19:53Z</time>
      </trkpt>
      <trkpt lat="44.62678" lon="4.20501">
        <ele>523</ele>
        <time>2022-06-09T15:19:56Z</time>
      </trkpt>
      <trkpt lat="44.62668" lon="4.20579">
        <ele>520</ele>
        <time>2022-06-09T15:20:10Z</time>
      </trkpt>
      <trkpt lat="44.62646" lon="4.2066">
        <ele>519</ele>
        <time>2022-06-09T15:20:24Z</time>
      </trkpt>
      <trkpt lat="44.62626" lon="4.20757">
        <ele>514</ele>
        <time>2022-06-09T15:20:41Z</time>
      </trkpt>
      <trkpt lat="44.62622" lon="4.20766">
        <ele>514</ele>
        <time>2022-06-09T15:20:43Z</time>
      </trkpt>
      <trkpt lat="44.62581" lon="4.20837">
        <ele>514</ele>
        <time>2022-06-09T15:20:58Z</time>
      </trkpt>
      <trkpt lat="44.62558" lon="4.20886">
        <ele>511</ele>
        <time>2022-06-09T15:21:07Z</time>
      </trkpt>
      <trkpt lat="44.62542" lon="4.20914">
        <ele>510</ele>
        <time>2022-06-09T15:21:13Z</time>
      </trkpt>
      <trkpt lat="44.62467" lon="4.20981">
        <ele>511</ele>
        <time>2022-06-09T15:21:34Z</time>
      </trkpt>
      <trkpt lat="44.62462" lon="4.20991">
        <ele>510</ele>
        <time>2022-06-09T15:21:36Z</time>
      </trkpt>
      <trkpt lat="44.62441" lon="4.21062">
        <ele>508</ele>
        <time>2022-06-09T15:21:49Z</time>
      </trkpt>
      <trkpt lat="44.62427" lon="4.21092">
        <ele>507</ele>
        <time>2022-06-09T15:21:55Z</time>
      </trkpt>
      <trkpt lat="44.62394" lon="4.21123">
        <ele>509</ele>
        <time>2022-06-09T15:22:04Z</time>
      </trkpt>
      <trkpt lat="44.6235" lon="4.21177">
        <ele>512</ele>
        <time>2022-06-09T15:22:18Z</time>
      </trkpt>
      <trkpt lat="44.62351" lon="4.21173">
        <ele>512</ele>
        <time>2022-06-09T15:22:19Z</time>
      </trkpt>
      <trkpt lat="44.62349" lon="4.21175">
        <ele>512</ele>
        <time>2022-06-09T15:22:19Z</time>
      </trkpt>
      <trkpt lat="44.62348" lon="4.21172">
        <ele>513</ele>
        <time>2022-06-09T15:22:20Z</time>
      </trkpt>
      <trkpt lat="44.62345" lon="4.21191">
        <ele>512</ele>
        <time>2022-06-09T15:22:23Z</time>
      </trkpt>
      <trkpt lat="44.62305" lon="4.21281">
        <ele>513</ele>
        <time>2022-06-09T15:22:41Z</time>
      </trkpt>
      <trkpt lat="44.62272" lon="4.21327">
        <ele>515</ele>
        <time>2022-06-09T15:22:51Z</time>
      </trkpt>
      <trkpt lat="44.62235" lon="4.21391">
        <ele>519</ele>
        <time>2022-06-09T15:23:05Z</time>
      </trkpt>
      <trkpt lat="44.62187" lon="4.2146">
        <ele>526</ele>
        <time>2022-06-09T15:23:21Z</time>
      </trkpt>
      <trkpt lat="44.62175" lon="4.21489">
        <ele>524</ele>
        <time>2022-06-09T15:23:27Z</time>
      </trkpt>
      <trkpt lat="44.62157" lon="4.21504">
        <ele>524</ele>
        <time>2022-06-09T15:23:32Z</time>
      </trkpt>
      <trkpt lat="44.62133" lon="4.21504">
        <ele>526</ele>
        <time>2022-06-09T15:23:37Z</time>
      </trkpt>
      <trkpt lat="44.621" lon="4.21497">
        <ele>530</ele>
        <time>2022-06-09T15:23:45Z</time>
      </trkpt>
      <trkpt lat="44.62063" lon="4.21478">
        <ele>535</ele>
        <time>2022-06-09T15:23:54Z</time>
      </trkpt>
      <trkpt lat="44.62053" lon="4.2144">
        <ele>541</ele>
        <time>2022-06-09T15:24:01Z</time>
      </trkpt>
      <trkpt lat="44.62044" lon="4.21425">
        <ele>542</ele>
        <time>2022-06-09T15:24:04Z</time>
      </trkpt>
      <trkpt lat="44.62038" lon="4.21423">
        <ele>542</ele>
        <time>2022-06-09T15:24:06Z</time>
      </trkpt>
      <trkpt lat="44.62032" lon="4.21426">
        <ele>541</ele>
        <time>2022-06-09T15:24:07Z</time>
      </trkpt>
      <trkpt lat="44.62025" lon="4.21434">
        <ele>540</ele>
        <time>2022-06-09T15:24:09Z</time>
      </trkpt>
      <trkpt lat="44.62017" lon="4.21466">
        <ele>536</ele>
        <time>2022-06-09T15:24:15Z</time>
      </trkpt>
      <trkpt lat="44.61999" lon="4.21485">
        <ele>535</ele>
        <time>2022-06-09T15:24:20Z</time>
      </trkpt>
      <trkpt lat="44.61975" lon="4.21482">
        <ele>540</ele>
        <time>2022-06-09T15:24:26Z</time>
      </trkpt>
      <trkpt lat="44.61932" lon="4.2149">
        <ele>549</ele>
        <time>2022-06-09T15:24:36Z</time>
      </trkpt>
      <trkpt lat="44.61928" lon="4.21496">
        <ele>549</ele>
        <time>2022-06-09T15:24:37Z</time>
      </trkpt>
      <trkpt lat="44.61925" lon="4.21506">
        <ele>550</ele>
        <time>2022-06-09T15:24:39Z</time>
      </trkpt>
      <trkpt lat="44.61928" lon="4.21515">
        <ele>551</ele>
        <time>2022-06-09T15:24:41Z</time>
      </trkpt>
      <trkpt lat="44.61949" lon="4.21534">
        <ele>548</ele>
        <time>2022-06-09T15:24:47Z</time>
      </trkpt>
      <trkpt lat="44.61984" lon="4.21595">
        <ele>546</ele>
        <time>2022-06-09T15:25:00Z</time>
      </trkpt>
      <trkpt lat="44.61994" lon="4.21624">
        <ele>550</ele>
        <time>2022-06-09T15:25:05Z</time>
      </trkpt>
      <trkpt lat="44.62018" lon="4.21665">
        <ele>552</ele>
        <time>2022-06-09T15:25:14Z</time>
      </trkpt>
      <trkpt lat="44.6207" lon="4.21715">
        <ele>547</ele>
        <time>2022-06-09T15:25:29Z</time>
      </trkpt>
      <trkpt lat="44.62082" lon="4.21747">
        <ele>551</ele>
        <time>2022-06-09T15:25:35Z</time>
      </trkpt>
      <trkpt lat="44.62083" lon="4.21802">
        <ele>552</ele>
        <time>2022-06-09T15:25:44Z</time>
      </trkpt>
      <trkpt lat="44.62042" lon="4.21907">
        <ele>567</ele>
        <time>2022-06-09T15:26:04Z</time>
      </trkpt>
      <trkpt lat="44.62026" lon="4.21965">
        <ele>569</ele>
        <time>2022-06-09T15:26:14Z</time>
      </trkpt>
      <trkpt lat="44.62024" lon="4.21984">
        <ele>567</ele>
        <time>2022-06-09T15:26:17Z</time>
      </trkpt>
      <trkpt lat="44.62012" lon="4.22019">
        <ele>567</ele>
        <time>2022-06-09T15:26:24Z</time>
      </trkpt>
      <trkpt lat="44.61991" lon="4.22053">
        <ele>570</ele>
        <time>2022-06-09T15:26:31Z</time>
      </trkpt>
      <trkpt lat="44.61977" lon="4.22065">
        <ele>573</ele>
        <time>2022-06-09T15:26:35Z</time>
      </trkpt>
      <trkpt lat="44.61955" lon="4.22067">
        <ele>581</ele>
        <time>2022-06-09T15:26:40Z</time>
      </trkpt>
      <trkpt lat="44.61947" lon="4.22073">
        <ele>583</ele>
        <time>2022-06-09T15:26:42Z</time>
      </trkpt>
      <trkpt lat="44.61931" lon="4.22094">
        <ele>586</ele>
        <time>2022-06-09T15:26:47Z</time>
      </trkpt>
      <trkpt lat="44.6192" lon="4.22117">
        <ele>588</ele>
        <time>2022-06-09T15:26:52Z</time>
      </trkpt>
      <trkpt lat="44.61918" lon="4.22145">
        <ele>586</ele>
        <time>2022-06-09T15:26:57Z</time>
      </trkpt>
      <trkpt lat="44.61906" lon="4.22199">
        <ele>581</ele>
        <time>2022-06-09T15:27:06Z</time>
      </trkpt>
      <trkpt lat="44.61889" lon="4.22224">
        <ele>579</ele>
        <time>2022-06-09T15:27:12Z</time>
      </trkpt>
      <trkpt lat="44.61861" lon="4.22229">
        <ele>583</ele>
        <time>2022-06-09T15:27:18Z</time>
      </trkpt>
      <trkpt lat="44.61845" lon="4.22228">
        <ele>587</ele>
        <time>2022-06-09T15:27:22Z</time>
      </trkpt>
      <trkpt lat="44.6181" lon="4.22212">
        <ele>598</ele>
        <time>2022-06-09T15:27:31Z</time>
      </trkpt>
      <trkpt lat="44.61789" lon="4.2223">
        <ele>596</ele>
        <time>2022-06-09T15:27:36Z</time>
      </trkpt>
      <trkpt lat="44.61766" lon="4.22259">
        <ele>589</ele>
        <time>2022-06-09T15:27:44Z</time>
      </trkpt>
      <trkpt lat="44.61733" lon="4.22263">
        <ele>597</ele>
        <time>2022-06-09T15:27:51Z</time>
      </trkpt>
      <trkpt lat="44.61708" lon="4.22283">
        <ele>603</ele>
        <time>2022-06-09T15:27:58Z</time>
      </trkpt>
      <trkpt lat="44.61685" lon="4.22364">
        <ele>600</ele>
        <time>2022-06-09T15:28:13Z</time>
      </trkpt>
      <trkpt lat="44.61674" lon="4.22426">
        <ele>600</ele>
        <time>2022-06-09T15:28:23Z</time>
      </trkpt>
      <trkpt lat="44.61659" lon="4.2247">
        <ele>599</ele>
        <time>2022-06-09T15:28:31Z</time>
      </trkpt>
      <trkpt lat="44.61639" lon="4.2251">
        <ele>599</ele>
        <time>2022-06-09T15:28:39Z</time>
      </trkpt>
      <trkpt lat="44.61614" lon="4.22521">
        <ele>604</ele>
        <time>2022-06-09T15:28:46Z</time>
      </trkpt>
      <trkpt lat="44.61574" lon="4.22516">
        <ele>612</ele>
        <time>2022-06-09T15:28:55Z</time>
      </trkpt>
      <trkpt lat="44.61567" lon="4.22521">
        <ele>612</ele>
        <time>2022-06-09T15:28:57Z</time>
      </trkpt>
      <trkpt lat="44.61527" lon="4.22568">
        <ele>607</ele>
        <time>2022-06-09T15:29:09Z</time>
      </trkpt>
      <trkpt lat="44.61496" lon="4.22588">
        <ele>603</ele>
        <time>2022-06-09T15:29:17Z</time>
      </trkpt>
      <trkpt lat="44.61473" lon="4.22598">
        <ele>602</ele>
        <time>2022-06-09T15:29:22Z</time>
      </trkpt>
      <trkpt lat="44.61464" lon="4.22596">
        <ele>604</ele>
        <time>2022-06-09T15:29:25Z</time>
      </trkpt>
      <trkpt lat="44.61451" lon="4.22588">
        <ele>606</ele>
        <time>2022-06-09T15:29:28Z</time>
      </trkpt>
      <trkpt lat="44.61446" lon="4.22588">
        <ele>607</ele>
        <time>2022-06-09T15:29:29Z</time>
      </trkpt>
      <trkpt lat="44.61424" lon="4.22604">
        <ele>604</ele>
        <time>2022-06-09T15:29:35Z</time>
      </trkpt>
      <trkpt lat="44.61407" lon="4.22623">
        <ele>598</ele>
        <time>2022-06-09T15:29:40Z</time>
      </trkpt>
      <trkpt lat="44.61397" lon="4.22628">
        <ele>596</ele>
        <time>2022-06-09T15:29:42Z</time>
      </trkpt>
      <trkpt lat="44.61387" lon="4.22629">
        <ele>595</ele>
        <time>2022-06-09T15:29:45Z</time>
      </trkpt>
      <trkpt lat="44.61376" lon="4.22626">
        <ele>595</ele>
        <time>2022-06-09T15:29:47Z</time>
      </trkpt>
      <trkpt lat="44.61366" lon="4.22619">
        <ele>596</ele>
        <time>2022-06-09T15:29:50Z</time>
      </trkpt>
      <trkpt lat="44.61353" lon="4.22603">
        <ele>601</ele>
        <time>2022-06-09T15:29:54Z</time>
      </trkpt>
      <trkpt lat="44.61347" lon="4.22599">
        <ele>602</ele>
        <time>2022-06-09T15:29:56Z</time>
      </trkpt>
      <trkpt lat="44.61289" lon="4.2258">
        <ele>603</ele>
        <time>2022-06-09T15:30:09Z</time>
      </trkpt>
      <trkpt lat="44.61271" lon="4.22585">
        <ele>600</ele>
        <time>2022-06-09T15:30:14Z</time>
      </trkpt>
      <trkpt lat="44.61246" lon="4.22604">
        <ele>595</ele>
        <time>2022-06-09T15:30:20Z</time>
      </trkpt>
      <trkpt lat="44.61246" lon="4.22616">
        <ele>593</ele>
        <time>2022-06-09T15:30:22Z</time>
      </trkpt>
      <trkpt lat="44.61254" lon="4.22625">
        <ele>592</ele>
        <time>2022-06-09T15:30:25Z</time>
      </trkpt>
      <trkpt lat="44.61259" lon="4.22625">
        <ele>592</ele>
        <time>2022-06-09T15:30:26Z</time>
      </trkpt>
      <trkpt lat="44.61282" lon="4.22615">
        <ele>594</ele>
        <time>2022-06-09T15:30:32Z</time>
      </trkpt>
      <trkpt lat="44.61309" lon="4.2261">
        <ele>596</ele>
        <time>2022-06-09T15:30:38Z</time>
      </trkpt>
      <trkpt lat="44.6133" lon="4.22618">
        <ele>594</ele>
        <time>2022-06-09T15:30:43Z</time>
      </trkpt>
      <trkpt lat="44.61335" lon="4.22623">
        <ele>593</ele>
        <time>2022-06-09T15:30:44Z</time>
      </trkpt>
      <trkpt lat="44.61358" lon="4.22663">
        <ele>582</ele>
        <time>2022-06-09T15:30:53Z</time>
      </trkpt>
      <trkpt lat="44.61396" lon="4.22695">
        <ele>579</ele>
        <time>2022-06-09T15:31:03Z</time>
      </trkpt>
      <trkpt lat="44.61422" lon="4.22712">
        <ele>575</ele>
        <time>2022-06-09T15:31:10Z</time>
      </trkpt>
      <trkpt lat="44.61423" lon="4.22717">
        <ele>574</ele>
        <time>2022-06-09T15:31:11Z</time>
      </trkpt>
      <trkpt lat="44.61421" lon="4.22712">
        <ele>575</ele>
        <time>2022-06-09T15:31:12Z</time>
      </trkpt>
      <trkpt lat="44.61407" lon="4.22706">
        <ele>577</ele>
        <time>2022-06-09T15:31:15Z</time>
      </trkpt>
      <trkpt lat="44.61404" lon="4.22708">
        <ele>576</ele>
        <time>2022-06-09T15:31:16Z</time>
      </trkpt>
      <trkpt lat="44.61397" lon="4.22698">
        <ele>578</ele>
        <time>2022-06-09T15:31:18Z</time>
      </trkpt>
      <trkpt lat="44.6135" lon="4.22651">
        <ele>585</ele>
        <time>2022-06-09T15:31:32Z</time>
      </trkpt>
      <trkpt lat="44.61343" lon="4.22635">
        <ele>589</ele>
        <time>2022-06-09T15:31:35Z</time>
      </trkpt>
      <trkpt lat="44.61327" lon="4.22619">
        <ele>594</ele>
        <time>2022-06-09T15:31:40Z</time>
      </trkpt>
      <trkpt lat="44.61296" lon="4.22613">
        <ele>595</ele>
        <time>2022-06-09T15:31:47Z</time>
      </trkpt>
      <trkpt lat="44.61267" lon="4.22623">
        <ele>592</ele>
        <time>2022-06-09T15:31:54Z</time>
      </trkpt>
      <trkpt lat="44.61247" lon="4.22619">
        <ele>593</ele>
        <time>2022-06-09T15:31:59Z</time>
      </trkpt>
      <trkpt lat="44.6124" lon="4.22611">
        <ele>595</ele>
        <time>2022-06-09T15:32:01Z</time>
      </trkpt>
      <trkpt lat="44.61232" lon="4.22612">
        <ele>596</ele>
        <time>2022-06-09T15:32:03Z</time>
      </trkpt>
      <trkpt lat="44.61206" lon="4.22598">
        <ele>600</ele>
        <time>2022-06-09T15:32:09Z</time>
      </trkpt>
      <trkpt lat="44.61181" lon="4.22581">
        <ele>602</ele>
        <time>2022-06-09T15:32:16Z</time>
      </trkpt>
      <trkpt lat="44.61166" lon="4.22587">
        <ele>603</ele>
        <time>2022-06-09T15:32:19Z</time>
      </trkpt>
      <trkpt lat="44.61163" lon="4.22623">
        <ele>608</ele>
        <time>2022-06-09T15:32:25Z</time>
      </trkpt>
      <trkpt lat="44.61167" lon="4.22657">
        <ele>608</ele>
        <time>2022-06-09T15:32:31Z</time>
      </trkpt>
      <trkpt lat="44.6118" lon="4.22688">
        <ele>613</ele>
        <time>2022-06-09T15:32:37Z</time>
      </trkpt>
      <trkpt lat="44.61202" lon="4.22714">
        <ele>614</ele>
        <time>2022-06-09T15:32:44Z</time>
      </trkpt>
      <trkpt lat="44.61221" lon="4.22728">
        <ele>612</ele>
        <time>2022-06-09T15:32:49Z</time>
      </trkpt>
      <trkpt lat="44.61242" lon="4.22739">
        <ele>608</ele>
        <time>2022-06-09T15:32:54Z</time>
      </trkpt>
      <trkpt lat="44.61264" lon="4.22746">
        <ele>602</ele>
        <time>2022-06-09T15:32:59Z</time>
      </trkpt>
      <trkpt lat="44.61281" lon="4.22776">
        <ele>601</ele>
        <time>2022-06-09T15:33:06Z</time>
      </trkpt>
      <trkpt lat="44.61287" lon="4.22802">
        <ele>603</ele>
        <time>2022-06-09T15:33:10Z</time>
      </trkpt>
      <trkpt lat="44.61288" lon="4.22837">
        <ele>609</ele>
        <time>2022-06-09T15:33:16Z</time>
      </trkpt>
      <trkpt lat="44.61283" lon="4.22861">
        <ele>608</ele>
        <time>2022-06-09T15:33:20Z</time>
      </trkpt>
      <trkpt lat="44.6127" lon="4.22881">
        <ele>612</ele>
        <time>2022-06-09T15:33:25Z</time>
      </trkpt>
      <trkpt lat="44.61234" lon="4.22925">
        <ele>618</ele>
        <time>2022-06-09T15:33:36Z</time>
      </trkpt>
      <trkpt lat="44.61218" lon="4.22935">
        <ele>618</ele>
        <time>2022-06-09T15:33:40Z</time>
      </trkpt>
      <trkpt lat="44.61164" lon="4.2293">
        <ele>632</ele>
        <time>2022-06-09T15:33:52Z</time>
      </trkpt>
      <trkpt lat="44.61122" lon="4.22919">
        <ele>641</ele>
        <time>2022-06-09T15:34:02Z</time>
      </trkpt>
      <trkpt lat="44.6109" lon="4.22926">
        <ele>644</ele>
        <time>2022-06-09T15:34:10Z</time>
      </trkpt>
      <trkpt lat="44.61034" lon="4.22914">
        <ele>655</ele>
        <time>2022-06-09T15:34:23Z</time>
      </trkpt>
      <trkpt lat="44.61014" lon="4.22907">
        <ele>660</ele>
        <time>2022-06-09T15:34:28Z</time>
      </trkpt>
      <trkpt lat="44.61013" lon="4.22909">
        <ele>659</ele>
        <time>2022-06-09T15:34:28Z</time>
      </trkpt>
      <trkpt lat="44.61009" lon="4.22925">
        <ele>657</ele>
        <time>2022-06-09T15:34:31Z</time>
      </trkpt>
      <trkpt lat="44.61039" lon="4.23043">
        <ele>650</ele>
        <time>2022-06-09T15:34:52Z</time>
      </trkpt>
      <trkpt lat="44.61081" lon="4.23161">
        <ele>651</ele>
        <time>2022-06-09T15:35:14Z</time>
      </trkpt>
      <trkpt lat="44.61103" lon="4.23204">
        <ele>645</ele>
        <time>2022-06-09T15:35:23Z</time>
      </trkpt>
      <trkpt lat="44.61108" lon="4.23219">
        <ele>643</ele>
        <time>2022-06-09T15:35:26Z</time>
      </trkpt>
      <trkpt lat="44.61109" lon="4.23235">
        <ele>644</ele>
        <time>2022-06-09T15:35:28Z</time>
      </trkpt>
      <trkpt lat="44.61103" lon="4.23255">
        <ele>645</ele>
        <time>2022-06-09T15:35:32Z</time>
      </trkpt>
      <trkpt lat="44.61095" lon="4.23257">
        <ele>647</ele>
        <time>2022-06-09T15:35:34Z</time>
      </trkpt>
      <trkpt lat="44.61084" lon="4.23247">
        <ele>653</ele>
        <time>2022-06-09T15:35:37Z</time>
      </trkpt>
      <trkpt lat="44.61077" lon="4.23225">
        <ele>653</ele>
        <time>2022-06-09T15:35:41Z</time>
      </trkpt>
      <trkpt lat="44.61074" lon="4.23222">
        <ele>653</ele>
        <time>2022-06-09T15:35:42Z</time>
      </trkpt>
      <trkpt lat="44.61016" lon="4.23186">
        <ele>662</ele>
        <time>2022-06-09T15:35:56Z</time>
      </trkpt>
      <trkpt lat="44.60989" lon="4.23175">
        <ele>669</ele>
        <time>2022-06-09T15:36:03Z</time>
      </trkpt>
      <trkpt lat="44.60978" lon="4.23173">
        <ele>671</ele>
        <time>2022-06-09T15:36:06Z</time>
      </trkpt>
      <trkpt lat="44.60935" lon="4.23175">
        <ele>677</ele>
        <time>2022-06-09T15:36:16Z</time>
      </trkpt>
      <trkpt lat="44.60885" lon="4.23161">
        <ele>689</ele>
        <time>2022-06-09T15:36:28Z</time>
      </trkpt>
      <trkpt lat="44.60871" lon="4.23165">
        <ele>690</ele>
        <time>2022-06-09T15:36:31Z</time>
      </trkpt>
      <trkpt lat="44.60825" lon="4.23199">
        <ele>687</ele>
        <time>2022-06-09T15:36:43Z</time>
      </trkpt>
      <trkpt lat="44.60811" lon="4.23204">
        <ele>687</ele>
        <time>2022-06-09T15:36:46Z</time>
      </trkpt>
      <trkpt lat="44.60757" lon="4.23212">
        <ele>693</ele>
        <time>2022-06-09T15:36:59Z</time>
      </trkpt>
      <trkpt lat="44.60714" lon="4.2321">
        <ele>699</ele>
        <time>2022-06-09T15:37:09Z</time>
      </trkpt>
      <trkpt lat="44.60691" lon="4.23208">
        <ele>703</ele>
        <time>2022-06-09T15:37:15Z</time>
      </trkpt>
      <trkpt lat="44.60657" lon="4.23179">
        <ele>715</ele>
        <time>2022-06-09T15:37:24Z</time>
      </trkpt>
      <trkpt lat="44.60631" lon="4.23151">
        <ele>727</ele>
        <time>2022-06-09T15:37:31Z</time>
      </trkpt>
      <trkpt lat="44.60617" lon="4.23157">
        <ele>727</ele>
        <time>2022-06-09T15:37:35Z</time>
      </trkpt>
      <trkpt lat="44.60614" lon="4.23177">
        <ele>723</ele>
        <time>2022-06-09T15:37:38Z</time>
      </trkpt>
      <trkpt lat="44.60604" lon="4.23214">
        <ele>721</ele>
        <time>2022-06-09T15:37:45Z</time>
      </trkpt>
      <trkpt lat="44.60602" lon="4.23234">
        <ele>719</ele>
        <time>2022-06-09T15:37:48Z</time>
      </trkpt>
      <trkpt lat="44.60596" lon="4.23256">
        <ele>721</ele>
        <time>2022-06-09T15:37:52Z</time>
      </trkpt>
      <trkpt lat="44.60587" lon="4.23275">
        <ele>727</ele>
        <time>2022-06-09T15:37:56Z</time>
      </trkpt>
      <trkpt lat="44.60614" lon="4.23336">
        <ele>726</ele>
        <time>2022-06-09T15:38:08Z</time>
      </trkpt>
      <trkpt lat="44.60635" lon="4.23372">
        <ele>727</ele>
        <time>2022-06-09T15:38:16Z</time>
      </trkpt>
      <trkpt lat="44.60684" lon="4.23427">
        <ele>721</ele>
        <time>2022-06-09T15:38:30Z</time>
      </trkpt>
      <trkpt lat="44.6069" lon="4.23439">
        <ele>720</ele>
        <time>2022-06-09T15:38:33Z</time>
      </trkpt>
      <trkpt lat="44.60692" lon="4.23451">
        <ele>721</ele>
        <time>2022-06-09T15:38:35Z</time>
      </trkpt>
      <trkpt lat="44.60679" lon="4.23473">
        <ele>728</ele>
        <time>2022-06-09T15:38:40Z</time>
      </trkpt>
      <trkpt lat="44.60662" lon="4.2349">
        <ele>737</ele>
        <time>2022-06-09T15:38:44Z</time>
      </trkpt>
      <trkpt lat="44.60648" lon="4.23515">
        <ele>743</ele>
        <time>2022-06-09T15:38:50Z</time>
      </trkpt>
      <trkpt lat="44.60636" lon="4.23558">
        <ele>749</ele>
        <time>2022-06-09T15:38:57Z</time>
      </trkpt>
      <trkpt lat="44.60662" lon="4.23616">
        <ele>744</ele>
        <time>2022-06-09T15:39:09Z</time>
      </trkpt>
      <trkpt lat="44.60674" lon="4.23658">
        <ele>744</ele>
        <time>2022-06-09T15:39:16Z</time>
      </trkpt>
      <trkpt lat="44.60672" lon="4.23672">
        <ele>746</ele>
        <time>2022-06-09T15:39:19Z</time>
      </trkpt>
      <trkpt lat="44.60676" lon="4.23694">
        <ele>745</ele>
        <time>2022-06-09T15:39:22Z</time>
      </trkpt>
      <trkpt lat="44.6067" lon="4.23757">
        <ele>752</ele>
        <time>2022-06-09T15:39:33Z</time>
      </trkpt>
      <trkpt lat="44.60676" lon="4.23775">
        <ele>753</ele>
        <time>2022-06-09T15:39:36Z</time>
      </trkpt>
      <trkpt lat="44.60702" lon="4.23801">
        <ele>747</ele>
        <time>2022-06-09T15:39:44Z</time>
      </trkpt>
      <trkpt lat="44.60718" lon="4.23833">
        <ele>747</ele>
        <time>2022-06-09T15:39:50Z</time>
      </trkpt>
      <trkpt lat="44.60729" lon="4.23866">
        <ele>745</ele>
        <time>2022-06-09T15:39:56Z</time>
      </trkpt>
      <trkpt lat="44.60727" lon="4.23895">
        <ele>748</ele>
        <time>2022-06-09T15:40:01Z</time>
      </trkpt>
      <trkpt lat="44.60709" lon="4.24018">
        <ele>756</ele>
        <time>2022-06-09T15:40:22Z</time>
      </trkpt>
      <trkpt lat="44.6071" lon="4.24073">
        <ele>758</ele>
        <time>2022-06-09T15:40:31Z</time>
      </trkpt>
      <trkpt lat="44.6072" lon="4.24143">
        <ele>759</ele>
        <time>2022-06-09T15:40:43Z</time>
      </trkpt>
      <trkpt lat="44.60718" lon="4.24173">
        <ele>762</ele>
        <time>2022-06-09T15:40:48Z</time>
      </trkpt>
      <trkpt lat="44.60712" lon="4.24215">
        <ele>768</ele>
        <time>2022-06-09T15:40:55Z</time>
      </trkpt>
      <trkpt lat="44.60705" lon="4.24234">
        <ele>771</ele>
        <time>2022-06-09T15:40:59Z</time>
      </trkpt>
      <trkpt lat="44.60697" lon="4.24239">
        <ele>772</ele>
        <time>2022-06-09T15:41:01Z</time>
      </trkpt>
      <trkpt lat="44.60692" lon="4.24234">
        <ele>772</ele>
        <time>2022-06-09T15:41:02Z</time>
      </trkpt>
      <trkpt lat="44.60682" lon="4.24209">
        <ele>771</ele>
        <time>2022-06-09T15:41:07Z</time>
      </trkpt>
      <trkpt lat="44.60664" lon="4.24148">
        <ele>773</ele>
        <time>2022-06-09T15:41:18Z</time>
      </trkpt>
      <trkpt lat="44.60661" lon="4.24146">
        <ele>772</ele>
        <time>2022-06-09T15:41:19Z</time>
      </trkpt>
      <trkpt lat="44.60656" lon="4.24148">
        <ele>772</ele>
        <time>2022-06-09T15:41:20Z</time>
      </trkpt>
      <trkpt lat="44.60652" lon="4.24169">
        <ele>770</ele>
        <time>2022-06-09T15:41:24Z</time>
      </trkpt>
      <trkpt lat="44.60648" lon="4.24175">
        <ele>770</ele>
        <time>2022-06-09T15:41:25Z</time>
      </trkpt>
      <trkpt lat="44.60639" lon="4.24174">
        <ele>769</ele>
        <time>2022-06-09T15:41:27Z</time>
      </trkpt>
      <trkpt lat="44.60627" lon="4.24162">
        <ele>768</ele>
        <time>2022-06-09T15:41:30Z</time>
      </trkpt>
      <trkpt lat="44.60629" lon="4.24169">
        <ele>768</ele>
        <time>2022-06-09T15:41:32Z</time>
      </trkpt>
      <trkpt lat="44.60642" lon="4.24173">
        <ele>769</ele>
        <time>2022-06-09T15:41:35Z</time>
      </trkpt>
      <trkpt lat="44.60648" lon="4.24169">
        <ele>770</ele>
        <time>2022-06-09T15:41:36Z</time>
      </trkpt>
      <trkpt lat="44.60654" lon="4.24159">
        <ele>771</ele>
        <time>2022-06-09T15:41:39Z</time>
      </trkpt>
      <trkpt lat="44.60651" lon="4.24127">
        <ele>773</ele>
        <time>2022-06-09T15:41:44Z</time>
      </trkpt>
      <trkpt lat="44.60644" lon="4.24102">
        <ele>774</ele>
        <time>2022-06-09T15:41:48Z</time>
      </trkpt>
      <trkpt lat="44.60639" lon="4.24094">
        <ele>774</ele>
        <time>2022-06-09T15:41:50Z</time>
      </trkpt>
      <trkpt lat="44.60636" lon="4.24028">
        <ele>775</ele>
        <time>2022-06-09T15:42:01Z</time>
      </trkpt>
      <trkpt lat="44.60629" lon="4.23964">
        <ele>779</ele>
        <time>2022-06-09T15:42:12Z</time>
      </trkpt>
      <trkpt lat="44.60619" lon="4.23923">
        <ele>783</ele>
        <time>2022-06-09T15:42:19Z</time>
      </trkpt>
      <trkpt lat="44.60604" lon="4.2389">
        <ele>786</ele>
        <time>2022-06-09T15:42:26Z</time>
      </trkpt>
      <trkpt lat="44.60582" lon="4.23867">
        <ele>791</ele>
        <time>2022-06-09T15:42:32Z</time>
      </trkpt>
      <trkpt lat="44.60564" lon="4.23842">
        <ele>793</ele>
        <time>2022-06-09T15:42:38Z</time>
      </trkpt>
      <trkpt lat="44.60553" lon="4.23772">
        <ele>798</ele>
        <time>2022-06-09T15:42:50Z</time>
      </trkpt>
      <trkpt lat="44.60544" lon="4.23739">
        <ele>801</ele>
        <time>2022-06-09T15:42:56Z</time>
      </trkpt>
      <trkpt lat="44.60529" lon="4.23708">
        <ele>804</ele>
        <time>2022-06-09T15:43:02Z</time>
      </trkpt>
      <trkpt lat="44.60496" lon="4.23661">
        <ele>811</ele>
        <time>2022-06-09T15:43:13Z</time>
      </trkpt>
      <trkpt lat="44.60468" lon="4.23636">
        <ele>817</ele>
        <time>2022-06-09T15:43:21Z</time>
      </trkpt>
      <trkpt lat="44.60455" lon="4.23615">
        <ele>820</ele>
        <time>2022-06-09T15:43:25Z</time>
      </trkpt>
      <trkpt lat="44.60451" lon="4.23607">
        <ele>822</ele>
        <time>2022-06-09T15:43:27Z</time>
      </trkpt>
      <trkpt lat="44.60439" lon="4.23555">
        <ele>826</ele>
        <time>2022-06-09T15:43:36Z</time>
      </trkpt>
      <trkpt lat="44.60426" lon="4.23517">
        <ele>828</ele>
        <time>2022-06-09T15:43:43Z</time>
      </trkpt>
      <trkpt lat="44.60416" lon="4.23496">
        <ele>831</ele>
        <time>2022-06-09T15:43:47Z</time>
      </trkpt>
      <trkpt lat="44.60375" lon="4.23443">
        <ele>837</ele>
        <time>2022-06-09T15:44:00Z</time>
      </trkpt>
      <trkpt lat="44.60352" lon="4.23401">
        <ele>841</ele>
        <time>2022-06-09T15:44:09Z</time>
      </trkpt>
      <trkpt lat="44.6033" lon="4.23347">
        <ele>844</ele>
        <time>2022-06-09T15:44:19Z</time>
      </trkpt>
      <trkpt lat="44.60284" lon="4.23307">
        <ele>851</ele>
        <time>2022-06-09T15:44:32Z</time>
      </trkpt>
      <trkpt lat="44.60268" lon="4.23313">
        <ele>854</ele>
        <time>2022-06-09T15:44:36Z</time>
      </trkpt>
      <trkpt lat="44.60253" lon="4.23314">
        <ele>857</ele>
        <time>2022-06-09T15:44:39Z</time>
      </trkpt>
      <trkpt lat="44.6022" lon="4.23304">
        <ele>850</ele>
        <time>2022-06-09T15:44:47Z</time>
      </trkpt>
      <trkpt lat="44.60205" lon="4.23289">
        <ele>848</ele>
        <time>2022-06-09T15:44:52Z</time>
      </trkpt>
      <trkpt lat="44.60202" lon="4.23281">
        <ele>848</ele>
        <time>2022-06-09T15:44:53Z</time>
      </trkpt>
      <trkpt lat="44.60205" lon="4.23277">
        <ele>849</ele>
        <time>2022-06-09T15:44:54Z</time>
      </trkpt>
      <trkpt lat="44.60205" lon="4.23249">
        <ele>852</ele>
        <time>2022-06-09T15:44:59Z</time>
      </trkpt>
      <trkpt lat="44.60193" lon="4.2321">
        <ele>857</ele>
        <time>2022-06-09T15:45:06Z</time>
      </trkpt>
      <trkpt lat="44.6019" lon="4.2319">
        <ele>860</ele>
        <time>2022-06-09T15:45:09Z</time>
      </trkpt>
      <trkpt lat="44.60165" lon="4.23122">
        <ele>875</ele>
        <time>2022-06-09T15:45:22Z</time>
      </trkpt>
      <trkpt lat="44.60152" lon="4.23099">
        <ele>878</ele>
        <time>2022-06-09T15:45:27Z</time>
      </trkpt>
      <trkpt lat="44.60136" lon="4.23083">
        <ele>880</ele>
        <time>2022-06-09T15:45:31Z</time>
      </trkpt>
      <trkpt lat="44.60121" lon="4.23072">
        <ele>880</ele>
        <time>2022-06-09T15:45:35Z</time>
      </trkpt>
      <trkpt lat="44.60113" lon="4.23071">
        <ele>879</ele>
        <time>2022-06-09T15:45:37Z</time>
      </trkpt>
      <trkpt lat="44.60104" lon="4.23065">
        <ele>879</ele>
        <time>2022-06-09T15:45:40Z</time>
      </trkpt>
      <trkpt lat="44.6006" lon="4.22999">
        <ele>896</ele>
        <time>2022-06-09T15:45:55Z</time>
      </trkpt>
      <trkpt lat="44.60032" lon="4.2293">
        <ele>914</ele>
        <time>2022-06-09T15:46:08Z</time>
      </trkpt>
      <trkpt lat="44.60026" lon="4.22921">
        <ele>915</ele>
        <time>2022-06-09T15:46:10Z</time>
      </trkpt>
      <trkpt lat="44.59998" lon="4.22907">
        <ele>916</ele>
        <time>2022-06-09T15:46:17Z</time>
      </trkpt>
      <trkpt lat="44.59986" lon="4.22912">
        <ele>918</ele>
        <time>2022-06-09T15:46:20Z</time>
      </trkpt>
      <trkpt lat="44.59985" lon="4.22922">
        <ele>916</ele>
        <time>2022-06-09T15:46:21Z</time>
      </trkpt>
      <trkpt lat="44.59973" lon="4.22951">
        <ele>912</ele>
        <time>2022-06-09T15:46:27Z</time>
      </trkpt>
      <trkpt lat="44.59917" lon="4.23022">
        <ele>913</ele>
        <time>2022-06-09T15:46:45Z</time>
      </trkpt>
      <trkpt lat="44.5989" lon="4.23066">
        <ele>906</ele>
        <time>2022-06-09T15:46:54Z</time>
      </trkpt>
      <trkpt lat="44.59885" lon="4.23071">
        <ele>905</ele>
        <time>2022-06-09T15:46:56Z</time>
      </trkpt>
      <trkpt lat="44.59859" lon="4.2308">
        <ele>906</ele>
        <time>2022-06-09T15:47:02Z</time>
      </trkpt>
      <trkpt lat="44.59849" lon="4.23071">
        <ele>910</ele>
        <time>2022-06-09T15:47:05Z</time>
      </trkpt>
      <trkpt lat="44.59807" lon="4.23013">
        <ele>930</ele>
        <time>2022-06-09T15:47:18Z</time>
      </trkpt>
      <trkpt lat="44.59784" lon="4.23001">
        <ele>931</ele>
        <time>2022-06-09T15:47:24Z</time>
      </trkpt>
      <trkpt lat="44.5977" lon="4.22985">
        <ele>934</ele>
        <time>2022-06-09T15:47:28Z</time>
      </trkpt>
      <trkpt lat="44.59741" lon="4.22919">
        <ele>955</ele>
        <time>2022-06-09T15:47:41Z</time>
      </trkpt>
      <trkpt lat="44.5973" lon="4.22912">
        <ele>959</ele>
        <time>2022-06-09T15:47:44Z</time>
      </trkpt>
      <trkpt lat="44.59723" lon="4.22915">
        <ele>960</ele>
        <time>2022-06-09T15:47:46Z</time>
      </trkpt>
      <trkpt lat="44.59696" lon="4.22945">
        <ele>958</ele>
        <time>2022-06-09T15:47:54Z</time>
      </trkpt>
      <trkpt lat="44.59684" lon="4.22971">
        <ele>954</ele>
        <time>2022-06-09T15:47:59Z</time>
      </trkpt>
      <trkpt lat="44.59645" lon="4.23084">
        <ele>954</ele>
        <time>2022-06-09T15:48:20Z</time>
      </trkpt>
      <trkpt lat="44.59629" lon="4.23114">
        <ele>957</ele>
        <time>2022-06-09T15:48:26Z</time>
      </trkpt>
      <trkpt lat="44.59615" lon="4.23148">
        <ele>959</ele>
        <time>2022-06-09T15:48:33Z</time>
      </trkpt>
      <trkpt lat="44.59608" lon="4.23174">
        <ele>959</ele>
        <time>2022-06-09T15:48:37Z</time>
      </trkpt>
      <trkpt lat="44.59599" lon="4.23241">
        <ele>957</ele>
        <time>2022-06-09T15:48:49Z</time>
      </trkpt>
      <trkpt lat="44.59583" lon="4.23288">
        <ele>959</ele>
        <time>2022-06-09T15:48:57Z</time>
      </trkpt>
      <trkpt lat="44.59578" lon="4.23312">
        <ele>957</ele>
        <time>2022-06-09T15:49:01Z</time>
      </trkpt>
      <trkpt lat="44.59561" lon="4.23346">
        <ele>953</ele>
        <time>2022-06-09T15:49:08Z</time>
      </trkpt>
      <trkpt lat="44.59563" lon="4.23346">
        <ele>953</ele>
        <time>2022-06-09T15:49:09Z</time>
      </trkpt>
      <trkpt lat="44.5957" lon="4.23327">
        <ele>956</ele>
        <time>2022-06-09T15:49:12Z</time>
      </trkpt>
      <trkpt lat="44.59576" lon="4.23294">
        <ele>960</ele>
        <time>2022-06-09T15:49:18Z</time>
      </trkpt>
      <trkpt lat="44.59591" lon="4.23249">
        <ele>960</ele>
        <time>2022-06-09T15:49:26Z</time>
      </trkpt>
      <trkpt lat="44.59594" lon="4.23223">
        <ele>961</ele>
        <time>2022-06-09T15:49:31Z</time>
      </trkpt>
      <trkpt lat="44.59591" lon="4.23259">
        <ele>959</ele>
        <time>2022-06-09T15:49:37Z</time>
      </trkpt>
      <trkpt lat="44.59586" lon="4.23273">
        <ele>960</ele>
        <time>2022-06-09T15:49:39Z</time>
      </trkpt>
      <trkpt lat="44.59584" lon="4.23273">
        <ele>961</ele>
        <time>2022-06-09T15:49:40Z</time>
      </trkpt>
      <trkpt lat="44.59587" lon="4.23276">
        <ele>959</ele>
        <time>2022-06-09T15:49:41Z</time>
      </trkpt>
      <trkpt lat="44.59577" lon="4.23298">
        <ele>959</ele>
        <time>2022-06-09T15:49:45Z</time>
      </trkpt>
      <trkpt lat="44.59566" lon="4.2334">
        <ele>954</ele>
        <time>2022-06-09T15:49:52Z</time>
      </trkpt>
      <trkpt lat="44.59557" lon="4.23349">
        <ele>953</ele>
        <time>2022-06-09T15:49:55Z</time>
      </trkpt>
      <trkpt lat="44.59544" lon="4.23349">
        <ele>954</ele>
        <time>2022-06-09T15:49:58Z</time>
      </trkpt>
      <trkpt lat="44.59532" lon="4.23346">
        <ele>956</ele>
        <time>2022-06-09T15:50:01Z</time>
      </trkpt>
      <trkpt lat="44.59522" lon="4.23337">
        <ele>960</ele>
        <time>2022-06-09T15:50:04Z</time>
      </trkpt>
      <trkpt lat="44.59496" lon="4.23303">
        <ele>969</ele>
        <time>2022-06-09T15:50:12Z</time>
      </trkpt>
      <trkpt lat="44.59498" lon="4.23293">
        <ele>972</ele>
        <time>2022-06-09T15:50:14Z</time>
      </trkpt>
      <trkpt lat="44.59511" lon="4.23295">
        <ele>970</ele>
        <time>2022-06-09T15:50:17Z</time>
      </trkpt>
      <trkpt lat="44.59525" lon="4.23283">
        <ele>970</ele>
        <time>2022-06-09T15:50:21Z</time>
      </trkpt>
      <trkpt lat="44.5953" lon="4.23262">
        <ele>973</ele>
        <time>2022-06-09T15:50:24Z</time>
      </trkpt>
      <trkpt lat="44.59545" lon="4.23144">
        <ele>991</ele>
        <time>2022-06-09T15:50:44Z</time>
      </trkpt>
      <trkpt lat="44.59545" lon="4.2313">
        <ele>994</ele>
        <time>2022-06-09T15:50:47Z</time>
      </trkpt>
      <trkpt lat="44.59542" lon="4.23133">
        <ele>994</ele>
        <time>2022-06-09T15:50:47Z</time>
      </trkpt>
      <trkpt lat="44.59542" lon="4.23131">
        <ele>995</ele>
        <time>2022-06-09T15:50:48Z</time>
      </trkpt>
      <trkpt lat="44.59548" lon="4.23132">
        <ele>992</ele>
        <time>2022-06-09T15:50:49Z</time>
      </trkpt>
      <trkpt lat="44.59545" lon="4.2313">
        <ele>994</ele>
        <time>2022-06-09T15:50:50Z</time>
      </trkpt>
      <trkpt lat="44.59548" lon="4.231">
        <ele>998</ele>
        <time>2022-06-09T15:50:55Z</time>
      </trkpt>
      <trkpt lat="44.59553" lon="4.23098">
        <ele>996</ele>
        <time>2022-06-09T15:50:56Z</time>
      </trkpt>
      <trkpt lat="44.5955" lon="4.23098">
        <ele>997</ele>
        <time>2022-06-09T15:50:57Z</time>
      </trkpt>
      <trkpt lat="44.5955" lon="4.23096">
        <ele>998</ele>
        <time>2022-06-09T15:50:57Z</time>
      </trkpt>
      <trkpt lat="44.5955" lon="4.23099">
        <ele>997</ele>
        <time>2022-06-09T15:50:58Z</time>
      </trkpt>
      <trkpt lat="44.59554" lon="4.23077">
        <ele>1000</ele>
        <time>2022-06-09T15:51:01Z</time>
      </trkpt>
      <trkpt lat="44.59573" lon="4.23007">
        <ele>1007</ele>
        <time>2022-06-09T15:51:14Z</time>
      </trkpt>
      <trkpt lat="44.59578" lon="4.22895">
        <ele>1022</ele>
        <time>2022-06-09T15:51:33Z</time>
      </trkpt>
      <trkpt lat="44.59581" lon="4.22871">
        <ele>1024</ele>
        <time>2022-06-09T15:51:37Z</time>
      </trkpt>
      <trkpt lat="44.59577" lon="4.2287">
        <ele>1026</ele>
        <time>2022-06-09T15:51:38Z</time>
      </trkpt>
      <trkpt lat="44.59572" lon="4.22883">
        <ele>1027</ele>
        <time>2022-06-09T15:51:40Z</time>
      </trkpt>
      <trkpt lat="44.59559" lon="4.22932">
        <ele>1026</ele>
        <time>2022-06-09T15:51:49Z</time>
      </trkpt>
      <trkpt lat="44.59552" lon="4.22965">
        <ele>1025</ele>
        <time>2022-06-09T15:51:54Z</time>
      </trkpt>
      <trkpt lat="44.59554" lon="4.22986">
        <ele>1021</ele>
        <time>2022-06-09T15:51:58Z</time>
      </trkpt>
      <trkpt lat="44.5953" lon="4.23022">
        <ele>1025</ele>
        <time>2022-06-09T15:52:06Z</time>
      </trkpt>
      <trkpt lat="44.59503" lon="4.23051">
        <ele>1030</ele>
        <time>2022-06-09T15:52:14Z</time>
      </trkpt>
      <trkpt lat="44.59483" lon="4.23053">
        <ele>1031</ele>
        <time>2022-06-09T15:52:19Z</time>
      </trkpt>
      <trkpt lat="44.59482" lon="4.23045">
        <ele>1034</ele>
        <time>2022-06-09T15:52:20Z</time>
      </trkpt>
      <trkpt lat="44.59493" lon="4.2302">
        <ele>1041</ele>
        <time>2022-06-09T15:52:25Z</time>
      </trkpt>
      <trkpt lat="44.59501" lon="4.22988">
        <ele>1048</ele>
        <time>2022-06-09T15:52:31Z</time>
      </trkpt>
      <trkpt lat="44.59504" lon="4.22942">
        <ele>1054</ele>
        <time>2022-06-09T15:52:38Z</time>
      </trkpt>
      <trkpt lat="44.595" lon="4.22928">
        <ele>1058</ele>
        <time>2022-06-09T15:52:41Z</time>
      </trkpt>
      <trkpt lat="44.59499" lon="4.22909">
        <ele>1061</ele>
        <time>2022-06-09T15:52:44Z</time>
      </trkpt>
      <trkpt lat="44.59503" lon="4.22832">
        <ele>1071</ele>
        <time>2022-06-09T15:52:57Z</time>
      </trkpt>
      <trkpt lat="44.59508" lon="4.22815">
        <ele>1072</ele>
        <time>2022-06-09T15:53:00Z</time>
      </trkpt>
      <trkpt lat="44.59508" lon="4.22801">
        <ele>1075</ele>
        <time>2022-06-09T15:53:02Z</time>
      </trkpt>
      <trkpt lat="44.59515" lon="4.22773">
        <ele>1078</ele>
        <time>2022-06-09T15:53:07Z</time>
      </trkpt>
      <trkpt lat="44.5952" lon="4.22763">
        <ele>1078</ele>
        <time>2022-06-09T15:53:09Z</time>
      </trkpt>
      <trkpt lat="44.59515" lon="4.22751">
        <ele>1083</ele>
        <time>2022-06-09T15:53:12Z</time>
      </trkpt>
      <trkpt lat="44.59502" lon="4.22785">
        <ele>1082</ele>
        <time>2022-06-09T15:53:18Z</time>
      </trkpt>
      <trkpt lat="44.59498" lon="4.22807">
        <ele>1079</ele>
        <time>2022-06-09T15:53:22Z</time>
      </trkpt>
      <trkpt lat="44.59479" lon="4.22861">
        <ele>1077</ele>
        <time>2022-06-09T15:53:32Z</time>
      </trkpt>
      <trkpt lat="44.59448" lon="4.22909">
        <ele>1080</ele>
        <time>2022-06-09T15:53:43Z</time>
      </trkpt>
      <trkpt lat="44.59427" lon="4.22921">
        <ele>1085</ele>
        <time>2022-06-09T15:53:48Z</time>
      </trkpt>
      <trkpt lat="44.59425" lon="4.2292">
        <ele>1086</ele>
        <time>2022-06-09T15:53:48Z</time>
      </trkpt>
      <trkpt lat="44.59426" lon="4.22913">
        <ele>1088</ele>
        <time>2022-06-09T15:53:50Z</time>
      </trkpt>
      <trkpt lat="44.59436" lon="4.229">
        <ele>1087</ele>
        <time>2022-06-09T15:53:53Z</time>
      </trkpt>
      <trkpt lat="44.5944" lon="4.2288">
        <ele>1090</ele>
        <time>2022-06-09T15:53:56Z</time>
      </trkpt>
      <trkpt lat="44.59446" lon="4.22828">
        <ele>1100</ele>
        <time>2022-06-09T15:54:05Z</time>
      </trkpt>
      <trkpt lat="44.59446" lon="4.22779">
        <ele>1111</ele>
        <time>2022-06-09T15:54:13Z</time>
      </trkpt>
      <trkpt lat="44.59453" lon="4.22718">
        <ele>1123</ele>
        <time>2022-06-09T15:54:23Z</time>
      </trkpt>
      <trkpt lat="44.59457" lon="4.22705">
        <ele>1124</ele>
        <time>2022-06-09T15:54:26Z</time>
      </trkpt>
      <trkpt lat="44.59456" lon="4.22698">
        <ele>1127</ele>
        <time>2022-06-09T15:54:27Z</time>
      </trkpt>
      <trkpt lat="44.59434" lon="4.22715">
        <ele>1132</ele>
        <time>2022-06-09T15:54:33Z</time>
      </trkpt>
      <trkpt lat="44.59428" lon="4.22724">
        <ele>1133</ele>
        <time>2022-06-09T15:54:35Z</time>
      </trkpt>
      <trkpt lat="44.59425" lon="4.22737">
        <ele>1132</ele>
        <time>2022-06-09T15:54:37Z</time>
      </trkpt>
      <trkpt lat="44.59406" lon="4.22756">
        <ele>1133</ele>
        <time>2022-06-09T15:54:43Z</time>
      </trkpt>
      <trkpt lat="44.59397" lon="4.2277">
        <ele>1132</ele>
        <time>2022-06-09T15:54:46Z</time>
      </trkpt>
      <trkpt lat="44.59372" lon="4.22787">
        <ele>1132</ele>
        <time>2022-06-09T15:54:52Z</time>
      </trkpt>
      <trkpt lat="44.59359" lon="4.2279">
        <ele>1134</ele>
        <time>2022-06-09T15:54:55Z</time>
      </trkpt>
      <trkpt lat="44.59317" lon="4.22789">
        <ele>1138</ele>
        <time>2022-06-09T15:55:05Z</time>
      </trkpt>
      <trkpt lat="44.59314" lon="4.22786">
        <ele>1138</ele>
        <time>2022-06-09T15:55:06Z</time>
      </trkpt>
      <trkpt lat="44.59312" lon="4.22788">
        <ele>1138</ele>
        <time>2022-06-09T15:55:06Z</time>
      </trkpt>
      <trkpt lat="44.59317" lon="4.22779">
        <ele>1139</ele>
        <time>2022-06-09T15:55:08Z</time>
      </trkpt>
      <trkpt lat="44.59339" lon="4.22754">
        <ele>1144</ele>
        <time>2022-06-09T15:55:15Z</time>
      </trkpt>
      <trkpt lat="44.59339" lon="4.22706">
        <ele>1147</ele>
        <time>2022-06-09T15:55:23Z</time>
      </trkpt>
      <trkpt lat="44.59331" lon="4.2265">
        <ele>1148</ele>
        <time>2022-06-09T15:55:32Z</time>
      </trkpt>
      <trkpt lat="44.59316" lon="4.22587">
        <ele>1147</ele>
        <time>2022-06-09T15:55:43Z</time>
      </trkpt>
      <trkpt lat="44.59269" lon="4.22416">
        <ele>1152</ele>
        <time>2022-06-09T15:56:14Z</time>
      </trkpt>
      <trkpt lat="44.59269" lon="4.22367">
        <ele>1151</ele>
        <time>2022-06-09T15:56:22Z</time>
      </trkpt>
      <trkpt lat="44.59299" lon="4.2228">
        <ele>1159</ele>
        <time>2022-06-09T15:56:38Z</time>
      </trkpt>
      <trkpt lat="44.59315" lon="4.22198">
        <ele>1162</ele>
        <time>2022-06-09T15:56:52Z</time>
      </trkpt>
      <trkpt lat="44.5932" lon="4.22123">
        <ele>1157</ele>
        <time>2022-06-09T15:57:05Z</time>
      </trkpt>
      <trkpt lat="44.59348" lon="4.22037">
        <ele>1153</ele>
        <time>2022-06-09T15:57:21Z</time>
      </trkpt>
      <trkpt lat="44.59346" lon="4.22037">
        <ele>1152</ele>
        <time>2022-06-09T15:57:21Z</time>
      </trkpt>
      <trkpt lat="44.5934" lon="4.2206">
        <ele>1155</ele>
        <time>2022-06-09T15:57:25Z</time>
      </trkpt>
      <trkpt lat="44.59343" lon="4.22062">
        <ele>1156</ele>
        <time>2022-06-09T15:57:26Z</time>
      </trkpt>
      <trkpt lat="44.5937" lon="4.22031">
        <ele>1157</ele>
        <time>2022-06-09T15:57:34Z</time>
      </trkpt>
      <trkpt lat="44.59402" lon="4.21985">
        <ele>1160</ele>
        <time>2022-06-09T15:57:45Z</time>
      </trkpt>
      <trkpt lat="44.59419" lon="4.21953">
        <ele>1161</ele>
        <time>2022-06-09T15:57:51Z</time>
      </trkpt>
      <trkpt lat="44.59442" lon="4.21922">
        <ele>1163</ele>
        <time>2022-06-09T15:57:59Z</time>
      </trkpt>
      <trkpt lat="44.59456" lon="4.21896">
        <ele>1165</ele>
        <time>2022-06-09T15:58:04Z</time>
      </trkpt>
      <trkpt lat="44.59466" lon="4.21871">
        <ele>1167</ele>
        <time>2022-06-09T15:58:09Z</time>
      </trkpt>
      <trkpt lat="44.59484" lon="4.21843">
        <ele>1169</ele>
        <time>2022-06-09T15:58:15Z</time>
      </trkpt>
      <trkpt lat="44.59501" lon="4.21801">
        <ele>1172</ele>
        <time>2022-06-09T15:58:23Z</time>
      </trkpt>
      <trkpt lat="44.5952" lon="4.21734">
        <ele>1172</ele>
        <time>2022-06-09T15:58:35Z</time>
      </trkpt>
      <trkpt lat="44.59524" lon="4.21711">
        <ele>1170</ele>
        <time>2022-06-09T15:58:39Z</time>
      </trkpt>
      <trkpt lat="44.59528" lon="4.21714">
        <ele>1171</ele>
        <time>2022-06-09T15:58:40Z</time>
      </trkpt>
      <trkpt lat="44.59531" lon="4.21709">
        <ele>1171</ele>
        <time>2022-06-09T15:58:41Z</time>
      </trkpt>
      <trkpt lat="44.59514" lon="4.217">
        <ele>1167</ele>
        <time>2022-06-09T15:58:46Z</time>
      </trkpt>
      <trkpt lat="44.59462" lon="4.21691">
        <ele>1166</ele>
        <time>2022-06-09T15:58:58Z</time>
      </trkpt>
      <trkpt lat="44.59437" lon="4.21696">
        <ele>1168</ele>
        <time>2022-06-09T15:59:04Z</time>
      </trkpt>
      <trkpt lat="44.59422" lon="4.21702">
        <ele>1169</ele>
        <time>2022-06-09T15:59:07Z</time>
      </trkpt>
      <trkpt lat="44.59387" lon="4.21726">
        <ele>1169</ele>
        <time>2022-06-09T15:59:17Z</time>
      </trkpt>
      <trkpt lat="44.59361" lon="4.21738">
        <ele>1169</ele>
        <time>2022-06-09T15:59:23Z</time>
      </trkpt>
      <trkpt lat="44.59337" lon="4.21738">
        <ele>1168</ele>
        <time>2022-06-09T15:59:29Z</time>
      </trkpt>
      <trkpt lat="44.59298" lon="4.21718">
        <ele>1163</ele>
        <time>2022-06-09T15:59:38Z</time>
      </trkpt>
      <trkpt lat="44.59283" lon="4.21701">
        <ele>1162</ele>
        <time>2022-06-09T15:59:43Z</time>
      </trkpt>
      <trkpt lat="44.59251" lon="4.21681">
        <ele>1162</ele>
        <time>2022-06-09T15:59:51Z</time>
      </trkpt>
      <trkpt lat="44.59213" lon="4.21672">
        <ele>1160</ele>
        <time>2022-06-09T16:00:00Z</time>
      </trkpt>
      <trkpt lat="44.59205" lon="4.21667">
        <ele>1160</ele>
        <time>2022-06-09T16:00:02Z</time>
      </trkpt>
      <trkpt lat="44.59189" lon="4.21665">
        <ele>1158</ele>
        <time>2022-06-09T16:00:06Z</time>
      </trkpt>
      <trkpt lat="44.59158" lon="4.2169">
        <ele>1151</ele>
        <time>2022-06-09T16:00:14Z</time>
      </trkpt>
      <trkpt lat="44.59135" lon="4.21723">
        <ele>1142</ele>
        <time>2022-06-09T16:00:22Z</time>
      </trkpt>
      <trkpt lat="44.59129" lon="4.21735">
        <ele>1140</ele>
        <time>2022-06-09T16:00:24Z</time>
      </trkpt>
      <trkpt lat="44.5912" lon="4.21764">
        <ele>1137</ele>
        <time>2022-06-09T16:00:29Z</time>
      </trkpt>
      <trkpt lat="44.59104" lon="4.21799">
        <ele>1132</ele>
        <time>2022-06-09T16:00:36Z</time>
      </trkpt>
      <trkpt lat="44.5907" lon="4.21847">
        <ele>1124</ele>
        <time>2022-06-09T16:00:48Z</time>
      </trkpt>
      <trkpt lat="44.59023" lon="4.21876">
        <ele>1115</ele>
        <time>2022-06-09T16:01:00Z</time>
      </trkpt>
      <trkpt lat="44.59005" lon="4.21876">
        <ele>1113</ele>
        <time>2022-06-09T16:01:04Z</time>
      </trkpt>
      <trkpt lat="44.58991" lon="4.21882">
        <ele>1110</ele>
        <time>2022-06-09T16:01:07Z</time>
      </trkpt>
      <trkpt lat="44.58962" lon="4.21883">
        <ele>1104</ele>
        <time>2022-06-09T16:01:14Z</time>
      </trkpt>
      <trkpt lat="44.58915" lon="4.21894">
        <ele>1095</ele>
        <time>2022-06-09T16:01:25Z</time>
      </trkpt>
      <trkpt lat="44.58897" lon="4.21891">
        <ele>1093</ele>
        <time>2022-06-09T16:01:29Z</time>
      </trkpt>
      <trkpt lat="44.58875" lon="4.21883">
        <ele>1090</ele>
        <time>2022-06-09T16:01:35Z</time>
      </trkpt>
      <trkpt lat="44.58867" lon="4.21883">
        <ele>1090</ele>
        <time>2022-06-09T16:01:37Z</time>
      </trkpt>
      <trkpt lat="44.58859" lon="4.21885">
        <ele>1089</ele>
        <time>2022-06-09T16:01:38Z</time>
      </trkpt>
      <trkpt lat="44.58842" lon="4.21906">
        <ele>1090</ele>
        <time>2022-06-09T16:01:44Z</time>
      </trkpt>
      <trkpt lat="44.58822" lon="4.2198">
        <ele>1086</ele>
        <time>2022-06-09T16:01:57Z</time>
      </trkpt>
      <trkpt lat="44.58816" lon="4.22071">
        <ele>1082</ele>
        <time>2022-06-09T16:02:12Z</time>
      </trkpt>
      <trkpt lat="44.58817" lon="4.22101">
        <ele>1079</ele>
        <time>2022-06-09T16:02:17Z</time>
      </trkpt>
      <trkpt lat="44.58824" lon="4.22145">
        <ele>1073</ele>
        <time>2022-06-09T16:02:25Z</time>
      </trkpt>
      <trkpt lat="44.58834" lon="4.22173">
        <ele>1068</ele>
        <time>2022-06-09T16:02:30Z</time>
      </trkpt>
      <trkpt lat="44.58839" lon="4.22198">
        <ele>1065</ele>
        <time>2022-06-09T16:02:34Z</time>
      </trkpt>
      <trkpt lat="44.58845" lon="4.22205">
        <ele>1063</ele>
        <time>2022-06-09T16:02:36Z</time>
      </trkpt>
      <trkpt lat="44.5885" lon="4.22217">
        <ele>1061</ele>
        <time>2022-06-09T16:02:38Z</time>
      </trkpt>
      <trkpt lat="44.58852" lon="4.22231">
        <ele>1059</ele>
        <time>2022-06-09T16:02:41Z</time>
      </trkpt>
      <trkpt lat="44.58853" lon="4.22239">
        <ele>1058</ele>
        <time>2022-06-09T16:02:42Z</time>
      </trkpt>
      <trkpt lat="44.58849" lon="4.22262">
        <ele>1056</ele>
        <time>2022-06-09T16:02:46Z</time>
      </trkpt>
      <trkpt lat="44.58849" lon="4.22309">
        <ele>1049</ele>
        <time>2022-06-09T16:02:54Z</time>
      </trkpt>
      <trkpt lat="44.58836" lon="4.22367">
        <ele>1043</ele>
        <time>2022-06-09T16:03:04Z</time>
      </trkpt>
      <trkpt lat="44.58825" lon="4.22395">
        <ele>1038</ele>
        <time>2022-06-09T16:03:09Z</time>
      </trkpt>
      <trkpt lat="44.58776" lon="4.22489">
        <ele>1021</ele>
        <time>2022-06-09T16:03:28Z</time>
      </trkpt>
      <trkpt lat="44.58768" lon="4.2255">
        <ele>1019</ele>
        <time>2022-06-09T16:03:39Z</time>
      </trkpt>
      <trkpt lat="44.58758" lon="4.22561">
        <ele>1019</ele>
        <time>2022-06-09T16:03:42Z</time>
      </trkpt>
      <trkpt lat="44.58726" lon="4.22629">
        <ele>1008</ele>
        <time>2022-06-09T16:03:55Z</time>
      </trkpt>
      <trkpt lat="44.58715" lon="4.22663">
        <ele>1002</ele>
        <time>2022-06-09T16:04:02Z</time>
      </trkpt>
      <trkpt lat="44.58715" lon="4.22691">
        <ele>1000</ele>
        <time>2022-06-09T16:04:06Z</time>
      </trkpt>
      <trkpt lat="44.58699" lon="4.22727">
        <ele>992</ele>
        <time>2022-06-09T16:04:13Z</time>
      </trkpt>
      <trkpt lat="44.58699" lon="4.22734">
        <ele>992</ele>
        <time>2022-06-09T16:04:14Z</time>
      </trkpt>
      <trkpt lat="44.58706" lon="4.22744">
        <ele>994</ele>
        <time>2022-06-09T16:04:17Z</time>
      </trkpt>
      <trkpt lat="44.58708" lon="4.22763">
        <ele>991</ele>
        <time>2022-06-09T16:04:20Z</time>
      </trkpt>
      <trkpt lat="44.58717" lon="4.22801">
        <ele>984</ele>
        <time>2022-06-09T16:04:27Z</time>
      </trkpt>
      <trkpt lat="44.58731" lon="4.22823">
        <ele>981</ele>
        <time>2022-06-09T16:04:32Z</time>
      </trkpt>
      <trkpt lat="44.58731" lon="4.22833">
        <ele>979</ele>
        <time>2022-06-09T16:04:33Z</time>
      </trkpt>
      <trkpt lat="44.58726" lon="4.22841">
        <ele>975</ele>
        <time>2022-06-09T16:04:35Z</time>
      </trkpt>
      <trkpt lat="44.58726" lon="4.22878">
        <ele>963</ele>
        <time>2022-06-09T16:04:41Z</time>
      </trkpt>
      <trkpt lat="44.58723" lon="4.22886">
        <ele>960</ele>
        <time>2022-06-09T16:04:43Z</time>
      </trkpt>
      <trkpt lat="44.5872" lon="4.22931">
        <ele>947</ele>
        <time>2022-06-09T16:04:50Z</time>
      </trkpt>
      <trkpt lat="44.58723" lon="4.22962">
        <ele>943</ele>
        <time>2022-06-09T16:04:55Z</time>
      </trkpt>
      <trkpt lat="44.58718" lon="4.22999">
        <ele>936</ele>
        <time>2022-06-09T16:05:02Z</time>
      </trkpt>
      <trkpt lat="44.58714" lon="4.23001">
        <ele>935</ele>
        <time>2022-06-09T16:05:03Z</time>
      </trkpt>
      <trkpt lat="44.58695" lon="4.22994">
        <ele>932</ele>
        <time>2022-06-09T16:05:07Z</time>
      </trkpt>
      <trkpt lat="44.58697" lon="4.22993">
        <ele>933</ele>
        <time>2022-06-09T16:05:08Z</time>
      </trkpt>
      <trkpt lat="44.58694" lon="4.22987">
        <ele>933</ele>
        <time>2022-06-09T16:05:09Z</time>
      </trkpt>
      <trkpt lat="44.58692" lon="4.22972">
        <ele>935</ele>
        <time>2022-06-09T16:05:11Z</time>
      </trkpt>
      <trkpt lat="44.58677" lon="4.22953">
        <ele>936</ele>
        <time>2022-06-09T16:05:16Z</time>
      </trkpt>
      <trkpt lat="44.58646" lon="4.22921">
        <ele>931</ele>
        <time>2022-06-09T16:05:25Z</time>
      </trkpt>
      <trkpt lat="44.58625" lon="4.22909">
        <ele>925</ele>
        <time>2022-06-09T16:05:30Z</time>
      </trkpt>
      <trkpt lat="44.58612" lon="4.22906">
        <ele>920</ele>
        <time>2022-06-09T16:05:33Z</time>
      </trkpt>
      <trkpt lat="44.5859" lon="4.2291">
        <ele>910</ele>
        <time>2022-06-09T16:05:39Z</time>
      </trkpt>
      <trkpt lat="44.58572" lon="4.22898">
        <ele>902</ele>
        <time>2022-06-09T16:05:43Z</time>
      </trkpt>
      <trkpt lat="44.58566" lon="4.22887">
        <ele>899</ele>
        <time>2022-06-09T16:05:46Z</time>
      </trkpt>
      <trkpt lat="44.58559" lon="4.22858">
        <ele>898</ele>
        <time>2022-06-09T16:05:51Z</time>
      </trkpt>
      <trkpt lat="44.58556" lon="4.22854">
        <ele>897</ele>
        <time>2022-06-09T16:05:52Z</time>
      </trkpt>
      <trkpt lat="44.58554" lon="4.22856">
        <ele>895</ele>
        <time>2022-06-09T16:05:52Z</time>
      </trkpt>
      <trkpt lat="44.58556" lon="4.22852">
        <ele>897</ele>
        <time>2022-06-09T16:05:53Z</time>
      </trkpt>
      <trkpt lat="44.58555" lon="4.22847">
        <ele>897</ele>
        <time>2022-06-09T16:05:54Z</time>
      </trkpt>
      <trkpt lat="44.58552" lon="4.22845">
        <ele>895</ele>
        <time>2022-06-09T16:05:55Z</time>
      </trkpt>
      <trkpt lat="44.5855" lon="4.22848">
        <ele>893</ele>
        <time>2022-06-09T16:05:55Z</time>
      </trkpt>
      <trkpt lat="44.5855" lon="4.22863">
        <ele>892</ele>
        <time>2022-06-09T16:05:58Z</time>
      </trkpt>
      <trkpt lat="44.58544" lon="4.22881">
        <ele>886</ele>
        <time>2022-06-09T16:06:01Z</time>
      </trkpt>
      <trkpt lat="44.5854" lon="4.22869">
        <ele>884</ele>
        <time>2022-06-09T16:06:03Z</time>
      </trkpt>
      <trkpt lat="44.58539" lon="4.22846">
        <ele>886</ele>
        <time>2022-06-09T16:06:07Z</time>
      </trkpt>
      <trkpt lat="44.58523" lon="4.22787">
        <ele>879</ele>
        <time>2022-06-09T16:06:18Z</time>
      </trkpt>
      <trkpt lat="44.58526" lon="4.22775">
        <ele>882</ele>
        <time>2022-06-09T16:06:20Z</time>
      </trkpt>
      <trkpt lat="44.58522" lon="4.22773">
        <ele>879</ele>
        <time>2022-06-09T16:06:21Z</time>
      </trkpt>
      <trkpt lat="44.58525" lon="4.22757">
        <ele>882</ele>
        <time>2022-06-09T16:06:24Z</time>
      </trkpt>
      <trkpt lat="44.58523" lon="4.2273">
        <ele>883</ele>
        <time>2022-06-09T16:06:28Z</time>
      </trkpt>
      <trkpt lat="44.58511" lon="4.22705">
        <ele>876</ele>
        <time>2022-06-09T16:06:33Z</time>
      </trkpt>
      <trkpt lat="44.58503" lon="4.22669">
        <ele>874</ele>
        <time>2022-06-09T16:06:39Z</time>
      </trkpt>
      <trkpt lat="44.5849" lon="4.22651">
        <ele>871</ele>
        <time>2022-06-09T16:06:44Z</time>
      </trkpt>
      <trkpt lat="44.58485" lon="4.22651">
        <ele>868</ele>
        <time>2022-06-09T16:06:45Z</time>
      </trkpt>
      <trkpt lat="44.58462" lon="4.22663">
        <ele>855</ele>
        <time>2022-06-09T16:06:51Z</time>
      </trkpt>
      <trkpt lat="44.58438" lon="4.2266">
        <ele>845</ele>
        <time>2022-06-09T16:06:56Z</time>
      </trkpt>
      <trkpt lat="44.58435" lon="4.22657">
        <ele>844</ele>
        <time>2022-06-09T16:06:57Z</time>
      </trkpt>
      <trkpt lat="44.58425" lon="4.22632">
        <ele>843</ele>
        <time>2022-06-09T16:07:02Z</time>
      </trkpt>
      <trkpt lat="44.58422" lon="4.22603">
        <ele>847</ele>
        <time>2022-06-09T16:07:07Z</time>
      </trkpt>
      <trkpt lat="44.58413" lon="4.22584">
        <ele>844</ele>
        <time>2022-06-09T16:07:10Z</time>
      </trkpt>
      <trkpt lat="44.58409" lon="4.2254">
        <ele>847</ele>
        <time>2022-06-09T16:07:18Z</time>
      </trkpt>
      <trkpt lat="44.58407" lon="4.22536">
        <ele>846</ele>
        <time>2022-06-09T16:07:19Z</time>
      </trkpt>
      <trkpt lat="44.58402" lon="4.22547">
        <ele>842</ele>
        <time>2022-06-09T16:07:21Z</time>
      </trkpt>
      <trkpt lat="44.58398" lon="4.22537">
        <ele>841</ele>
        <time>2022-06-09T16:07:23Z</time>
      </trkpt>
      <trkpt lat="44.58364" lon="4.22496">
        <ele>827</ele>
        <time>2022-06-09T16:07:33Z</time>
      </trkpt>
      <trkpt lat="44.58331" lon="4.22448">
        <ele>824</ele>
        <time>2022-06-09T16:07:44Z</time>
      </trkpt>
      <trkpt lat="44.58326" lon="4.22446">
        <ele>824</ele>
        <time>2022-06-09T16:07:46Z</time>
      </trkpt>
      <trkpt lat="44.58312" lon="4.22449">
        <ele>821</ele>
        <time>2022-06-09T16:07:49Z</time>
      </trkpt>
      <trkpt lat="44.5828" lon="4.22447">
        <ele>816</ele>
        <time>2022-06-09T16:07:56Z</time>
      </trkpt>
      <trkpt lat="44.58242" lon="4.22435">
        <ele>814</ele>
        <time>2022-06-09T16:08:05Z</time>
      </trkpt>
      <trkpt lat="44.58231" lon="4.22436">
        <ele>812</ele>
        <time>2022-06-09T16:08:08Z</time>
      </trkpt>
      <trkpt lat="44.58201" lon="4.22432">
        <ele>808</ele>
        <time>2022-06-09T16:08:15Z</time>
      </trkpt>
      <trkpt lat="44.58153" lon="4.22423">
        <ele>802</ele>
        <time>2022-06-09T16:08:26Z</time>
      </trkpt>
      <trkpt lat="44.58131" lon="4.22425">
        <ele>796</ele>
        <time>2022-06-09T16:08:31Z</time>
      </trkpt>
      <trkpt lat="44.58094" lon="4.22421">
        <ele>790</ele>
        <time>2022-06-09T16:08:40Z</time>
      </trkpt>
      <trkpt lat="44.58031" lon="4.22393">
        <ele>775</ele>
        <time>2022-06-09T16:08:56Z</time>
      </trkpt>
      <trkpt lat="44.58015" lon="4.22389">
        <ele>770</ele>
        <time>2022-06-09T16:08:59Z</time>
      </trkpt>
      <trkpt lat="44.57993" lon="4.22367">
        <ele>765</ele>
        <time>2022-06-09T16:09:06Z</time>
      </trkpt>
      <trkpt lat="44.5798" lon="4.22345">
        <ele>763</ele>
        <time>2022-06-09T16:09:10Z</time>
      </trkpt>
      <trkpt lat="44.57961" lon="4.2233">
        <ele>757</ele>
        <time>2022-06-09T16:09:16Z</time>
      </trkpt>
      <trkpt lat="44.57938" lon="4.22321">
        <ele>747</ele>
        <time>2022-06-09T16:09:21Z</time>
      </trkpt>
      <trkpt lat="44.57917" lon="4.22303">
        <ele>738</ele>
        <time>2022-06-09T16:09:27Z</time>
      </trkpt>
      <trkpt lat="44.57908" lon="4.22288">
        <ele>734</ele>
        <time>2022-06-09T16:09:30Z</time>
      </trkpt>
      <trkpt lat="44.5789" lon="4.22266">
        <ele>728</ele>
        <time>2022-06-09T16:09:36Z</time>
      </trkpt>
      <trkpt lat="44.5788" lon="4.22247">
        <ele>725</ele>
        <time>2022-06-09T16:09:40Z</time>
      </trkpt>
      <trkpt lat="44.57855" lon="4.22227">
        <ele>717</ele>
        <time>2022-06-09T16:09:46Z</time>
      </trkpt>
      <trkpt lat="44.57838" lon="4.22201">
        <ele>712</ele>
        <time>2022-06-09T16:09:52Z</time>
      </trkpt>
      <trkpt lat="44.57812" lon="4.22195">
        <ele>704</ele>
        <time>2022-06-09T16:09:58Z</time>
      </trkpt>
      <trkpt lat="44.57802" lon="4.22188">
        <ele>700</ele>
        <time>2022-06-09T16:10:01Z</time>
      </trkpt>
      <trkpt lat="44.57784" lon="4.22183">
        <ele>694</ele>
        <time>2022-06-09T16:10:05Z</time>
      </trkpt>
      <trkpt lat="44.57774" lon="4.22182">
        <ele>691</ele>
        <time>2022-06-09T16:10:08Z</time>
      </trkpt>
      <trkpt lat="44.57755" lon="4.22214">
        <ele>684</ele>
        <time>2022-06-09T16:10:15Z</time>
      </trkpt>
      <trkpt lat="44.57739" lon="4.2221">
        <ele>679</ele>
        <time>2022-06-09T16:10:18Z</time>
      </trkpt>
      <trkpt lat="44.57729" lon="4.22214">
        <ele>675</ele>
        <time>2022-06-09T16:10:21Z</time>
      </trkpt>
      <trkpt lat="44.57697" lon="4.22266">
        <ele>660</ele>
        <time>2022-06-09T16:10:32Z</time>
      </trkpt>
      <trkpt lat="44.57692" lon="4.22285">
        <ele>656</ele>
        <time>2022-06-09T16:10:36Z</time>
      </trkpt>
      <trkpt lat="44.57693" lon="4.22303">
        <ele>654</ele>
        <time>2022-06-09T16:10:39Z</time>
      </trkpt>
      <trkpt lat="44.57681" lon="4.22294">
        <ele>651</ele>
        <time>2022-06-09T16:10:42Z</time>
      </trkpt>
      <trkpt lat="44.57678" lon="4.22303">
        <ele>649</ele>
        <time>2022-06-09T16:10:43Z</time>
      </trkpt>
      <trkpt lat="44.57678" lon="4.22321">
        <ele>646</ele>
        <time>2022-06-09T16:10:46Z</time>
      </trkpt>
      <trkpt lat="44.57681" lon="4.22327">
        <ele>647</ele>
        <time>2022-06-09T16:10:48Z</time>
      </trkpt>
      <trkpt lat="44.57686" lon="4.22321">
        <ele>649</ele>
        <time>2022-06-09T16:10:49Z</time>
      </trkpt>
      <trkpt lat="44.57683" lon="4.22327">
        <ele>647</ele>
        <time>2022-06-09T16:10:50Z</time>
      </trkpt>
      <trkpt lat="44.57682" lon="4.22322">
        <ele>648</ele>
        <time>2022-06-09T16:10:51Z</time>
      </trkpt>
      <trkpt lat="44.57678" lon="4.22321">
        <ele>646</ele>
        <time>2022-06-09T16:10:52Z</time>
      </trkpt>
      <trkpt lat="44.57674" lon="4.2231">
        <ele>646</ele>
        <time>2022-06-09T16:10:54Z</time>
      </trkpt>
      <trkpt lat="44.57665" lon="4.22307">
        <ele>644</ele>
        <time>2022-06-09T16:10:56Z</time>
      </trkpt>
      <trkpt lat="44.57657" lon="4.223">
        <ele>643</ele>
        <time>2022-06-09T16:10:59Z</time>
      </trkpt>
      <trkpt lat="44.57651" lon="4.22304">
        <ele>641</ele>
        <time>2022-06-09T16:11:00Z</time>
      </trkpt>
      <trkpt lat="44.5764" lon="4.22306">
        <ele>638</ele>
        <time>2022-06-09T16:11:03Z</time>
      </trkpt>
      <trkpt lat="44.5763" lon="4.22295">
        <ele>636</ele>
        <time>2022-06-09T16:11:06Z</time>
      </trkpt>
      <trkpt lat="44.5762" lon="4.22278">
        <ele>634</ele>
        <time>2022-06-09T16:11:09Z</time>
      </trkpt>
      <trkpt lat="44.57607" lon="4.22266">
        <ele>630</ele>
        <time>2022-06-09T16:11:13Z</time>
      </trkpt>
      <trkpt lat="44.57603" lon="4.22258">
        <ele>629</ele>
        <time>2022-06-09T16:11:15Z</time>
      </trkpt>
      <trkpt lat="44.57599" lon="4.22201">
        <ele>624</ele>
        <time>2022-06-09T16:11:24Z</time>
      </trkpt>
      <trkpt lat="44.57587" lon="4.22135">
        <ele>617</ele>
        <time>2022-06-09T16:11:35Z</time>
      </trkpt>
      <trkpt lat="44.57575" lon="4.22098">
        <ele>612</ele>
        <time>2022-06-09T16:11:42Z</time>
      </trkpt>
      <trkpt lat="44.57569" lon="4.2209">
        <ele>609</ele>
        <time>2022-06-09T16:11:44Z</time>
      </trkpt>
      <trkpt lat="44.57561" lon="4.22062">
        <ele>605</ele>
        <time>2022-06-09T16:11:49Z</time>
      </trkpt>
      <trkpt lat="44.57567" lon="4.22033">
        <ele>606</ele>
        <time>2022-06-09T16:11:54Z</time>
      </trkpt>
      <trkpt lat="44.57564" lon="4.2203">
        <ele>605</ele>
        <time>2022-06-09T16:11:55Z</time>
      </trkpt>
      <trkpt lat="44.57555" lon="4.22033">
        <ele>601</ele>
        <time>2022-06-09T16:11:57Z</time>
      </trkpt>
      <trkpt lat="44.57543" lon="4.22028">
        <ele>596</ele>
        <time>2022-06-09T16:12:00Z</time>
      </trkpt>
      <trkpt lat="44.5754" lon="4.2203">
        <ele>595</ele>
        <time>2022-06-09T16:12:01Z</time>
      </trkpt>
      <trkpt lat="44.57527" lon="4.22054">
        <ele>590</ele>
        <time>2022-06-09T16:12:06Z</time>
      </trkpt>
      <trkpt lat="44.57523" lon="4.22075">
        <ele>588</ele>
        <time>2022-06-09T16:12:10Z</time>
      </trkpt>
      <trkpt lat="44.5752" lon="4.2208">
        <ele>587</ele>
        <time>2022-06-09T16:12:11Z</time>
      </trkpt>
      <trkpt lat="44.57516" lon="4.22072">
        <ele>585</ele>
        <time>2022-06-09T16:12:12Z</time>
      </trkpt>
      <trkpt lat="44.5752" lon="4.22035">
        <ele>586</ele>
        <time>2022-06-09T16:12:19Z</time>
      </trkpt>
      <trkpt lat="44.57528" lon="4.21994">
        <ele>589</ele>
        <time>2022-06-09T16:12:26Z</time>
      </trkpt>
      <trkpt lat="44.57527" lon="4.21961">
        <ele>587</ele>
        <time>2022-06-09T16:12:31Z</time>
      </trkpt>
      <trkpt lat="44.57521" lon="4.21918">
        <ele>584</ele>
        <time>2022-06-09T16:12:38Z</time>
      </trkpt>
      <trkpt lat="44.57519" lon="4.21883">
        <ele>580</ele>
        <time>2022-06-09T16:12:44Z</time>
      </trkpt>
      <trkpt lat="44.57522" lon="4.21838">
        <ele>577</ele>
        <time>2022-06-09T16:12:52Z</time>
      </trkpt>
      <trkpt lat="44.57526" lon="4.21817">
        <ele>578</ele>
        <time>2022-06-09T16:12:55Z</time>
      </trkpt>
      <trkpt lat="44.57524" lon="4.21725">
        <ele>570</ele>
        <time>2022-06-09T16:13:11Z</time>
      </trkpt>
      <trkpt lat="44.57521" lon="4.21702">
        <ele>567</ele>
        <time>2022-06-09T16:13:15Z</time>
      </trkpt>
      <trkpt lat="44.57515" lon="4.21682">
        <ele>563</ele>
        <time>2022-06-09T16:13:18Z</time>
      </trkpt>
      <trkpt lat="44.57508" lon="4.21678">
        <ele>560</ele>
        <time>2022-06-09T16:13:20Z</time>
      </trkpt>
      <trkpt lat="44.57504" lon="4.2168">
        <ele>558</ele>
        <time>2022-06-09T16:13:21Z</time>
      </trkpt>
      <trkpt lat="44.57506" lon="4.21684">
        <ele>560</ele>
        <time>2022-06-09T16:13:22Z</time>
      </trkpt>
      <trkpt lat="44.57509" lon="4.21675">
        <ele>560</ele>
        <time>2022-06-09T16:13:23Z</time>
      </trkpt>
      <trkpt lat="44.57512" lon="4.21676">
        <ele>562</ele>
        <time>2022-06-09T16:13:24Z</time>
      </trkpt>
      <trkpt lat="44.57515" lon="4.21691">
        <ele>564</ele>
        <time>2022-06-09T16:13:27Z</time>
      </trkpt>
      <trkpt lat="44.57521" lon="4.21702">
        <ele>567</ele>
        <time>2022-06-09T16:13:29Z</time>
      </trkpt>
      <trkpt lat="44.57523" lon="4.21702">
        <ele>568</ele>
        <time>2022-06-09T16:13:29Z</time>
      </trkpt>
      <trkpt lat="44.57537" lon="4.21673">
        <ele>572</ele>
        <time>2022-06-09T16:13:35Z</time>
      </trkpt>
      <trkpt lat="44.57541" lon="4.21624">
        <ele>572</ele>
        <time>2022-06-09T16:13:43Z</time>
      </trkpt>
      <trkpt lat="44.5754" lon="4.21581">
        <ele>570</ele>
        <time>2022-06-09T16:13:51Z</time>
      </trkpt>
      <trkpt lat="44.57543" lon="4.21501">
        <ele>570</ele>
        <time>2022-06-09T16:14:04Z</time>
      </trkpt>
      <trkpt lat="44.57553" lon="4.2146">
        <ele>569</ele>
        <time>2022-06-09T16:14:11Z</time>
      </trkpt>
      <trkpt lat="44.57569" lon="4.21443">
        <ele>573</ele>
        <time>2022-06-09T16:14:16Z</time>
      </trkpt>
      <trkpt lat="44.57579" lon="4.21425">
        <ele>574</ele>
        <time>2022-06-09T16:14:20Z</time>
      </trkpt>
      <trkpt lat="44.5759" lon="4.21369">
        <ele>568</ele>
        <time>2022-06-09T16:14:29Z</time>
      </trkpt>
      <trkpt lat="44.576" lon="4.21347">
        <ele>566</ele>
        <time>2022-06-09T16:14:34Z</time>
      </trkpt>
      <trkpt lat="44.57599" lon="4.21343">
        <ele>565</ele>
        <time>2022-06-09T16:14:34Z</time>
      </trkpt>
      <trkpt lat="44.57611" lon="4.21322">
        <ele>560</ele>
        <time>2022-06-09T16:14:39Z</time>
      </trkpt>
      <trkpt lat="44.57619" lon="4.21312">
        <ele>557</ele>
        <time>2022-06-09T16:14:41Z</time>
      </trkpt>
      <trkpt lat="44.57654" lon="4.21281">
        <ele>547</ele>
        <time>2022-06-09T16:14:51Z</time>
      </trkpt>
      <trkpt lat="44.57668" lon="4.21274">
        <ele>544</ele>
        <time>2022-06-09T16:14:54Z</time>
      </trkpt>
      <trkpt lat="44.57688" lon="4.21267">
        <ele>543</ele>
        <time>2022-06-09T16:14:59Z</time>
      </trkpt>
      <trkpt lat="44.57699" lon="4.21269">
        <ele>544</ele>
        <time>2022-06-09T16:15:02Z</time>
      </trkpt>
      <trkpt lat="44.57724" lon="4.21263">
        <ele>544</ele>
        <time>2022-06-09T16:15:08Z</time>
      </trkpt>
      <trkpt lat="44.57756" lon="4.21265">
        <ele>547</ele>
        <time>2022-06-09T16:15:15Z</time>
      </trkpt>
      <trkpt lat="44.57786" lon="4.21262">
        <ele>552</ele>
        <time>2022-06-09T16:15:22Z</time>
      </trkpt>
      <trkpt lat="44.5779" lon="4.21261">
        <ele>553</ele>
        <time>2022-06-09T16:15:23Z</time>
      </trkpt>
      <trkpt lat="44.57792" lon="4.21255">
        <ele>553</ele>
        <time>2022-06-09T16:15:24Z</time>
      </trkpt>
      <trkpt lat="44.5779" lon="4.21235">
        <ele>554</ele>
        <time>2022-06-09T16:15:28Z</time>
      </trkpt>
      <trkpt lat="44.57789" lon="4.21231">
        <ele>554</ele>
        <time>2022-06-09T16:15:28Z</time>
      </trkpt>
      <trkpt lat="44.57786" lon="4.2123">
        <ele>554</ele>
        <time>2022-06-09T16:15:29Z</time>
      </trkpt>
      <trkpt lat="44.57788" lon="4.2123">
        <ele>554</ele>
        <time>2022-06-09T16:15:30Z</time>
      </trkpt>
      <trkpt lat="44.57782" lon="4.21205">
        <ele>556</ele>
        <time>2022-06-09T16:15:34Z</time>
      </trkpt>
      <trkpt lat="44.57784" lon="4.21178">
        <ele>560</ele>
        <time>2022-06-09T16:15:39Z</time>
      </trkpt>
      <trkpt lat="44.57769" lon="4.21151">
        <ele>558</ele>
        <time>2022-06-09T16:15:44Z</time>
      </trkpt>
      <trkpt lat="44.57761" lon="4.21128">
        <ele>557</ele>
        <time>2022-06-09T16:15:48Z</time>
      </trkpt>
      <trkpt lat="44.57756" lon="4.21076">
        <ele>561</ele>
        <time>2022-06-09T16:15:57Z</time>
      </trkpt>
      <trkpt lat="44.57765" lon="4.21042">
        <ele>567</ele>
        <time>2022-06-09T16:16:03Z</time>
      </trkpt>
      <trkpt lat="44.5778" lon="4.21033">
        <ele>574</ele>
        <time>2022-06-09T16:16:07Z</time>
      </trkpt>
      <trkpt lat="44.57789" lon="4.21013">
        <ele>579</ele>
        <time>2022-06-09T16:16:11Z</time>
      </trkpt>
      <trkpt lat="44.57791" lon="4.21">
        <ele>581</ele>
        <time>2022-06-09T16:16:13Z</time>
      </trkpt>
      <trkpt lat="44.57789" lon="4.2098">
        <ele>581</ele>
        <time>2022-06-09T16:16:17Z</time>
      </trkpt>
      <trkpt lat="44.57794" lon="4.20973">
        <ele>584</ele>
        <time>2022-06-09T16:16:18Z</time>
      </trkpt>
      <trkpt lat="44.57796" lon="4.20965">
        <ele>585</ele>
        <time>2022-06-09T16:16:20Z</time>
      </trkpt>
      <trkpt lat="44.57795" lon="4.20949">
        <ele>585</ele>
        <time>2022-06-09T16:16:22Z</time>
      </trkpt>
      <trkpt lat="44.57809" lon="4.20972">
        <ele>591</ele>
        <time>2022-06-09T16:16:27Z</time>
      </trkpt>
      <trkpt lat="44.57812" lon="4.20952">
        <ele>594</ele>
        <time>2022-06-09T16:16:31Z</time>
      </trkpt>
      <trkpt lat="44.57806" lon="4.20897">
        <ele>593</ele>
        <time>2022-06-09T16:16:40Z</time>
      </trkpt>
      <trkpt lat="44.57794" lon="4.20858">
        <ele>589</ele>
        <time>2022-06-09T16:16:47Z</time>
      </trkpt>
      <trkpt lat="44.57789" lon="4.2082">
        <ele>587</ele>
        <time>2022-06-09T16:16:53Z</time>
      </trkpt>
      <trkpt lat="44.57774" lon="4.20802">
        <ele>580</ele>
        <time>2022-06-09T16:16:58Z</time>
      </trkpt>
      <trkpt lat="44.57762" lon="4.20793">
        <ele>575</ele>
        <time>2022-06-09T16:17:01Z</time>
      </trkpt>
      <trkpt lat="44.57743" lon="4.20769">
        <ele>569</ele>
        <time>2022-06-09T16:17:07Z</time>
      </trkpt>
      <trkpt lat="44.57733" lon="4.20763">
        <ele>568</ele>
        <time>2022-06-09T16:17:10Z</time>
      </trkpt>
      <trkpt lat="44.57718" lon="4.20769">
        <ele>567</ele>
        <time>2022-06-09T16:17:13Z</time>
      </trkpt>
      <trkpt lat="44.57707" lon="4.20777">
        <ele>565</ele>
        <time>2022-06-09T16:17:16Z</time>
      </trkpt>
      <trkpt lat="44.57693" lon="4.20803">
        <ele>562</ele>
        <time>2022-06-09T16:17:22Z</time>
      </trkpt>
      <trkpt lat="44.57664" lon="4.20823">
        <ele>555</ele>
        <time>2022-06-09T16:17:29Z</time>
      </trkpt>
      <trkpt lat="44.57645" lon="4.20862">
        <ele>546</ele>
        <time>2022-06-09T16:17:37Z</time>
      </trkpt>
      <trkpt lat="44.57632" lon="4.20883">
        <ele>540</ele>
        <time>2022-06-09T16:17:42Z</time>
      </trkpt>
      <trkpt lat="44.57615" lon="4.20898">
        <ele>536</ele>
        <time>2022-06-09T16:17:46Z</time>
      </trkpt>
      <trkpt lat="44.57593" lon="4.20926">
        <ele>529</ele>
        <time>2022-06-09T16:17:53Z</time>
      </trkpt>
      <trkpt lat="44.5759" lon="4.20924">
        <ele>529</ele>
        <time>2022-06-09T16:17:54Z</time>
      </trkpt>
      <trkpt lat="44.57581" lon="4.20902">
        <ele>529</ele>
        <time>2022-06-09T16:17:58Z</time>
      </trkpt>
      <trkpt lat="44.57573" lon="4.20946">
        <ele>521</ele>
        <time>2022-06-09T16:18:06Z</time>
      </trkpt>
      <trkpt lat="44.57574" lon="4.20976">
        <ele>516</ele>
        <time>2022-06-09T16:18:11Z</time>
      </trkpt>
      <trkpt lat="44.57564" lon="4.20975">
        <ele>513</ele>
        <time>2022-06-09T16:18:13Z</time>
      </trkpt>
      <trkpt lat="44.57547" lon="4.20964">
        <ele>509</ele>
        <time>2022-06-09T16:18:18Z</time>
      </trkpt>
      <trkpt lat="44.5754" lon="4.20966">
        <ele>507</ele>
        <time>2022-06-09T16:18:19Z</time>
      </trkpt>
      <trkpt lat="44.57532" lon="4.20983">
        <ele>501</ele>
        <time>2022-06-09T16:18:23Z</time>
      </trkpt>
      <trkpt lat="44.5753" lon="4.20995">
        <ele>498</ele>
        <time>2022-06-09T16:18:25Z</time>
      </trkpt>
      <trkpt lat="44.57523" lon="4.20996">
        <ele>496</ele>
        <time>2022-06-09T16:18:26Z</time>
      </trkpt>
      <trkpt lat="44.57513" lon="4.20984">
        <ele>495</ele>
        <time>2022-06-09T16:18:29Z</time>
      </trkpt>
      <trkpt lat="44.57509" lon="4.21009">
        <ele>490</ele>
        <time>2022-06-09T16:18:34Z</time>
      </trkpt>
      <trkpt lat="44.57512" lon="4.21016">
        <ele>491</ele>
        <time>2022-06-09T16:18:35Z</time>
      </trkpt>
      <trkpt lat="44.57505" lon="4.21017">
        <ele>489</ele>
        <time>2022-06-09T16:18:37Z</time>
      </trkpt>
      <trkpt lat="44.57492" lon="4.20996">
        <ele>486</ele>
        <time>2022-06-09T16:18:41Z</time>
      </trkpt>
      <trkpt lat="44.57491" lon="4.21008">
        <ele>485</ele>
        <time>2022-06-09T16:18:43Z</time>
      </trkpt>
      <trkpt lat="44.57486" lon="4.20997">
        <ele>485</ele>
        <time>2022-06-09T16:18:46Z</time>
      </trkpt>
      <trkpt lat="44.57483" lon="4.20974">
        <ele>489</ele>
        <time>2022-06-09T16:18:49Z</time>
      </trkpt>
      <trkpt lat="44.57479" lon="4.20974">
        <ele>488</ele>
        <time>2022-06-09T16:18:50Z</time>
      </trkpt>
      <trkpt lat="44.5747" lon="4.20993">
        <ele>482</ele>
        <time>2022-06-09T16:18:54Z</time>
      </trkpt>
      <trkpt lat="44.57464" lon="4.21035">
        <ele>482</ele>
        <time>2022-06-09T16:19:01Z</time>
      </trkpt>
      <trkpt lat="44.57467" lon="4.21047">
        <ele>484</ele>
        <time>2022-06-09T16:19:03Z</time>
      </trkpt>
      <trkpt lat="44.57465" lon="4.21047">
        <ele>484</ele>
        <time>2022-06-09T16:19:04Z</time>
      </trkpt>
      <trkpt lat="44.57468" lon="4.21053">
        <ele>484</ele>
        <time>2022-06-09T16:19:05Z</time>
      </trkpt>
      <trkpt lat="44.57472" lon="4.21041">
        <ele>484</ele>
        <time>2022-06-09T16:19:07Z</time>
      </trkpt>
      <trkpt lat="44.57464" lon="4.21042">
        <ele>483</ele>
        <time>2022-06-09T16:19:09Z</time>
      </trkpt>
      <trkpt lat="44.57463" lon="4.21048">
        <ele>483</ele>
        <time>2022-06-09T16:19:10Z</time>
      </trkpt>
      <trkpt lat="44.57459" lon="4.21047">
        <ele>483</ele>
        <time>2022-06-09T16:19:11Z</time>
      </trkpt>
      <trkpt lat="44.57463" lon="4.21047">
        <ele>483</ele>
        <time>2022-06-09T16:19:12Z</time>
      </trkpt>
      <trkpt lat="44.57461" lon="4.2105">
        <ele>483</ele>
        <time>2022-06-09T16:19:13Z</time>
      </trkpt>
      <trkpt lat="44.57466" lon="4.21044">
        <ele>483</ele>
        <time>2022-06-09T16:19:14Z</time>
      </trkpt>
      <trkpt lat="44.57458" lon="4.21058">
        <ele>484</ele>
        <time>2022-06-09T16:19:17Z</time>
      </trkpt>
      <trkpt lat="44.57456" lon="4.21067">
        <ele>484</ele>
        <time>2022-06-09T16:19:19Z</time>
      </trkpt>
      <trkpt lat="44.5746" lon="4.21058">
        <ele>484</ele>
        <time>2022-06-09T16:19:21Z</time>
      </trkpt>
      <trkpt lat="44.57457" lon="4.21049">
        <ele>483</ele>
        <time>2022-06-09T16:19:22Z</time>
      </trkpt>
      <trkpt lat="44.57461" lon="4.2104">
        <ele>482</ele>
        <time>2022-06-09T16:19:24Z</time>
      </trkpt>
      <trkpt lat="44.57465" lon="4.21036">
        <ele>483</ele>
        <time>2022-06-09T16:19:25Z</time>
      </trkpt>
      <trkpt lat="44.57466" lon="4.21043">
        <ele>483</ele>
        <time>2022-06-09T16:19:26Z</time>
      </trkpt>
      <trkpt lat="44.57459" lon="4.21045">
        <ele>483</ele>
        <time>2022-06-09T16:19:28Z</time>
      </trkpt>
      <trkpt lat="44.57462" lon="4.2104">
        <ele>483</ele>
        <time>2022-06-09T16:19:29Z</time>
      </trkpt>
      <trkpt lat="44.57463" lon="4.21044">
        <ele>483</ele>
        <time>2022-06-09T16:19:30Z</time>
      </trkpt>
      <trkpt lat="44.57468" lon="4.21035">
        <ele>483</ele>
        <time>2022-06-09T16:19:32Z</time>
      </trkpt>
      <trkpt lat="44.57469" lon="4.21041">
        <ele>484</ele>
        <time>2022-06-09T16:19:33Z</time>
      </trkpt>
      <trkpt lat="44.57464" lon="4.21048">
        <ele>483</ele>
        <time>2022-06-09T16:19:34Z</time>
      </trkpt>
      <trkpt lat="44.57469" lon="4.21036">
        <ele>483</ele>
        <time>2022-06-09T16:19:37Z</time>
      </trkpt>
      <trkpt lat="44.5747" lon="4.21039">
        <ele>484</ele>
        <time>2022-06-09T16:19:37Z</time>
      </trkpt>
      <trkpt lat="44.57468" lon="4.21036">
        <ele>483</ele>
        <time>2022-06-09T16:19:38Z</time>
      </trkpt>
      <trkpt lat="44.57471" lon="4.21038">
        <ele>484</ele>
        <time>2022-06-09T16:19:39Z</time>
      </trkpt>
      <trkpt lat="44.57469" lon="4.21033">
        <ele>483</ele>
        <time>2022-06-09T16:19:40Z</time>
      </trkpt>
      <trkpt lat="44.57474" lon="4.21036">
        <ele>484</ele>
        <time>2022-06-09T16:19:41Z</time>
      </trkpt>
      <trkpt lat="44.57478" lon="4.21034">
        <ele>484</ele>
        <time>2022-06-09T16:19:42Z</time>
      </trkpt>
      <trkpt lat="44.57474" lon="4.21047">
        <ele>485</ele>
        <time>2022-06-09T16:19:44Z</time>
      </trkpt>
      <trkpt lat="44.57474" lon="4.21042">
        <ele>484</ele>
        <time>2022-06-09T16:19:45Z</time>
      </trkpt>
      <trkpt lat="44.57476" lon="4.21043">
        <ele>485</ele>
        <time>2022-06-09T16:19:46Z</time>
      </trkpt>
      <trkpt lat="44.57469" lon="4.21048">
        <ele>484</ele>
        <time>2022-06-09T16:19:47Z</time>
      </trkpt>
      <trkpt lat="44.5747" lon="4.21045">
        <ele>484</ele>
        <time>2022-06-09T16:19:48Z</time>
      </trkpt>
      <trkpt lat="44.5747" lon="4.21049">
        <ele>484</ele>
        <time>2022-06-09T16:19:49Z</time>
      </trkpt>
      <trkpt lat="44.57475" lon="4.21047">
        <ele>485</ele>
        <time>2022-06-09T16:19:50Z</time>
      </trkpt>
      <trkpt lat="44.57477" lon="4.21042">
        <ele>485</ele>
        <time>2022-06-09T16:19:51Z</time>
      </trkpt>
      <trkpt lat="44.57476" lon="4.21044">
        <ele>485</ele>
        <time>2022-06-09T16:19:51Z</time>
      </trkpt>
      <trkpt lat="44.57471" lon="4.2104">
        <ele>484</ele>
        <time>2022-06-09T16:19:53Z</time>
      </trkpt>
      <trkpt lat="44.57476" lon="4.21035">
        <ele>484</ele>
        <time>2022-06-09T16:19:54Z</time>
      </trkpt>
      <trkpt lat="44.57467" lon="4.21041">
        <ele>483</ele>
        <time>2022-06-09T16:19:56Z</time>
      </trkpt>
      <trkpt lat="44.57471" lon="4.2104">
        <ele>484</ele>
        <time>2022-06-09T16:19:57Z</time>
      </trkpt>
      <trkpt lat="44.57473" lon="4.21043">
        <ele>484</ele>
        <time>2022-06-09T16:19:58Z</time>
      </trkpt>
      <trkpt lat="44.57471" lon="4.21044">
        <ele>484</ele>
        <time>2022-06-09T16:19:58Z</time>
      </trkpt>
      <trkpt lat="44.57472" lon="4.21047">
        <ele>484</ele>
        <time>2022-06-09T16:19:59Z</time>
      </trkpt>
      <trkpt lat="44.57464" lon="4.21045">
        <ele>483</ele>
        <time>2022-06-09T16:20:01Z</time>
      </trkpt>
      <trkpt lat="44.57464" lon="4.21041">
        <ele>483</ele>
        <time>2022-06-09T16:20:02Z</time>
      </trkpt>
      <trkpt lat="44.57466" lon="4.21045">
        <ele>483</ele>
        <time>2022-06-09T16:20:02Z</time>
      </trkpt>
      <trkpt lat="44.57467" lon="4.21041">
        <ele>483</ele>
        <time>2022-06-09T16:20:03Z</time>
      </trkpt>
      <trkpt lat="44.57463" lon="4.2104">
        <ele>483</ele>
        <time>2022-06-09T16:20:04Z</time>
      </trkpt>
      <trkpt lat="44.57433" lon="4.21038">
        <ele>479</ele>
        <time>2022-06-09T16:20:11Z</time>
      </trkpt>
      <trkpt lat="44.57404" lon="4.21044">
        <ele>476</ele>
        <time>2022-06-09T16:20:18Z</time>
      </trkpt>
      <trkpt lat="44.57379" lon="4.21036">
        <ele>471</ele>
        <time>2022-06-09T16:20:24Z</time>
      </trkpt>
      <trkpt lat="44.57336" lon="4.21039">
        <ele>466</ele>
        <time>2022-06-09T16:20:34Z</time>
      </trkpt>
      <trkpt lat="44.5731" lon="4.2107">
        <ele>471</ele>
        <time>2022-06-09T16:20:42Z</time>
      </trkpt>
      <trkpt lat="44.57302" lon="4.21066">
        <ele>470</ele>
        <time>2022-06-09T16:20:44Z</time>
      </trkpt>
      <trkpt lat="44.573" lon="4.21061">
        <ele>469</ele>
        <time>2022-06-09T16:20:45Z</time>
      </trkpt>
      <trkpt lat="44.57275" lon="4.21042">
        <ele>464</ele>
        <time>2022-06-09T16:20:51Z</time>
      </trkpt>
      <trkpt lat="44.57259" lon="4.21037">
        <ele>462</ele>
        <time>2022-06-09T16:20:55Z</time>
      </trkpt>
      <trkpt lat="44.57243" lon="4.21041">
        <ele>462</ele>
        <time>2022-06-09T16:20:59Z</time>
      </trkpt>
      <trkpt lat="44.57212" lon="4.21028">
        <ele>457</ele>
        <time>2022-06-09T16:21:07Z</time>
      </trkpt>
      <trkpt lat="44.57181" lon="4.20995">
        <ele>452</ele>
        <time>2022-06-09T16:21:16Z</time>
      </trkpt>
      <trkpt lat="44.57173" lon="4.20984">
        <ele>450</ele>
        <time>2022-06-09T16:21:18Z</time>
      </trkpt>
      <trkpt lat="44.57161" lon="4.20956">
        <ele>446</ele>
        <time>2022-06-09T16:21:24Z</time>
      </trkpt>
      <trkpt lat="44.57144" lon="4.20926">
        <ele>442</ele>
        <time>2022-06-09T16:21:30Z</time>
      </trkpt>
      <trkpt lat="44.57123" lon="4.20894">
        <ele>438</ele>
        <time>2022-06-09T16:21:37Z</time>
      </trkpt>
      <trkpt lat="44.57117" lon="4.20867">
        <ele>435</ele>
        <time>2022-06-09T16:21:42Z</time>
      </trkpt>
      <trkpt lat="44.5709" lon="4.20806">
        <ele>429</ele>
        <time>2022-06-09T16:21:54Z</time>
      </trkpt>
      <trkpt lat="44.57077" lon="4.20786">
        <ele>425</ele>
        <time>2022-06-09T16:21:59Z</time>
      </trkpt>
      <trkpt lat="44.57072" lon="4.20783">
        <ele>424</ele>
        <time>2022-06-09T16:22:00Z</time>
      </trkpt>
      <trkpt lat="44.57069" lon="4.20794">
        <ele>426</ele>
        <time>2022-06-09T16:22:02Z</time>
      </trkpt>
      <trkpt lat="44.57066" lon="4.20792">
        <ele>425</ele>
        <time>2022-06-09T16:22:03Z</time>
      </trkpt>
      <trkpt lat="44.57062" lon="4.20763">
        <ele>421</ele>
        <time>2022-06-09T16:22:08Z</time>
      </trkpt>
      <trkpt lat="44.57068" lon="4.20746">
        <ele>419</ele>
        <time>2022-06-09T16:22:11Z</time>
      </trkpt>
      <trkpt lat="44.57024" lon="4.20735">
        <ele>415</ele>
        <time>2022-06-09T16:22:21Z</time>
      </trkpt>
      <trkpt lat="44.57001" lon="4.20717">
        <ele>412</ele>
        <time>2022-06-09T16:22:27Z</time>
      </trkpt>
      <trkpt lat="44.56986" lon="4.2071">
        <ele>410</ele>
        <time>2022-06-09T16:22:31Z</time>
      </trkpt>
      <trkpt lat="44.56981" lon="4.20709">
        <ele>409</ele>
        <time>2022-06-09T16:22:32Z</time>
      </trkpt>
      <trkpt lat="44.56976" lon="4.20716">
        <ele>409</ele>
        <time>2022-06-09T16:22:34Z</time>
      </trkpt>
      <trkpt lat="44.56974" lon="4.20707">
        <ele>409</ele>
        <time>2022-06-09T16:22:35Z</time>
      </trkpt>
      <trkpt lat="44.56968" lon="4.20704">
        <ele>408</ele>
        <time>2022-06-09T16:22:37Z</time>
      </trkpt>
      <trkpt lat="44.5697" lon="4.20733">
        <ele>410</ele>
        <time>2022-06-09T16:22:42Z</time>
      </trkpt>
      <trkpt lat="44.56973" lon="4.20735">
        <ele>410</ele>
        <time>2022-06-09T16:22:42Z</time>
      </trkpt>
      <trkpt lat="44.56966" lon="4.2074">
        <ele>410</ele>
        <time>2022-06-09T16:22:44Z</time>
      </trkpt>
      <trkpt lat="44.56962" lon="4.20751">
        <ele>410</ele>
        <time>2022-06-09T16:22:46Z</time>
      </trkpt>
      <trkpt lat="44.56964" lon="4.20747">
        <ele>410</ele>
        <time>2022-06-09T16:22:47Z</time>
      </trkpt>
      <trkpt lat="44.56952" lon="4.20718">
        <ele>407</ele>
        <time>2022-06-09T16:22:53Z</time>
      </trkpt>
      <trkpt lat="44.56929" lon="4.20672">
        <ele>402</ele>
        <time>2022-06-09T16:23:02Z</time>
      </trkpt>
      <trkpt lat="44.56912" lon="4.20644">
        <ele>401</ele>
        <time>2022-06-09T16:23:08Z</time>
      </trkpt>
      <trkpt lat="44.56911" lon="4.20638">
        <ele>401</ele>
        <time>2022-06-09T16:23:09Z</time>
      </trkpt>
      <trkpt lat="44.56913" lon="4.2064">
        <ele>400</ele>
        <time>2022-06-09T16:23:10Z</time>
      </trkpt>
      <trkpt lat="44.56912" lon="4.20647">
        <ele>401</ele>
        <time>2022-06-09T16:23:11Z</time>
      </trkpt>
      <trkpt lat="44.56919" lon="4.20652">
        <ele>400</ele>
        <time>2022-06-09T16:23:13Z</time>
      </trkpt>
      <trkpt lat="44.56922" lon="4.20651">
        <ele>400</ele>
        <time>2022-06-09T16:23:14Z</time>
      </trkpt>
      <trkpt lat="44.5693" lon="4.206">
        <ele>400</ele>
        <time>2022-06-09T16:23:22Z</time>
      </trkpt>
      <trkpt lat="44.56931" lon="4.20574">
        <ele>399</ele>
        <time>2022-06-09T16:23:27Z</time>
      </trkpt>
      <trkpt lat="44.56945" lon="4.20494">
        <ele>398</ele>
        <time>2022-06-09T16:23:40Z</time>
      </trkpt>
      <trkpt lat="44.56944" lon="4.20472">
        <ele>396</ele>
        <time>2022-06-09T16:23:44Z</time>
      </trkpt>
      <trkpt lat="44.5693" lon="4.20394">
        <ele>387</ele>
        <time>2022-06-09T16:23:57Z</time>
      </trkpt>
      <trkpt lat="44.56931" lon="4.20372">
        <ele>386</ele>
        <time>2022-06-09T16:24:01Z</time>
      </trkpt>
      <trkpt lat="44.56948" lon="4.20323">
        <ele>387</ele>
        <time>2022-06-09T16:24:10Z</time>
      </trkpt>
      <trkpt lat="44.56958" lon="4.20256">
        <ele>378</ele>
        <time>2022-06-09T16:24:21Z</time>
      </trkpt>
      <trkpt lat="44.56966" lon="4.20237">
        <ele>376</ele>
        <time>2022-06-09T16:24:25Z</time>
      </trkpt>
      <trkpt lat="44.56972" lon="4.20231">
        <ele>375</ele>
        <time>2022-06-09T16:24:27Z</time>
      </trkpt>
      <trkpt lat="44.56988" lon="4.20224">
        <ele>375</ele>
        <time>2022-06-09T16:24:31Z</time>
      </trkpt>
      <trkpt lat="44.57012" lon="4.20223">
        <ele>376</ele>
        <time>2022-06-09T16:24:36Z</time>
      </trkpt>
      <trkpt lat="44.57037" lon="4.20218">
        <ele>376</ele>
        <time>2022-06-09T16:24:42Z</time>
      </trkpt>
      <trkpt lat="44.5707" lon="4.20192">
        <ele>374</ele>
        <time>2022-06-09T16:24:51Z</time>
      </trkpt>
      <trkpt lat="44.57074" lon="4.20184">
        <ele>374</ele>
        <time>2022-06-09T16:24:53Z</time>
      </trkpt>
      <trkpt lat="44.57076" lon="4.20168">
        <ele>373</ele>
        <time>2022-06-09T16:24:55Z</time>
      </trkpt>
      <trkpt lat="44.57073" lon="4.20153">
        <ele>375</ele>
        <time>2022-06-09T16:24:58Z</time>
      </trkpt>
      <trkpt lat="44.57062" lon="4.20129">
        <ele>377</ele>
        <time>2022-06-09T16:25:03Z</time>
      </trkpt>
      <trkpt lat="44.57031" lon="4.20095">
        <ele>376</ele>
        <time>2022-06-09T16:25:12Z</time>
      </trkpt>
      <trkpt lat="44.57024" lon="4.20079">
        <ele>377</ele>
        <time>2022-06-09T16:25:15Z</time>
      </trkpt>
      <trkpt lat="44.57017" lon="4.2007">
        <ele>377</ele>
        <time>2022-06-09T16:25:17Z</time>
      </trkpt>
      <trkpt lat="44.57026" lon="4.20089">
        <ele>376</ele>
        <time>2022-06-09T16:25:21Z</time>
      </trkpt>
      <trkpt lat="44.5703" lon="4.20088">
        <ele>377</ele>
        <time>2022-06-09T16:25:22Z</time>
      </trkpt>
      <trkpt lat="44.57027" lon="4.20091">
        <ele>376</ele>
        <time>2022-06-09T16:25:23Z</time>
      </trkpt>
      <trkpt lat="44.5704" lon="4.20073">
        <ele>382</ele>
        <time>2022-06-09T16:25:27Z</time>
      </trkpt>
      <trkpt lat="44.57042" lon="4.20058">
        <ele>386</ele>
        <time>2022-06-09T16:25:30Z</time>
      </trkpt>
      <trkpt lat="44.57049" lon="4.20055">
        <ele>388</ele>
        <time>2022-06-09T16:25:31Z</time>
      </trkpt>
      <trkpt lat="44.57052" lon="4.20038">
        <ele>392</ele>
        <time>2022-06-09T16:25:34Z</time>
      </trkpt>
      <trkpt lat="44.57053" lon="4.20009">
        <ele>398</ele>
        <time>2022-06-09T16:25:39Z</time>
      </trkpt>
      <trkpt lat="44.57058" lon="4.19997">
        <ele>401</ele>
        <time>2022-06-09T16:25:41Z</time>
      </trkpt>
      <trkpt lat="44.57056" lon="4.19988">
        <ele>403</ele>
        <time>2022-06-09T16:25:43Z</time>
      </trkpt>
      <trkpt lat="44.57034" lon="4.19991">
        <ele>400</ele>
        <time>2022-06-09T16:25:48Z</time>
      </trkpt>
      <trkpt lat="44.5702" lon="4.19997">
        <ele>397</ele>
        <time>2022-06-09T16:25:52Z</time>
      </trkpt>
      <trkpt lat="44.5701" lon="4.19994">
        <ele>396</ele>
        <time>2022-06-09T16:25:54Z</time>
      </trkpt>
      <trkpt lat="44.57" lon="4.19972">
        <ele>402</ele>
        <time>2022-06-09T16:25:58Z</time>
      </trkpt>
      <trkpt lat="44.5699" lon="4.19962">
        <ele>403</ele>
        <time>2022-06-09T16:26:01Z</time>
      </trkpt>
      <trkpt lat="44.56975" lon="4.19935">
        <ele>409</ele>
        <time>2022-06-09T16:26:07Z</time>
      </trkpt>
      <trkpt lat="44.56969" lon="4.19915">
        <ele>414</ele>
        <time>2022-06-09T16:26:11Z</time>
      </trkpt>
      <trkpt lat="44.56969" lon="4.19878">
        <ele>425</ele>
        <time>2022-06-09T16:26:17Z</time>
      </trkpt>
      <trkpt lat="44.56977" lon="4.19856">
        <ele>434</ele>
        <time>2022-06-09T16:26:21Z</time>
      </trkpt>
      <trkpt lat="44.56977" lon="4.19845">
        <ele>437</ele>
        <time>2022-06-09T16:26:23Z</time>
      </trkpt>
      <trkpt lat="44.5698" lon="4.19842">
        <ele>439</ele>
        <time>2022-06-09T16:26:23Z</time>
      </trkpt>
      <trkpt lat="44.56974" lon="4.19824">
        <ele>442</ele>
        <time>2022-06-09T16:26:27Z</time>
      </trkpt>
      <trkpt lat="44.56961" lon="4.19812">
        <ele>440</ele>
        <time>2022-06-09T16:26:30Z</time>
      </trkpt>
      <trkpt lat="44.56946" lon="4.19803">
        <ele>437</ele>
        <time>2022-06-09T16:26:34Z</time>
      </trkpt>
      <trkpt lat="44.56944" lon="4.19784">
        <ele>439</ele>
        <time>2022-06-09T16:26:37Z</time>
      </trkpt>
      <trkpt lat="44.56945" lon="4.19752">
        <ele>444</ele>
        <time>2022-06-09T16:26:43Z</time>
      </trkpt>
      <trkpt lat="44.5696" lon="4.19697">
        <ele>449</ele>
        <time>2022-06-09T16:26:53Z</time>
      </trkpt>
      <trkpt lat="44.56976" lon="4.19672">
        <ele>455</ele>
        <time>2022-06-09T16:26:58Z</time>
      </trkpt>
      <trkpt lat="44.56984" lon="4.19653">
        <ele>458</ele>
        <time>2022-06-09T16:27:02Z</time>
      </trkpt>
      <trkpt lat="44.5699" lon="4.19646">
        <ele>459</ele>
        <time>2022-06-09T16:27:04Z</time>
      </trkpt>
      <trkpt lat="44.57012" lon="4.19584">
        <ele>461</ele>
        <time>2022-06-09T16:27:15Z</time>
      </trkpt>
      <trkpt lat="44.5703" lon="4.19547">
        <ele>467</ele>
        <time>2022-06-09T16:27:23Z</time>
      </trkpt>
      <trkpt lat="44.57045" lon="4.19528">
        <ele>470</ele>
        <time>2022-06-09T16:27:27Z</time>
      </trkpt>
      <trkpt lat="44.57047" lon="4.19527">
        <ele>470</ele>
        <time>2022-06-09T16:27:28Z</time>
      </trkpt>
      <trkpt lat="44.57047" lon="4.1953">
        <ele>470</ele>
        <time>2022-06-09T16:27:28Z</time>
      </trkpt>
      <trkpt lat="44.5705" lon="4.19525">
        <ele>471</ele>
        <time>2022-06-09T16:27:29Z</time>
      </trkpt>
      <trkpt lat="44.5705" lon="4.19527">
        <ele>471</ele>
        <time>2022-06-09T16:27:30Z</time>
      </trkpt>
      <trkpt lat="44.5705" lon="4.19524">
        <ele>471</ele>
        <time>2022-06-09T16:27:30Z</time>
      </trkpt>
      <trkpt lat="44.57042" lon="4.19512">
        <ele>469</ele>
        <time>2022-06-09T16:27:33Z</time>
      </trkpt>
      <trkpt lat="44.57028" lon="4.19507">
        <ele>468</ele>
        <time>2022-06-09T16:27:36Z</time>
      </trkpt>
      <trkpt lat="44.57004" lon="4.1949">
        <ele>467</ele>
        <time>2022-06-09T16:27:43Z</time>
      </trkpt>
      <trkpt lat="44.56981" lon="4.19467">
        <ele>472</ele>
        <time>2022-06-09T16:27:49Z</time>
      </trkpt>
      <trkpt lat="44.56977" lon="4.19468">
        <ele>471</ele>
        <time>2022-06-09T16:27:50Z</time>
      </trkpt>
      <trkpt lat="44.5696" lon="4.19487">
        <ele>467</ele>
        <time>2022-06-09T16:27:55Z</time>
      </trkpt>
      <trkpt lat="44.56948" lon="4.19492">
        <ele>466</ele>
        <time>2022-06-09T16:27:58Z</time>
      </trkpt>
      <trkpt lat="44.56927" lon="4.19471">
        <ele>470</ele>
        <time>2022-06-09T16:28:04Z</time>
      </trkpt>
      <trkpt lat="44.56927" lon="4.19474">
        <ele>469</ele>
        <time>2022-06-09T16:28:05Z</time>
      </trkpt>
      <trkpt lat="44.56929" lon="4.1947">
        <ele>470</ele>
        <time>2022-06-09T16:28:05Z</time>
      </trkpt>
      <trkpt lat="44.5692" lon="4.19471">
        <ele>470</ele>
        <time>2022-06-09T16:28:08Z</time>
      </trkpt>
      <trkpt lat="44.56893" lon="4.19504">
        <ele>460</ele>
        <time>2022-06-09T16:28:16Z</time>
      </trkpt>
      <trkpt lat="44.56885" lon="4.19507">
        <ele>458</ele>
        <time>2022-06-09T16:28:18Z</time>
      </trkpt>
      <trkpt lat="44.56876" lon="4.195">
        <ele>458</ele>
        <time>2022-06-09T16:28:20Z</time>
      </trkpt>
      <trkpt lat="44.56856" lon="4.19467">
        <ele>459</ele>
        <time>2022-06-09T16:28:28Z</time>
      </trkpt>
      <trkpt lat="44.56845" lon="4.19454">
        <ele>459</ele>
        <time>2022-06-09T16:28:31Z</time>
      </trkpt>
      <trkpt lat="44.56819" lon="4.19408">
        <ele>458</ele>
        <time>2022-06-09T16:28:41Z</time>
      </trkpt>
      <trkpt lat="44.56805" lon="4.19333">
        <ele>455</ele>
        <time>2022-06-09T16:28:54Z</time>
      </trkpt>
      <trkpt lat="44.56784" lon="4.19266">
        <ele>450</ele>
        <time>2022-06-09T16:29:06Z</time>
      </trkpt>
      <trkpt lat="44.56783" lon="4.19217">
        <ele>441</ele>
        <time>2022-06-09T16:29:14Z</time>
      </trkpt>
      <trkpt lat="44.56798" lon="4.1921">
        <ele>442</ele>
        <time>2022-06-09T16:29:18Z</time>
      </trkpt>
      <trkpt lat="44.56828" lon="4.19204">
        <ele>446</ele>
        <time>2022-06-09T16:29:25Z</time>
      </trkpt>
      <trkpt lat="44.56857" lon="4.19181">
        <ele>444</ele>
        <time>2022-06-09T16:29:32Z</time>
      </trkpt>
      <trkpt lat="44.56877" lon="4.1917">
        <ele>446</ele>
        <time>2022-06-09T16:29:37Z</time>
      </trkpt>
      <trkpt lat="44.56892" lon="4.19157">
        <ele>445</ele>
        <time>2022-06-09T16:29:42Z</time>
      </trkpt>
      <trkpt lat="44.56917" lon="4.19111">
        <ele>432</ele>
        <time>2022-06-09T16:29:51Z</time>
      </trkpt>
      <trkpt lat="44.56924" lon="4.19105">
        <ele>431</ele>
        <time>2022-06-09T16:29:53Z</time>
      </trkpt>
      <trkpt lat="44.56952" lon="4.19102">
        <ele>435</ele>
        <time>2022-06-09T16:30:00Z</time>
      </trkpt>
      <trkpt lat="44.56943" lon="4.19101">
        <ele>433</ele>
        <time>2022-06-09T16:30:02Z</time>
      </trkpt>
      <trkpt lat="44.56933" lon="4.19095">
        <ele>429</ele>
        <time>2022-06-09T16:30:04Z</time>
      </trkpt>
      <trkpt lat="44.56925" lon="4.19096">
        <ele>428</ele>
        <time>2022-06-09T16:30:06Z</time>
      </trkpt>
      <trkpt lat="44.56915" lon="4.19106">
        <ele>430</ele>
        <time>2022-06-09T16:30:09Z</time>
      </trkpt>
      <trkpt lat="44.56913" lon="4.19105">
        <ele>429</ele>
        <time>2022-06-09T16:30:10Z</time>
      </trkpt>
      <trkpt lat="44.56928" lon="4.19081">
        <ele>423</ele>
        <time>2022-06-09T16:30:15Z</time>
      </trkpt>
      <trkpt lat="44.56914" lon="4.19068">
        <ele>419</ele>
        <time>2022-06-09T16:30:19Z</time>
      </trkpt>
      <trkpt lat="44.56932" lon="4.19057">
        <ele>423</ele>
        <time>2022-06-09T16:30:23Z</time>
      </trkpt>
      <trkpt lat="44.56956" lon="4.19058">
        <ele>429</ele>
        <time>2022-06-09T16:30:29Z</time>
      </trkpt>
      <trkpt lat="44.56965" lon="4.19054">
        <ele>431</ele>
        <time>2022-06-09T16:30:31Z</time>
      </trkpt>
      <trkpt lat="44.56966" lon="4.19048">
        <ele>431</ele>
        <time>2022-06-09T16:30:32Z</time>
      </trkpt>
      <trkpt lat="44.56933" lon="4.19002">
        <ele>421</ele>
        <time>2022-06-09T16:30:43Z</time>
      </trkpt>
      <trkpt lat="44.56933" lon="4.18997">
        <ele>422</ele>
        <time>2022-06-09T16:30:44Z</time>
      </trkpt>
      <trkpt lat="44.56922" lon="4.18976">
        <ele>426</ele>
        <time>2022-06-09T16:30:48Z</time>
      </trkpt>
      <trkpt lat="44.56905" lon="4.18964">
        <ele>426</ele>
        <time>2022-06-09T16:30:53Z</time>
      </trkpt>
      <trkpt lat="44.56883" lon="4.18966">
        <ele>422</ele>
        <time>2022-06-09T16:30:58Z</time>
      </trkpt>
      <trkpt lat="44.56854" lon="4.1898">
        <ele>411</ele>
        <time>2022-06-09T16:31:05Z</time>
      </trkpt>
      <trkpt lat="44.56816" lon="4.18964">
        <ele>408</ele>
        <time>2022-06-09T16:31:14Z</time>
      </trkpt>
      <trkpt lat="44.5678" lon="4.18912">
        <ele>410</ele>
        <time>2022-06-09T16:31:26Z</time>
      </trkpt>
      <trkpt lat="44.56762" lon="4.18869">
        <ele>407</ele>
        <time>2022-06-09T16:31:35Z</time>
      </trkpt>
      <trkpt lat="44.56767" lon="4.18831">
        <ele>413</ele>
        <time>2022-06-09T16:31:41Z</time>
      </trkpt>
      <trkpt lat="44.5674" lon="4.18772">
        <ele>402</ele>
        <time>2022-06-09T16:31:53Z</time>
      </trkpt>
      <trkpt lat="44.56743" lon="4.18753">
        <ele>404</ele>
        <time>2022-06-09T16:31:56Z</time>
      </trkpt>
      <trkpt lat="44.56758" lon="4.18708">
        <ele>413</ele>
        <time>2022-06-09T16:32:04Z</time>
      </trkpt>
      <trkpt lat="44.56744" lon="4.18673">
        <ele>408</ele>
        <time>2022-06-09T16:32:11Z</time>
      </trkpt>
      <trkpt lat="44.5673" lon="4.18661">
        <ele>403</ele>
        <time>2022-06-09T16:32:15Z</time>
      </trkpt>
      <trkpt lat="44.56721" lon="4.18638">
        <ele>403</ele>
        <time>2022-06-09T16:32:19Z</time>
      </trkpt>
      <trkpt lat="44.56702" lon="4.18643">
        <ele>394</ele>
        <time>2022-06-09T16:32:24Z</time>
      </trkpt>
      <trkpt lat="44.567" lon="4.1863">
        <ele>397</ele>
        <time>2022-06-09T16:32:26Z</time>
      </trkpt>
      <trkpt lat="44.5669" lon="4.18624">
        <ele>394</ele>
        <time>2022-06-09T16:32:28Z</time>
      </trkpt>
      <trkpt lat="44.56675" lon="4.18639">
        <ele>384</ele>
        <time>2022-06-09T16:32:33Z</time>
      </trkpt>
      <trkpt lat="44.56648" lon="4.18635">
        <ele>376</ele>
        <time>2022-06-09T16:32:39Z</time>
      </trkpt>
      <trkpt lat="44.56638" lon="4.18628">
        <ele>375</ele>
        <time>2022-06-09T16:32:42Z</time>
      </trkpt>
      <trkpt lat="44.56621" lon="4.18639">
        <ele>367</ele>
        <time>2022-06-09T16:32:46Z</time>
      </trkpt>
      <trkpt lat="44.56607" lon="4.18642">
        <ele>362</ele>
        <time>2022-06-09T16:32:49Z</time>
      </trkpt>
      <trkpt lat="44.56588" lon="4.18633">
        <ele>359</ele>
        <time>2022-06-09T16:32:54Z</time>
      </trkpt>
      <trkpt lat="44.56576" lon="4.18621">
        <ele>360</ele>
        <time>2022-06-09T16:32:57Z</time>
      </trkpt>
      <trkpt lat="44.56565" lon="4.18587">
        <ele>365</ele>
        <time>2022-06-09T16:33:04Z</time>
      </trkpt>
      <trkpt lat="44.56562" lon="4.18556">
        <ele>368</ele>
        <time>2022-06-09T16:33:09Z</time>
      </trkpt>
      <trkpt lat="44.56548" lon="4.18521">
        <ele>368</ele>
        <time>2022-06-09T16:33:15Z</time>
      </trkpt>
      <trkpt lat="44.56533" lon="4.18467">
        <ele>367</ele>
        <time>2022-06-09T16:33:25Z</time>
      </trkpt>
      <trkpt lat="44.5651" lon="4.18463">
        <ele>358</ele>
        <time>2022-06-09T16:33:31Z</time>
      </trkpt>
      <trkpt lat="44.5649" lon="4.18478">
        <ele>358</ele>
        <time>2022-06-09T16:33:36Z</time>
      </trkpt>
      <trkpt lat="44.56475" lon="4.18486">
        <ele>365</ele>
        <time>2022-06-09T16:33:40Z</time>
      </trkpt>
      <trkpt lat="44.56459" lon="4.18468">
        <ele>371</ele>
        <time>2022-06-09T16:33:44Z</time>
      </trkpt>
      <trkpt lat="44.56451" lon="4.18411">
        <ele>371</ele>
        <time>2022-06-09T16:33:54Z</time>
      </trkpt>
      <trkpt lat="44.56439" lon="4.18396">
        <ele>373</ele>
        <time>2022-06-09T16:33:58Z</time>
      </trkpt>
      <trkpt lat="44.5644" lon="4.18354">
        <ele>371</ele>
        <time>2022-06-09T16:34:05Z</time>
      </trkpt>
      <trkpt lat="44.56433" lon="4.18311">
        <ele>373</ele>
        <time>2022-06-09T16:34:12Z</time>
      </trkpt>
      <trkpt lat="44.56438" lon="4.18306">
        <ele>372</ele>
        <time>2022-06-09T16:34:14Z</time>
      </trkpt>
      <trkpt lat="44.56446" lon="4.18283">
        <ele>371</ele>
        <time>2022-06-09T16:34:18Z</time>
      </trkpt>
      <trkpt lat="44.56438" lon="4.18269">
        <ele>374</ele>
        <time>2022-06-09T16:34:21Z</time>
      </trkpt>
      <trkpt lat="44.56439" lon="4.18261">
        <ele>374</ele>
        <time>2022-06-09T16:34:22Z</time>
      </trkpt>
      <trkpt lat="44.56454" lon="4.18252">
        <ele>370</ele>
        <time>2022-06-09T16:34:26Z</time>
      </trkpt>
      <trkpt lat="44.5648" lon="4.18204">
        <ele>370</ele>
        <time>2022-06-09T16:34:36Z</time>
      </trkpt>
      <trkpt lat="44.56498" lon="4.18152">
        <ele>371</ele>
        <time>2022-06-09T16:34:46Z</time>
      </trkpt>
      <trkpt lat="44.56491" lon="4.18128">
        <ele>380</ele>
        <time>2022-06-09T16:34:50Z</time>
      </trkpt>
      <trkpt lat="44.56504" lon="4.18118">
        <ele>378</ele>
        <time>2022-06-09T16:34:53Z</time>
      </trkpt>
      <trkpt lat="44.56513" lon="4.18106">
        <ele>379</ele>
        <time>2022-06-09T16:34:56Z</time>
      </trkpt>
      <trkpt lat="44.56519" lon="4.18088">
        <ele>381</ele>
        <time>2022-06-09T16:35:00Z</time>
      </trkpt>
      <trkpt lat="44.56527" lon="4.1808">
        <ele>381</ele>
        <time>2022-06-09T16:35:02Z</time>
      </trkpt>
      <trkpt lat="44.56531" lon="4.18062">
        <ele>385</ele>
        <time>2022-06-09T16:35:05Z</time>
      </trkpt>
      <trkpt lat="44.56552" lon="4.18036">
        <ele>386</ele>
        <time>2022-06-09T16:35:12Z</time>
      </trkpt>
      <trkpt lat="44.56566" lon="4.18013">
        <ele>387</ele>
        <time>2022-06-09T16:35:17Z</time>
      </trkpt>
      <trkpt lat="44.5658" lon="4.17997">
        <ele>385</ele>
        <time>2022-06-09T16:35:21Z</time>
      </trkpt>
      <trkpt lat="44.56595" lon="4.17957">
        <ele>390</ele>
        <time>2022-06-09T16:35:28Z</time>
      </trkpt>
      <trkpt lat="44.56614" lon="4.1792">
        <ele>390</ele>
        <time>2022-06-09T16:35:36Z</time>
      </trkpt>
      <trkpt lat="44.5661" lon="4.179">
        <ele>394</ele>
        <time>2022-06-09T16:35:39Z</time>
      </trkpt>
      <trkpt lat="44.56593" lon="4.17875">
        <ele>403</ele>
        <time>2022-06-09T16:35:45Z</time>
      </trkpt>
      <trkpt lat="44.56601" lon="4.1785">
        <ele>403</ele>
        <time>2022-06-09T16:35:50Z</time>
      </trkpt>
      <trkpt lat="44.56616" lon="4.17851">
        <ele>398</ele>
        <time>2022-06-09T16:35:53Z</time>
      </trkpt>
      <trkpt lat="44.56623" lon="4.17848">
        <ele>396</ele>
        <time>2022-06-09T16:35:55Z</time>
      </trkpt>
      <trkpt lat="44.56629" lon="4.17842">
        <ele>395</ele>
        <time>2022-06-09T16:35:57Z</time>
      </trkpt>
      <trkpt lat="44.56631" lon="4.17825">
        <ele>397</ele>
        <time>2022-06-09T16:35:59Z</time>
      </trkpt>
      <trkpt lat="44.56634" lon="4.17821">
        <ele>396</ele>
        <time>2022-06-09T16:36:00Z</time>
      </trkpt>
      <trkpt lat="44.56632" lon="4.17811">
        <ele>398</ele>
        <time>2022-06-09T16:36:02Z</time>
      </trkpt>
      <trkpt lat="44.56619" lon="4.17781">
        <ele>404</ele>
        <time>2022-06-09T16:36:08Z</time>
      </trkpt>
      <trkpt lat="44.56618" lon="4.17769">
        <ele>406</ele>
        <time>2022-06-09T16:36:10Z</time>
      </trkpt>
      <trkpt lat="44.5661" lon="4.17743">
        <ele>410</ele>
        <time>2022-06-09T16:36:15Z</time>
      </trkpt>
      <trkpt lat="44.56588" lon="4.17728">
        <ele>415</ele>
        <time>2022-06-09T16:36:20Z</time>
      </trkpt>
      <trkpt lat="44.56578" lon="4.17727">
        <ele>417</ele>
        <time>2022-06-09T16:36:23Z</time>
      </trkpt>
      <trkpt lat="44.56566" lon="4.17718">
        <ele>421</ele>
        <time>2022-06-09T16:36:26Z</time>
      </trkpt>
      <trkpt lat="44.56561" lon="4.17709">
        <ele>422</ele>
        <time>2022-06-09T16:36:28Z</time>
      </trkpt>
      <trkpt lat="44.56555" lon="4.17693">
        <ele>424</ele>
        <time>2022-06-09T16:36:31Z</time>
      </trkpt>
      <trkpt lat="44.56559" lon="4.17666">
        <ele>422</ele>
        <time>2022-06-09T16:36:35Z</time>
      </trkpt>
      <trkpt lat="44.56549" lon="4.17612">
        <ele>434</ele>
        <time>2022-06-09T16:36:45Z</time>
      </trkpt>
      <trkpt lat="44.56557" lon="4.17613">
        <ele>433</ele>
        <time>2022-06-09T16:36:47Z</time>
      </trkpt>
      <trkpt lat="44.56566" lon="4.17621">
        <ele>429</ele>
        <time>2022-06-09T16:36:49Z</time>
      </trkpt>
      <trkpt lat="44.56566" lon="4.17616">
        <ele>430</ele>
        <time>2022-06-09T16:36:50Z</time>
      </trkpt>
      <trkpt lat="44.56575" lon="4.17621">
        <ele>428</ele>
        <time>2022-06-09T16:36:52Z</time>
      </trkpt>
      <trkpt lat="44.566" lon="4.17618">
        <ele>425</ele>
        <time>2022-06-09T16:36:58Z</time>
      </trkpt>
      <trkpt lat="44.56607" lon="4.17615">
        <ele>425</ele>
        <time>2022-06-09T16:37:00Z</time>
      </trkpt>
      <trkpt lat="44.56609" lon="4.17611">
        <ele>426</ele>
        <time>2022-06-09T16:37:01Z</time>
      </trkpt>
      <trkpt lat="44.56638" lon="4.176">
        <ele>426</ele>
        <time>2022-06-09T16:37:08Z</time>
      </trkpt>
      <trkpt lat="44.56642" lon="4.17587">
        <ele>428</ele>
        <time>2022-06-09T16:37:10Z</time>
      </trkpt>
      <trkpt lat="44.56631" lon="4.17587">
        <ele>429</ele>
        <time>2022-06-09T16:37:13Z</time>
      </trkpt>
      <trkpt lat="44.56628" lon="4.17574">
        <ele>433</ele>
        <time>2022-06-09T16:37:15Z</time>
      </trkpt>
      <trkpt lat="44.56652" lon="4.17513">
        <ele>443</ele>
        <time>2022-06-09T16:37:26Z</time>
      </trkpt>
      <trkpt lat="44.56659" lon="4.17446">
        <ele>457</ele>
        <time>2022-06-09T16:37:38Z</time>
      </trkpt>
      <trkpt lat="44.56667" lon="4.17405">
        <ele>464</ele>
        <time>2022-06-09T16:37:45Z</time>
      </trkpt>
      <trkpt lat="44.56665" lon="4.1738">
        <ele>470</ele>
        <time>2022-06-09T16:37:49Z</time>
      </trkpt>
      <trkpt lat="44.56669" lon="4.17371">
        <ele>471</ele>
        <time>2022-06-09T16:37:51Z</time>
      </trkpt>
      <trkpt lat="44.56709" lon="4.17372">
        <ele>461</ele>
        <time>2022-06-09T16:38:00Z</time>
      </trkpt>
      <trkpt lat="44.56724" lon="4.17347">
        <ele>462</ele>
        <time>2022-06-09T16:38:05Z</time>
      </trkpt>
      <trkpt lat="44.56722" lon="4.17345">
        <ele>463</ele>
        <time>2022-06-09T16:38:06Z</time>
      </trkpt>
      <trkpt lat="44.56723" lon="4.17342">
        <ele>464</ele>
        <time>2022-06-09T16:38:07Z</time>
      </trkpt>
      <trkpt lat="44.56726" lon="4.17347">
        <ele>462</ele>
        <time>2022-06-09T16:38:08Z</time>
      </trkpt>
      <trkpt lat="44.56723" lon="4.1735">
        <ele>462</ele>
        <time>2022-06-09T16:38:09Z</time>
      </trkpt>
      <trkpt lat="44.56733" lon="4.17346">
        <ele>460</ele>
        <time>2022-06-09T16:38:11Z</time>
      </trkpt>
      <trkpt lat="44.5673" lon="4.17349">
        <ele>460</ele>
        <time>2022-06-09T16:38:12Z</time>
      </trkpt>
      <trkpt lat="44.56731" lon="4.17351">
        <ele>460</ele>
        <time>2022-06-09T16:38:12Z</time>
      </trkpt>
      <trkpt lat="44.56726" lon="4.17346">
        <ele>462</ele>
        <time>2022-06-09T16:38:14Z</time>
      </trkpt>
      <trkpt lat="44.56724" lon="4.17336">
        <ele>465</ele>
        <time>2022-06-09T16:38:15Z</time>
      </trkpt>
      <trkpt lat="44.5672" lon="4.17334">
        <ele>466</ele>
        <time>2022-06-09T16:38:16Z</time>
      </trkpt>
      <trkpt lat="44.56713" lon="4.17339">
        <ele>467</ele>
        <time>2022-06-09T16:38:18Z</time>
      </trkpt>
      <trkpt lat="44.56706" lon="4.17336">
        <ele>469</ele>
        <time>2022-06-09T16:38:20Z</time>
      </trkpt>
      <trkpt lat="44.56698" lon="4.17339">
        <ele>470</ele>
        <time>2022-06-09T16:38:22Z</time>
      </trkpt>
      <trkpt lat="44.56706" lon="4.17333">
        <ele>470</ele>
        <time>2022-06-09T16:38:24Z</time>
      </trkpt>
      <trkpt lat="44.56707" lon="4.17325">
        <ele>470</ele>
        <time>2022-06-09T16:38:25Z</time>
      </trkpt>
      <trkpt lat="44.56709" lon="4.17325">
        <ele>470</ele>
        <time>2022-06-09T16:38:26Z</time>
      </trkpt>
      <trkpt lat="44.56719" lon="4.1728">
        <ele>472</ele>
        <time>2022-06-09T16:38:34Z</time>
      </trkpt>
      <trkpt lat="44.56712" lon="4.17263">
        <ele>475</ele>
        <time>2022-06-09T16:38:37Z</time>
      </trkpt>
      <trkpt lat="44.56698" lon="4.17241">
        <ele>483</ele>
        <time>2022-06-09T16:38:42Z</time>
      </trkpt>
      <trkpt lat="44.5669" lon="4.17234">
        <ele>487</ele>
        <time>2022-06-09T16:38:44Z</time>
      </trkpt>
      <trkpt lat="44.56695" lon="4.17251">
        <ele>482</ele>
        <time>2022-06-09T16:38:47Z</time>
      </trkpt>
      <trkpt lat="44.56691" lon="4.17262">
        <ele>482</ele>
        <time>2022-06-09T16:38:49Z</time>
      </trkpt>
      <trkpt lat="44.56684" lon="4.17267">
        <ele>483</ele>
        <time>2022-06-09T16:38:51Z</time>
      </trkpt>
      <trkpt lat="44.56677" lon="4.17266">
        <ele>486</ele>
        <time>2022-06-09T16:38:53Z</time>
      </trkpt>
      <trkpt lat="44.56682" lon="4.17259">
        <ele>485</ele>
        <time>2022-06-09T16:38:54Z</time>
      </trkpt>
      <trkpt lat="44.5668" lon="4.17256">
        <ele>486</ele>
        <time>2022-06-09T16:38:55Z</time>
      </trkpt>
      <trkpt lat="44.5668" lon="4.17259">
        <ele>486</ele>
        <time>2022-06-09T16:38:55Z</time>
      </trkpt>
      <trkpt lat="44.56667" lon="4.17268">
        <ele>488</ele>
        <time>2022-06-09T16:38:59Z</time>
      </trkpt>
      <trkpt lat="44.5664" lon="4.1728">
        <ele>495</ele>
        <time>2022-06-09T16:39:05Z</time>
      </trkpt>
      <trkpt lat="44.56608" lon="4.17307">
        <ele>500</ele>
        <time>2022-06-09T16:39:14Z</time>
      </trkpt>
      <trkpt lat="44.56587" lon="4.17337">
        <ele>500</ele>
        <time>2022-06-09T16:39:21Z</time>
      </trkpt>
      <trkpt lat="44.56573" lon="4.17348">
        <ele>502</ele>
        <time>2022-06-09T16:39:25Z</time>
      </trkpt>
      <trkpt lat="44.56554" lon="4.1736">
        <ele>505</ele>
        <time>2022-06-09T16:39:30Z</time>
      </trkpt>
      <trkpt lat="44.56541" lon="4.17363">
        <ele>508</ele>
        <time>2022-06-09T16:39:33Z</time>
      </trkpt>
      <trkpt lat="44.56522" lon="4.17381">
        <ele>508</ele>
        <time>2022-06-09T16:39:38Z</time>
      </trkpt>
      <trkpt lat="44.56509" lon="4.17389">
        <ele>508</ele>
        <time>2022-06-09T16:39:42Z</time>
      </trkpt>
      <trkpt lat="44.56485" lon="4.17396">
        <ele>508</ele>
        <time>2022-06-09T16:39:47Z</time>
      </trkpt>
      <trkpt lat="44.56472" lon="4.17389">
        <ele>509</ele>
        <time>2022-06-09T16:39:51Z</time>
      </trkpt>
      <trkpt lat="44.56453" lon="4.17387">
        <ele>509</ele>
        <time>2022-06-09T16:39:55Z</time>
      </trkpt>
      <trkpt lat="44.56399" lon="4.17349">
        <ele>520</ele>
        <time>2022-06-09T16:40:09Z</time>
      </trkpt>
      <trkpt lat="44.56358" lon="4.17329">
        <ele>526</ele>
        <time>2022-06-09T16:40:19Z</time>
      </trkpt>
      <trkpt lat="44.56339" lon="4.17325">
        <ele>528</ele>
        <time>2022-06-09T16:40:24Z</time>
      </trkpt>
      <trkpt lat="44.56322" lon="4.17329">
        <ele>530</ele>
        <time>2022-06-09T16:40:28Z</time>
      </trkpt>
      <trkpt lat="44.5632" lon="4.17347">
        <ele>528</ele>
        <time>2022-06-09T16:40:31Z</time>
      </trkpt>
      <trkpt lat="44.56316" lon="4.17359">
        <ele>529</ele>
        <time>2022-06-09T16:40:33Z</time>
      </trkpt>
      <trkpt lat="44.56327" lon="4.17461">
        <ele>523</ele>
        <time>2022-06-09T16:40:50Z</time>
      </trkpt>
      <trkpt lat="44.5632" lon="4.17504">
        <ele>528</ele>
        <time>2022-06-09T16:40:57Z</time>
      </trkpt>
      <trkpt lat="44.5631" lon="4.17523">
        <ele>532</ele>
        <time>2022-06-09T16:41:01Z</time>
      </trkpt>
      <trkpt lat="44.56279" lon="4.17551">
        <ele>547</ele>
        <time>2022-06-09T16:41:10Z</time>
      </trkpt>
      <trkpt lat="44.56266" lon="4.17566">
        <ele>554</ele>
        <time>2022-06-09T16:41:14Z</time>
      </trkpt>
      <trkpt lat="44.56279" lon="4.17611">
        <ele>547</ele>
        <time>2022-06-09T16:41:22Z</time>
      </trkpt>
      <trkpt lat="44.56277" lon="4.1765">
        <ele>550</ele>
        <time>2022-06-09T16:41:29Z</time>
      </trkpt>
      <trkpt lat="44.56267" lon="4.17709">
        <ele>553</ele>
        <time>2022-06-09T16:41:39Z</time>
      </trkpt>
      <trkpt lat="44.56269" lon="4.1773">
        <ele>550</ele>
        <time>2022-06-09T16:41:42Z</time>
      </trkpt>
      <trkpt lat="44.56267" lon="4.17738">
        <ele>550</ele>
        <time>2022-06-09T16:41:44Z</time>
      </trkpt>
      <trkpt lat="44.56257" lon="4.1776">
        <ele>552</ele>
        <time>2022-06-09T16:41:48Z</time>
      </trkpt>
      <trkpt lat="44.56233" lon="4.17791">
        <ele>557</ele>
        <time>2022-06-09T16:41:55Z</time>
      </trkpt>
      <trkpt lat="44.56224" lon="4.17822">
        <ele>554</ele>
        <time>2022-06-09T16:42:01Z</time>
      </trkpt>
      <trkpt lat="44.56223" lon="4.17836">
        <ele>552</ele>
        <time>2022-06-09T16:42:03Z</time>
      </trkpt>
      <trkpt lat="44.56204" lon="4.17874">
        <ele>553</ele>
        <time>2022-06-09T16:42:11Z</time>
      </trkpt>
      <trkpt lat="44.56173" lon="4.17918">
        <ele>558</ele>
        <time>2022-06-09T16:42:21Z</time>
      </trkpt>
      <trkpt lat="44.56144" lon="4.17984">
        <ele>557</ele>
        <time>2022-06-09T16:42:34Z</time>
      </trkpt>
      <trkpt lat="44.5612" lon="4.18019">
        <ele>559</ele>
        <time>2022-06-09T16:42:42Z</time>
      </trkpt>
      <trkpt lat="44.56092" lon="4.18051">
        <ele>562</ele>
        <time>2022-06-09T16:42:51Z</time>
      </trkpt>
      <trkpt lat="44.56063" lon="4.1806">
        <ele>561</ele>
        <time>2022-06-09T16:42:58Z</time>
      </trkpt>
      <trkpt lat="44.56046" lon="4.18056">
        <ele>559</ele>
        <time>2022-06-09T16:43:02Z</time>
      </trkpt>
      <trkpt lat="44.56034" lon="4.18045">
        <ele>560</ele>
        <time>2022-06-09T16:43:05Z</time>
      </trkpt>
      <trkpt lat="44.56009" lon="4.18028">
        <ele>562</ele>
        <time>2022-06-09T16:43:12Z</time>
      </trkpt>
      <trkpt lat="44.55992" lon="4.18012">
        <ele>563</ele>
        <time>2022-06-09T16:43:16Z</time>
      </trkpt>
      <trkpt lat="44.55972" lon="4.17988">
        <ele>565</ele>
        <time>2022-06-09T16:43:23Z</time>
      </trkpt>
      <trkpt lat="44.55954" lon="4.17959">
        <ele>567</ele>
        <time>2022-06-09T16:43:29Z</time>
      </trkpt>
      <trkpt lat="44.55932" lon="4.17935">
        <ele>567</ele>
        <time>2022-06-09T16:43:35Z</time>
      </trkpt>
      <trkpt lat="44.55934" lon="4.17934">
        <ele>568</ele>
        <time>2022-06-09T16:43:36Z</time>
      </trkpt>
      <trkpt lat="44.55933" lon="4.17932">
        <ele>568</ele>
        <time>2022-06-09T16:43:36Z</time>
      </trkpt>
      <trkpt lat="44.55923" lon="4.17927">
        <ele>566</ele>
        <time>2022-06-09T16:43:39Z</time>
      </trkpt>
      <trkpt lat="44.55919" lon="4.17932">
        <ele>564</ele>
        <time>2022-06-09T16:43:40Z</time>
      </trkpt>
      <trkpt lat="44.55919" lon="4.17947">
        <ele>560</ele>
        <time>2022-06-09T16:43:43Z</time>
      </trkpt>
      <trkpt lat="44.55913" lon="4.17976">
        <ele>554</ele>
        <time>2022-06-09T16:43:48Z</time>
      </trkpt>
      <trkpt lat="44.55902" lon="4.17992">
        <ele>554</ele>
        <time>2022-06-09T16:43:51Z</time>
      </trkpt>
      <trkpt lat="44.55897" lon="4.1805">
        <ele>548</ele>
        <time>2022-06-09T16:44:01Z</time>
      </trkpt>
      <trkpt lat="44.55889" lon="4.18069">
        <ele>549</ele>
        <time>2022-06-09T16:44:05Z</time>
      </trkpt>
      <trkpt lat="44.55883" lon="4.18075">
        <ele>550</ele>
        <time>2022-06-09T16:44:06Z</time>
      </trkpt>
      <trkpt lat="44.55863" lon="4.18141">
        <ele>549</ele>
        <time>2022-06-09T16:44:18Z</time>
      </trkpt>
      <trkpt lat="44.5586" lon="4.18167">
        <ele>546</ele>
        <time>2022-06-09T16:44:23Z</time>
      </trkpt>
      <trkpt lat="44.55847" lon="4.18203">
        <ele>545</ele>
        <time>2022-06-09T16:44:29Z</time>
      </trkpt>
      <trkpt lat="44.55834" lon="4.18224">
        <ele>546</ele>
        <time>2022-06-09T16:44:34Z</time>
      </trkpt>
      <trkpt lat="44.5583" lon="4.18238">
        <ele>544</ele>
        <time>2022-06-09T16:44:37Z</time>
      </trkpt>
      <trkpt lat="44.55774" lon="4.18299">
        <ele>540</ele>
        <time>2022-06-09T16:44:53Z</time>
      </trkpt>
      <trkpt lat="44.55755" lon="4.18296">
        <ele>542</ele>
        <time>2022-06-09T16:44:58Z</time>
      </trkpt>
      <trkpt lat="44.55718" lon="4.18267">
        <ele>537</ele>
        <time>2022-06-09T16:45:08Z</time>
      </trkpt>
      <trkpt lat="44.55701" lon="4.18238">
        <ele>537</ele>
        <time>2022-06-09T16:45:14Z</time>
      </trkpt>
      <trkpt lat="44.55678" lon="4.18212">
        <ele>533</ele>
        <time>2022-06-09T16:45:21Z</time>
      </trkpt>
      <trkpt lat="44.55667" lon="4.18194">
        <ele>532</ele>
        <time>2022-06-09T16:45:25Z</time>
      </trkpt>
      <trkpt lat="44.55659" lon="4.18159">
        <ele>534</ele>
        <time>2022-06-09T16:45:31Z</time>
      </trkpt>
      <trkpt lat="44.55658" lon="4.18116">
        <ele>543</ele>
        <time>2022-06-09T16:45:38Z</time>
      </trkpt>
      <trkpt lat="44.55631" lon="4.18084">
        <ele>537</ele>
        <time>2022-06-09T16:45:46Z</time>
      </trkpt>
      <trkpt lat="44.55594" lon="4.18054">
        <ele>526</ele>
        <time>2022-06-09T16:45:56Z</time>
      </trkpt>
      <trkpt lat="44.55575" lon="4.18">
        <ele>529</ele>
        <time>2022-06-09T16:46:06Z</time>
      </trkpt>
      <trkpt lat="44.5557" lon="4.17965">
        <ele>531</ele>
        <time>2022-06-09T16:46:12Z</time>
      </trkpt>
      <trkpt lat="44.5557" lon="4.17946">
        <ele>534</ele>
        <time>2022-06-09T16:46:15Z</time>
      </trkpt>
      <trkpt lat="44.55567" lon="4.17938">
        <ele>534</ele>
        <time>2022-06-09T16:46:17Z</time>
      </trkpt>
      <trkpt lat="44.55562" lon="4.17945">
        <ele>530</ele>
        <time>2022-06-09T16:46:18Z</time>
      </trkpt>
      <trkpt lat="44.55562" lon="4.1795">
        <ele>529</ele>
        <time>2022-06-09T16:46:19Z</time>
      </trkpt>
      <trkpt lat="44.5556" lon="4.17938">
        <ele>530</ele>
        <time>2022-06-09T16:46:21Z</time>
      </trkpt>
      <trkpt lat="44.5556" lon="4.17941">
        <ele>530</ele>
        <time>2022-06-09T16:46:22Z</time>
      </trkpt>
      <trkpt lat="44.55552" lon="4.17923">
        <ele>528</ele>
        <time>2022-06-09T16:46:25Z</time>
      </trkpt>
      <trkpt lat="44.55531" lon="4.17894">
        <ele>522</ele>
        <time>2022-06-09T16:46:32Z</time>
      </trkpt>
      <trkpt lat="44.55516" lon="4.17837">
        <ele>521</ele>
        <time>2022-06-09T16:46:42Z</time>
      </trkpt>
      <trkpt lat="44.55518" lon="4.17791">
        <ele>526</ele>
        <time>2022-06-09T16:46:50Z</time>
      </trkpt>
      <trkpt lat="44.55515" lon="4.17724">
        <ele>528</ele>
        <time>2022-06-09T16:47:01Z</time>
      </trkpt>
      <trkpt lat="44.55516" lon="4.17665">
        <ele>533</ele>
        <time>2022-06-09T16:47:11Z</time>
      </trkpt>
      <trkpt lat="44.55514" lon="4.17609">
        <ele>532</ele>
        <time>2022-06-09T16:47:20Z</time>
      </trkpt>
      <trkpt lat="44.55522" lon="4.17572">
        <ele>537</ele>
        <time>2022-06-09T16:47:27Z</time>
      </trkpt>
      <trkpt lat="44.55519" lon="4.17565">
        <ele>535</ele>
        <time>2022-06-09T16:47:28Z</time>
      </trkpt>
      <trkpt lat="44.55521" lon="4.17582">
        <ele>536</ele>
        <time>2022-06-09T16:47:31Z</time>
      </trkpt>
      <trkpt lat="44.55514" lon="4.17603">
        <ele>532</ele>
        <time>2022-06-09T16:47:35Z</time>
      </trkpt>
      <trkpt lat="44.5551" lon="4.17636">
        <ele>529</ele>
        <time>2022-06-09T16:47:40Z</time>
      </trkpt>
      <trkpt lat="44.55516" lon="4.1768">
        <ele>532</ele>
        <time>2022-06-09T16:47:48Z</time>
      </trkpt>
      <trkpt lat="44.55513" lon="4.17717">
        <ele>527</ele>
        <time>2022-06-09T16:47:54Z</time>
      </trkpt>
      <trkpt lat="44.55511" lon="4.17714">
        <ele>526</ele>
        <time>2022-06-09T16:47:55Z</time>
      </trkpt>
      <trkpt lat="44.55515" lon="4.17716">
        <ele>529</ele>
        <time>2022-06-09T16:47:56Z</time>
      </trkpt>
      <trkpt lat="44.55512" lon="4.17713">
        <ele>527</ele>
        <time>2022-06-09T16:47:57Z</time>
      </trkpt>
      <trkpt lat="44.55514" lon="4.17716">
        <ele>528</ele>
        <time>2022-06-09T16:47:57Z</time>
      </trkpt>
      <trkpt lat="44.55514" lon="4.17728">
        <ele>527</ele>
        <time>2022-06-09T16:47:59Z</time>
      </trkpt>
      <trkpt lat="44.55516" lon="4.17728">
        <ele>529</ele>
        <time>2022-06-09T16:48:00Z</time>
      </trkpt>
      <trkpt lat="44.55518" lon="4.17752">
        <ele>528</ele>
        <time>2022-06-09T16:48:04Z</time>
      </trkpt>
      <trkpt lat="44.55515" lon="4.17836">
        <ele>521</ele>
        <time>2022-06-09T16:48:18Z</time>
      </trkpt>
      <trkpt lat="44.55511" lon="4.17826">
        <ele>520</ele>
        <time>2022-06-09T16:48:20Z</time>
      </trkpt>
      <trkpt lat="44.55504" lon="4.17774">
        <ele>518</ele>
        <time>2022-06-09T16:48:28Z</time>
      </trkpt>
      <trkpt lat="44.55486" lon="4.17697">
        <ele>514</ele>
        <time>2022-06-09T16:48:42Z</time>
      </trkpt>
      <trkpt lat="44.55472" lon="4.17667">
        <ele>509</ele>
        <time>2022-06-09T16:48:48Z</time>
      </trkpt>
      <trkpt lat="44.5545" lon="4.1763">
        <ele>500</ele>
        <time>2022-06-09T16:48:56Z</time>
      </trkpt>
      <trkpt lat="44.55438" lon="4.17593">
        <ele>496</ele>
        <time>2022-06-09T16:49:03Z</time>
      </trkpt>
      <trkpt lat="44.55438" lon="4.17523">
        <ele>504</ele>
        <time>2022-06-09T16:49:14Z</time>
      </trkpt>
      <trkpt lat="44.55435" lon="4.17484">
        <ele>509</ele>
        <time>2022-06-09T16:49:21Z</time>
      </trkpt>
      <trkpt lat="44.55429" lon="4.17483">
        <ele>507</ele>
        <time>2022-06-09T16:49:22Z</time>
      </trkpt>
      <trkpt lat="44.55415" lon="4.17496">
        <ele>502</ele>
        <time>2022-06-09T16:49:26Z</time>
      </trkpt>
      <trkpt lat="44.554" lon="4.17515">
        <ele>503</ele>
        <time>2022-06-09T16:49:31Z</time>
      </trkpt>
      <trkpt lat="44.5539" lon="4.17521">
        <ele>504</ele>
        <time>2022-06-09T16:49:33Z</time>
      </trkpt>
      <trkpt lat="44.55389" lon="4.17532">
        <ele>502</ele>
        <time>2022-06-09T16:49:35Z</time>
      </trkpt>
      <trkpt lat="44.55383" lon="4.17543">
        <ele>502</ele>
        <time>2022-06-09T16:49:38Z</time>
      </trkpt>
      <trkpt lat="44.55349" lon="4.17558">
        <ele>507</ele>
        <time>2022-06-09T16:49:46Z</time>
      </trkpt>
      <trkpt lat="44.55339" lon="4.1755">
        <ele>511</ele>
        <time>2022-06-09T16:49:49Z</time>
      </trkpt>
      <trkpt lat="44.5533" lon="4.17536">
        <ele>516</ele>
        <time>2022-06-09T16:49:52Z</time>
      </trkpt>
      <trkpt lat="44.55323" lon="4.17545">
        <ele>516</ele>
        <time>2022-06-09T16:49:54Z</time>
      </trkpt>
      <trkpt lat="44.55314" lon="4.17551">
        <ele>519</ele>
        <time>2022-06-09T16:49:56Z</time>
      </trkpt>
      <trkpt lat="44.55308" lon="4.17562">
        <ele>519</ele>
        <time>2022-06-09T16:49:59Z</time>
      </trkpt>
      <trkpt lat="44.55304" lon="4.17578">
        <ele>518</ele>
        <time>2022-06-09T16:50:01Z</time>
      </trkpt>
      <trkpt lat="44.553" lon="4.17608">
        <ele>518</ele>
        <time>2022-06-09T16:50:07Z</time>
      </trkpt>
      <trkpt lat="44.55308" lon="4.17638">
        <ele>514</ele>
        <time>2022-06-09T16:50:12Z</time>
      </trkpt>
      <trkpt lat="44.55305" lon="4.17645">
        <ele>515</ele>
        <time>2022-06-09T16:50:13Z</time>
      </trkpt>
      <trkpt lat="44.55295" lon="4.17647">
        <ele>517</ele>
        <time>2022-06-09T16:50:16Z</time>
      </trkpt>
      <trkpt lat="44.55285" lon="4.17642">
        <ele>520</ele>
        <time>2022-06-09T16:50:18Z</time>
      </trkpt>
      <trkpt lat="44.55274" lon="4.17621">
        <ele>526</ele>
        <time>2022-06-09T16:50:22Z</time>
      </trkpt>
      <trkpt lat="44.55267" lon="4.17589">
        <ele>532</ele>
        <time>2022-06-09T16:50:28Z</time>
      </trkpt>
      <trkpt lat="44.55259" lon="4.17586">
        <ele>535</ele>
        <time>2022-06-09T16:50:30Z</time>
      </trkpt>
      <trkpt lat="44.55249" lon="4.17596">
        <ele>537</ele>
        <time>2022-06-09T16:50:33Z</time>
      </trkpt>
      <trkpt lat="44.55226" lon="4.17603">
        <ele>543</ele>
        <time>2022-06-09T16:50:38Z</time>
      </trkpt>
      <trkpt lat="44.55173" lon="4.17649">
        <ele>547</ele>
        <time>2022-06-09T16:50:53Z</time>
      </trkpt>
      <trkpt lat="44.55149" lon="4.17678">
        <ele>548</ele>
        <time>2022-06-09T16:51:00Z</time>
      </trkpt>
      <trkpt lat="44.5515" lon="4.17681">
        <ele>547</ele>
        <time>2022-06-09T16:51:01Z</time>
      </trkpt>
      <trkpt lat="44.55149" lon="4.17676">
        <ele>549</ele>
        <time>2022-06-09T16:51:02Z</time>
      </trkpt>
      <trkpt lat="44.55148" lon="4.17679">
        <ele>548</ele>
        <time>2022-06-09T16:51:02Z</time>
      </trkpt>
      <trkpt lat="44.55144" lon="4.17675">
        <ele>551</ele>
        <time>2022-06-09T16:51:03Z</time>
      </trkpt>
      <trkpt lat="44.5515" lon="4.17682">
        <ele>547</ele>
        <time>2022-06-09T16:51:05Z</time>
      </trkpt>
      <trkpt lat="44.55146" lon="4.17681">
        <ele>548</ele>
        <time>2022-06-09T16:51:06Z</time>
      </trkpt>
      <trkpt lat="44.55149" lon="4.17681">
        <ele>547</ele>
        <time>2022-06-09T16:51:07Z</time>
      </trkpt>
      <trkpt lat="44.55149" lon="4.17679">
        <ele>548</ele>
        <time>2022-06-09T16:51:07Z</time>
      </trkpt>
      <trkpt lat="44.55124" lon="4.177">
        <ele>552</ele>
        <time>2022-06-09T16:51:14Z</time>
      </trkpt>
      <trkpt lat="44.55089" lon="4.17722">
        <ele>557</ele>
        <time>2022-06-09T16:51:23Z</time>
      </trkpt>
      <trkpt lat="44.55072" lon="4.17749">
        <ele>556</ele>
        <time>2022-06-09T16:51:29Z</time>
      </trkpt>
      <trkpt lat="44.55056" lon="4.1779">
        <ele>554</ele>
        <time>2022-06-09T16:51:37Z</time>
      </trkpt>
      <trkpt lat="44.55036" lon="4.17825">
        <ele>555</ele>
        <time>2022-06-09T16:51:44Z</time>
      </trkpt>
      <trkpt lat="44.55014" lon="4.17856">
        <ele>559</ele>
        <time>2022-06-09T16:51:51Z</time>
      </trkpt>
      <trkpt lat="44.54995" lon="4.17877">
        <ele>563</ele>
        <time>2022-06-09T16:51:57Z</time>
      </trkpt>
      <trkpt lat="44.5498" lon="4.17901">
        <ele>563</ele>
        <time>2022-06-09T16:52:02Z</time>
      </trkpt>
      <trkpt lat="44.54971" lon="4.17923">
        <ele>562</ele>
        <time>2022-06-09T16:52:07Z</time>
      </trkpt>
      <trkpt lat="44.54954" lon="4.17936">
        <ele>564</ele>
        <time>2022-06-09T16:52:11Z</time>
      </trkpt>
      <trkpt lat="44.54936" lon="4.17937">
        <ele>569</ele>
        <time>2022-06-09T16:52:15Z</time>
      </trkpt>
      <trkpt lat="44.54914" lon="4.1793">
        <ele>576</ele>
        <time>2022-06-09T16:52:21Z</time>
      </trkpt>
      <trkpt lat="44.54891" lon="4.17915">
        <ele>577</ele>
        <time>2022-06-09T16:52:26Z</time>
      </trkpt>
      <trkpt lat="44.54892" lon="4.17913">
        <ele>577</ele>
        <time>2022-06-09T16:52:27Z</time>
      </trkpt>
      <trkpt lat="44.549" lon="4.17912">
        <ele>578</ele>
        <time>2022-06-09T16:52:29Z</time>
      </trkpt>
      <trkpt lat="44.54901" lon="4.17907">
        <ele>579</ele>
        <time>2022-06-09T16:52:30Z</time>
      </trkpt>
      <trkpt lat="44.549" lon="4.17913">
        <ele>578</ele>
        <time>2022-06-09T16:52:31Z</time>
      </trkpt>
      <trkpt lat="44.54904" lon="4.17906">
        <ele>579</ele>
        <time>2022-06-09T16:52:32Z</time>
      </trkpt>
      <trkpt lat="44.54903" lon="4.17902">
        <ele>579</ele>
        <time>2022-06-09T16:52:33Z</time>
      </trkpt>
      <trkpt lat="44.54905" lon="4.17907">
        <ele>579</ele>
        <time>2022-06-09T16:52:34Z</time>
      </trkpt>
      <trkpt lat="44.54901" lon="4.17912">
        <ele>578</ele>
        <time>2022-06-09T16:52:35Z</time>
      </trkpt>
      <trkpt lat="44.54903" lon="4.17909">
        <ele>579</ele>
        <time>2022-06-09T16:52:36Z</time>
      </trkpt>
      <trkpt lat="44.54899" lon="4.17905">
        <ele>579</ele>
        <time>2022-06-09T16:52:37Z</time>
      </trkpt>
      <trkpt lat="44.54919" lon="4.17903">
        <ele>580</ele>
        <time>2022-06-09T16:52:42Z</time>
      </trkpt>
      <trkpt lat="44.54936" lon="4.17863">
        <ele>581</ele>
        <time>2022-06-09T16:52:49Z</time>
      </trkpt>
      <trkpt lat="44.54945" lon="4.1785">
        <ele>581</ele>
        <time>2022-06-09T16:52:52Z</time>
      </trkpt>
      <trkpt lat="44.54959" lon="4.17811">
        <ele>584</ele>
        <time>2022-06-09T16:53:00Z</time>
      </trkpt>
      <trkpt lat="44.54963" lon="4.17806">
        <ele>584</ele>
        <time>2022-06-09T16:53:01Z</time>
      </trkpt>
      <trkpt lat="44.54982" lon="4.1773">
        <ele>593</ele>
        <time>2022-06-09T16:53:14Z</time>
      </trkpt>
      <trkpt lat="44.54993" lon="4.17711">
        <ele>595</ele>
        <time>2022-06-09T16:53:18Z</time>
      </trkpt>
      <trkpt lat="44.54992" lon="4.17688">
        <ele>598</ele>
        <time>2022-06-09T16:53:22Z</time>
      </trkpt>
      <trkpt lat="44.54987" lon="4.17675">
        <ele>600</ele>
        <time>2022-06-09T16:53:25Z</time>
      </trkpt>
      <trkpt lat="44.54984" lon="4.17626">
        <ele>602</ele>
        <time>2022-06-09T16:53:33Z</time>
      </trkpt>
      <trkpt lat="44.5499" lon="4.176">
        <ele>604</ele>
        <time>2022-06-09T16:53:37Z</time>
      </trkpt>
      <trkpt lat="44.54988" lon="4.17586">
        <ele>605</ele>
        <time>2022-06-09T16:53:40Z</time>
      </trkpt>
      <trkpt lat="44.54984" lon="4.17577">
        <ele>605</ele>
        <time>2022-06-09T16:53:42Z</time>
      </trkpt>
      <trkpt lat="44.54986" lon="4.17567">
        <ele>606</ele>
        <time>2022-06-09T16:53:43Z</time>
      </trkpt>
      <trkpt lat="44.54996" lon="4.17551">
        <ele>609</ele>
        <time>2022-06-09T16:53:47Z</time>
      </trkpt>
      <trkpt lat="44.55" lon="4.17529">
        <ele>612</ele>
        <time>2022-06-09T16:53:51Z</time>
      </trkpt>
      <trkpt lat="44.55004" lon="4.17525">
        <ele>612</ele>
        <time>2022-06-09T16:53:52Z</time>
      </trkpt>
      <trkpt lat="44.55005" lon="4.17504">
        <ele>614</ele>
        <time>2022-06-09T16:53:55Z</time>
      </trkpt>
      <trkpt lat="44.5502" lon="4.17482">
        <ele>617</ele>
        <time>2022-06-09T16:54:00Z</time>
      </trkpt>
      <trkpt lat="44.55016" lon="4.17461">
        <ele>619</ele>
        <time>2022-06-09T16:54:04Z</time>
      </trkpt>
      <trkpt lat="44.55024" lon="4.17449">
        <ele>621</ele>
        <time>2022-06-09T16:54:07Z</time>
      </trkpt>
      <trkpt lat="44.55022" lon="4.17449">
        <ele>621</ele>
        <time>2022-06-09T16:54:07Z</time>
      </trkpt>
      <trkpt lat="44.55022" lon="4.17446">
        <ele>621</ele>
        <time>2022-06-09T16:54:08Z</time>
      </trkpt>
      <trkpt lat="44.55027" lon="4.17437">
        <ele>622</ele>
        <time>2022-06-09T16:54:09Z</time>
      </trkpt>
      <trkpt lat="44.55032" lon="4.17412">
        <ele>626</ele>
        <time>2022-06-09T16:54:14Z</time>
      </trkpt>
      <trkpt lat="44.55033" lon="4.17393">
        <ele>628</ele>
        <time>2022-06-09T16:54:17Z</time>
      </trkpt>
      <trkpt lat="44.55042" lon="4.17369">
        <ele>633</ele>
        <time>2022-06-09T16:54:21Z</time>
      </trkpt>
      <trkpt lat="44.5504" lon="4.17362">
        <ele>634</ele>
        <time>2022-06-09T16:54:23Z</time>
      </trkpt>
      <trkpt lat="44.55041" lon="4.1735">
        <ele>635</ele>
        <time>2022-06-09T16:54:25Z</time>
      </trkpt>
      <trkpt lat="44.55056" lon="4.17298">
        <ele>646</ele>
        <time>2022-06-09T16:54:34Z</time>
      </trkpt>
      <trkpt lat="44.55052" lon="4.17258">
        <ele>652</ele>
        <time>2022-06-09T16:54:41Z</time>
      </trkpt>
      <trkpt lat="44.55053" lon="4.17234">
        <ele>657</ele>
        <time>2022-06-09T16:54:45Z</time>
      </trkpt>
      <trkpt lat="44.55047" lon="4.17203">
        <ele>663</ele>
        <time>2022-06-09T16:54:50Z</time>
      </trkpt>
      <trkpt lat="44.55048" lon="4.1719">
        <ele>666</ele>
        <time>2022-06-09T16:54:52Z</time>
      </trkpt>
      <trkpt lat="44.55053" lon="4.17188">
        <ele>668</ele>
        <time>2022-06-09T16:54:54Z</time>
      </trkpt>
      <trkpt lat="44.55063" lon="4.172">
        <ele>668</ele>
        <time>2022-06-09T16:54:57Z</time>
      </trkpt>
      <trkpt lat="44.55068" lon="4.17183">
        <ele>673</ele>
        <time>2022-06-09T16:55:00Z</time>
      </trkpt>
      <trkpt lat="44.55082" lon="4.17193">
        <ele>675</ele>
        <time>2022-06-09T16:55:03Z</time>
      </trkpt>
      <trkpt lat="44.55088" lon="4.1719">
        <ele>675</ele>
        <time>2022-06-09T16:55:05Z</time>
      </trkpt>
      <trkpt lat="44.55084" lon="4.17148">
        <ele>684</ele>
        <time>2022-06-09T16:55:12Z</time>
      </trkpt>
      <trkpt lat="44.5507" lon="4.17107">
        <ele>685</ele>
        <time>2022-06-09T16:55:19Z</time>
      </trkpt>
      <trkpt lat="44.55072" lon="4.17083">
        <ele>688</ele>
        <time>2022-06-09T16:55:23Z</time>
      </trkpt>
      <trkpt lat="44.5508" lon="4.17064">
        <ele>693</ele>
        <time>2022-06-09T16:55:27Z</time>
      </trkpt>
      <trkpt lat="44.55096" lon="4.17049">
        <ele>696</ele>
        <time>2022-06-09T16:55:32Z</time>
      </trkpt>
      <trkpt lat="44.55104" lon="4.17045">
        <ele>695</ele>
        <time>2022-06-09T16:55:34Z</time>
      </trkpt>
      <trkpt lat="44.5512" lon="4.17043">
        <ele>694</ele>
        <time>2022-06-09T16:55:37Z</time>
      </trkpt>
      <trkpt lat="44.55127" lon="4.17032">
        <ele>696</ele>
        <time>2022-06-09T16:55:40Z</time>
      </trkpt>
      <trkpt lat="44.55137" lon="4.17025">
        <ele>696</ele>
        <time>2022-06-09T16:55:42Z</time>
      </trkpt>
      <trkpt lat="44.55151" lon="4.17008">
        <ele>698</ele>
        <time>2022-06-09T16:55:47Z</time>
      </trkpt>
      <trkpt lat="44.55157" lon="4.16994">
        <ele>700</ele>
        <time>2022-06-09T16:55:49Z</time>
      </trkpt>
      <trkpt lat="44.55166" lon="4.16958">
        <ele>703</ele>
        <time>2022-06-09T16:55:56Z</time>
      </trkpt>
      <trkpt lat="44.55177" lon="4.16868">
        <ele>713</ele>
        <time>2022-06-09T16:56:11Z</time>
      </trkpt>
      <trkpt lat="44.55201" lon="4.16798">
        <ele>716</ele>
        <time>2022-06-09T16:56:24Z</time>
      </trkpt>
      <trkpt lat="44.55203" lon="4.16767">
        <ele>719</ele>
        <time>2022-06-09T16:56:29Z</time>
      </trkpt>
      <trkpt lat="44.552" lon="4.16752">
        <ele>722</ele>
        <time>2022-06-09T16:56:32Z</time>
      </trkpt>
      <trkpt lat="44.55199" lon="4.16722">
        <ele>727</ele>
        <time>2022-06-09T16:56:37Z</time>
      </trkpt>
      <trkpt lat="44.55204" lon="4.16661">
        <ele>734</ele>
        <time>2022-06-09T16:56:47Z</time>
      </trkpt>
      <trkpt lat="44.55212" lon="4.16625">
        <ele>741</ele>
        <time>2022-06-09T16:56:53Z</time>
      </trkpt>
      <trkpt lat="44.55222" lon="4.16601">
        <ele>744</ele>
        <time>2022-06-09T16:56:58Z</time>
      </trkpt>
      <trkpt lat="44.55248" lon="4.16583">
        <ele>742</ele>
        <time>2022-06-09T16:57:05Z</time>
      </trkpt>
      <trkpt lat="44.55274" lon="4.16551">
        <ele>750</ele>
        <time>2022-06-09T16:57:13Z</time>
      </trkpt>
      <trkpt lat="44.55294" lon="4.16537">
        <ele>754</ele>
        <time>2022-06-09T16:57:18Z</time>
      </trkpt>
      <trkpt lat="44.55301" lon="4.16537">
        <ele>753</ele>
        <time>2022-06-09T16:57:20Z</time>
      </trkpt>
      <trkpt lat="44.55308" lon="4.16542">
        <ele>751</ele>
        <time>2022-06-09T16:57:21Z</time>
      </trkpt>
      <trkpt lat="44.55319" lon="4.16541">
        <ele>750</ele>
        <time>2022-06-09T16:57:24Z</time>
      </trkpt>
      <trkpt lat="44.55363" lon="4.16521">
        <ele>756</ele>
        <time>2022-06-09T16:57:35Z</time>
      </trkpt>
      <trkpt lat="44.55372" lon="4.1651">
        <ele>760</ele>
        <time>2022-06-09T16:57:38Z</time>
      </trkpt>
      <trkpt lat="44.55399" lon="4.16501">
        <ele>763</ele>
        <time>2022-06-09T16:57:44Z</time>
      </trkpt>
      <trkpt lat="44.55398" lon="4.16494">
        <ele>765</ele>
        <time>2022-06-09T16:57:45Z</time>
      </trkpt>
      <trkpt lat="44.55391" lon="4.16485">
        <ele>766</ele>
        <time>2022-06-09T16:57:47Z</time>
      </trkpt>
      <trkpt lat="44.55383" lon="4.16478">
        <ele>767</ele>
        <time>2022-06-09T16:57:50Z</time>
      </trkpt>
      <trkpt lat="44.55371" lon="4.16475">
        <ele>768</ele>
        <time>2022-06-09T16:57:52Z</time>
      </trkpt>
      <trkpt lat="44.55368" lon="4.1647">
        <ele>768</ele>
        <time>2022-06-09T16:57:54Z</time>
      </trkpt>
      <trkpt lat="44.55374" lon="4.16458">
        <ele>770</ele>
        <time>2022-06-09T16:57:56Z</time>
      </trkpt>
      <trkpt lat="44.55375" lon="4.16442">
        <ele>773</ele>
        <time>2022-06-09T16:57:59Z</time>
      </trkpt>
      <trkpt lat="44.5539" lon="4.16435">
        <ele>775</ele>
        <time>2022-06-09T16:58:02Z</time>
      </trkpt>
      <trkpt lat="44.5539" lon="4.16438">
        <ele>774</ele>
        <time>2022-06-09T16:58:03Z</time>
      </trkpt>
      <trkpt lat="44.55386" lon="4.1644">
        <ele>774</ele>
        <time>2022-06-09T16:58:04Z</time>
      </trkpt>
      <trkpt lat="44.55386" lon="4.1643">
        <ele>775</ele>
        <time>2022-06-09T16:58:06Z</time>
      </trkpt>
      <trkpt lat="44.55386" lon="4.16433">
        <ele>775</ele>
        <time>2022-06-09T16:58:06Z</time>
      </trkpt>
      <trkpt lat="44.55389" lon="4.16432">
        <ele>775</ele>
        <time>2022-06-09T16:58:07Z</time>
      </trkpt>
      <trkpt lat="44.55389" lon="4.16428">
        <ele>776</ele>
        <time>2022-06-09T16:58:07Z</time>
      </trkpt>
      <trkpt lat="44.55388" lon="4.16434">
        <ele>775</ele>
        <time>2022-06-09T16:58:08Z</time>
      </trkpt>
      <trkpt lat="44.55387" lon="4.16431">
        <ele>775</ele>
        <time>2022-06-09T16:58:09Z</time>
      </trkpt>
      <trkpt lat="44.55388" lon="4.16433">
        <ele>775</ele>
        <time>2022-06-09T16:58:09Z</time>
      </trkpt>
      <trkpt lat="44.55381" lon="4.16439">
        <ele>774</ele>
        <time>2022-06-09T16:58:11Z</time>
      </trkpt>
      <trkpt lat="44.55358" lon="4.1644">
        <ele>772</ele>
        <time>2022-06-09T16:58:17Z</time>
      </trkpt>
      <trkpt lat="44.55357" lon="4.16437">
        <ele>772</ele>
        <time>2022-06-09T16:58:17Z</time>
      </trkpt>
      <trkpt lat="44.55358" lon="4.16431">
        <ele>773</ele>
        <time>2022-06-09T16:58:18Z</time>
      </trkpt>
      <trkpt lat="44.55393" lon="4.164">
        <ele>777</ele>
        <time>2022-06-09T16:58:28Z</time>
      </trkpt>
      <trkpt lat="44.55394" lon="4.16395">
        <ele>777</ele>
        <time>2022-06-09T16:58:29Z</time>
      </trkpt>
      <trkpt lat="44.55359" lon="4.16428">
        <ele>773</ele>
        <time>2022-06-09T16:58:39Z</time>
      </trkpt>
      <trkpt lat="44.5534" lon="4.1645">
        <ele>770</ele>
        <time>2022-06-09T16:58:44Z</time>
      </trkpt>
      <trkpt lat="44.55309" lon="4.16463">
        <ele>768</ele>
        <time>2022-06-09T16:58:52Z</time>
      </trkpt>
      <trkpt lat="44.55268" lon="4.16463">
        <ele>768</ele>
        <time>2022-06-09T16:59:02Z</time>
      </trkpt>
      <trkpt lat="44.55262" lon="4.16461">
        <ele>768</ele>
        <time>2022-06-09T16:59:03Z</time>
      </trkpt>
      <trkpt lat="44.55261" lon="4.16458">
        <ele>768</ele>
        <time>2022-06-09T16:59:04Z</time>
      </trkpt>
      <trkpt lat="44.55263" lon="4.1643">
        <ele>767</ele>
        <time>2022-06-09T16:59:08Z</time>
      </trkpt>
      <trkpt lat="44.55303" lon="4.1639">
        <ele>762</ele>
        <time>2022-06-09T16:59:20Z</time>
      </trkpt>
      <trkpt lat="44.5531" lon="4.16377">
        <ele>759</ele>
        <time>2022-06-09T16:59:22Z</time>
      </trkpt>
      <trkpt lat="44.55333" lon="4.16349">
        <ele>755</ele>
        <time>2022-06-09T16:59:29Z</time>
      </trkpt>
      <trkpt lat="44.55343" lon="4.16333">
        <ele>754</ele>
        <time>2022-06-09T16:59:33Z</time>
      </trkpt>
      <trkpt lat="44.55346" lon="4.16333">
        <ele>756</ele>
        <time>2022-06-09T16:59:34Z</time>
      </trkpt>
      <trkpt lat="44.55351" lon="4.16311">
        <ele>754</ele>
        <time>2022-06-09T16:59:38Z</time>
      </trkpt>
      <trkpt lat="44.5535" lon="4.16281">
        <ele>749</ele>
        <time>2022-06-09T16:59:43Z</time>
      </trkpt>
      <trkpt lat="44.55342" lon="4.16258">
        <ele>742</ele>
        <time>2022-06-09T16:59:47Z</time>
      </trkpt>
      <trkpt lat="44.55327" lon="4.1619">
        <ele>727</ele>
        <time>2022-06-09T16:59:59Z</time>
      </trkpt>
      <trkpt lat="44.55318" lon="4.16161">
        <ele>720</ele>
        <time>2022-06-09T17:00:04Z</time>
      </trkpt>
      <trkpt lat="44.55312" lon="4.16151">
        <ele>716</ele>
        <time>2022-06-09T17:00:06Z</time>
      </trkpt>
      <trkpt lat="44.55307" lon="4.16115">
        <ele>709</ele>
        <time>2022-06-09T17:00:12Z</time>
      </trkpt>
      <trkpt lat="44.55299" lon="4.16114">
        <ele>706</ele>
        <time>2022-06-09T17:00:14Z</time>
      </trkpt>
      <trkpt lat="44.55291" lon="4.16098">
        <ele>700</ele>
        <time>2022-06-09T17:00:17Z</time>
      </trkpt>
      <trkpt lat="44.55283" lon="4.16072">
        <ele>693</ele>
        <time>2022-06-09T17:00:22Z</time>
      </trkpt>
      <trkpt lat="44.55284" lon="4.16053">
        <ele>689</ele>
        <time>2022-06-09T17:00:25Z</time>
      </trkpt>
      <trkpt lat="44.55282" lon="4.16044">
        <ele>686</ele>
        <time>2022-06-09T17:00:27Z</time>
      </trkpt>
      <trkpt lat="44.55275" lon="4.16044">
        <ele>684</ele>
        <time>2022-06-09T17:00:28Z</time>
      </trkpt>
      <trkpt lat="44.5527" lon="4.1604">
        <ele>681</ele>
        <time>2022-06-09T17:00:30Z</time>
      </trkpt>
      <trkpt lat="44.55272" lon="4.16027">
        <ele>679</ele>
        <time>2022-06-09T17:00:32Z</time>
      </trkpt>
      <trkpt lat="44.55291" lon="4.16006">
        <ele>679</ele>
        <time>2022-06-09T17:00:38Z</time>
      </trkpt>
      <trkpt lat="44.55293" lon="4.16006">
        <ele>680</ele>
        <time>2022-06-09T17:00:38Z</time>
      </trkpt>
      <trkpt lat="44.55292" lon="4.1601">
        <ele>681</ele>
        <time>2022-06-09T17:00:39Z</time>
      </trkpt>
      <trkpt lat="44.55291" lon="4.16005">
        <ele>679</ele>
        <time>2022-06-09T17:00:40Z</time>
      </trkpt>
      <trkpt lat="44.55299" lon="4.15993">
        <ele>678</ele>
        <time>2022-06-09T17:00:42Z</time>
      </trkpt>
      <trkpt lat="44.55318" lon="4.15975">
        <ele>678</ele>
        <time>2022-06-09T17:00:48Z</time>
      </trkpt>
      <trkpt lat="44.55335" lon="4.15967">
        <ele>681</ele>
        <time>2022-06-09T17:00:52Z</time>
      </trkpt>
      <trkpt lat="44.55349" lon="4.15955">
        <ele>682</ele>
        <time>2022-06-09T17:00:56Z</time>
      </trkpt>
      <trkpt lat="44.55353" lon="4.15945">
        <ele>681</ele>
        <time>2022-06-09T17:00:58Z</time>
      </trkpt>
      <trkpt lat="44.55353" lon="4.15935">
        <ele>679</ele>
        <time>2022-06-09T17:00:59Z</time>
      </trkpt>
      <trkpt lat="44.55346" lon="4.15917">
        <ele>672</ele>
        <time>2022-06-09T17:01:03Z</time>
      </trkpt>
      <trkpt lat="44.55345" lon="4.15883">
        <ele>666</ele>
        <time>2022-06-09T17:01:08Z</time>
      </trkpt>
      <trkpt lat="44.55336" lon="4.15843">
        <ele>656</ele>
        <time>2022-06-09T17:01:15Z</time>
      </trkpt>
      <trkpt lat="44.55326" lon="4.15818">
        <ele>647</ele>
        <time>2022-06-09T17:01:20Z</time>
      </trkpt>
      <trkpt lat="44.55326" lon="4.158">
        <ele>644</ele>
        <time>2022-06-09T17:01:23Z</time>
      </trkpt>
      <trkpt lat="44.55317" lon="4.15805">
        <ele>642</ele>
        <time>2022-06-09T17:01:25Z</time>
      </trkpt>
      <trkpt lat="44.5531" lon="4.15824">
        <ele>643</ele>
        <time>2022-06-09T17:01:29Z</time>
      </trkpt>
      <trkpt lat="44.55307" lon="4.15821">
        <ele>642</ele>
        <time>2022-06-09T17:01:30Z</time>
      </trkpt>
      <trkpt lat="44.55305" lon="4.15796">
        <ele>636</ele>
        <time>2022-06-09T17:01:34Z</time>
      </trkpt>
      <trkpt lat="44.55311" lon="4.15781">
        <ele>635</ele>
        <time>2022-06-09T17:01:37Z</time>
      </trkpt>
      <trkpt lat="44.5531" lon="4.15777">
        <ele>634</ele>
        <time>2022-06-09T17:01:38Z</time>
      </trkpt>
      <trkpt lat="44.55281" lon="4.15791">
        <ele>627</ele>
        <time>2022-06-09T17:01:45Z</time>
      </trkpt>
      <trkpt lat="44.55285" lon="4.15776">
        <ele>626</ele>
        <time>2022-06-09T17:01:47Z</time>
      </trkpt>
      <trkpt lat="44.55301" lon="4.15746">
        <ele>625</ele>
        <time>2022-06-09T17:01:54Z</time>
      </trkpt>
      <trkpt lat="44.55323" lon="4.15723">
        <ele>628</ele>
        <time>2022-06-09T17:02:00Z</time>
      </trkpt>
      <trkpt lat="44.55337" lon="4.15703">
        <ele>629</ele>
        <time>2022-06-09T17:02:05Z</time>
      </trkpt>
      <trkpt lat="44.55342" lon="4.15661">
        <ele>623</ele>
        <time>2022-06-09T17:02:12Z</time>
      </trkpt>
      <trkpt lat="44.55344" lon="4.1562">
        <ele>625</ele>
        <time>2022-06-09T17:02:19Z</time>
      </trkpt>
      <trkpt lat="44.55342" lon="4.15613">
        <ele>625</ele>
        <time>2022-06-09T17:02:20Z</time>
      </trkpt>
      <trkpt lat="44.55337" lon="4.15612">
        <ele>624</ele>
        <time>2022-06-09T17:02:21Z</time>
      </trkpt>
      <trkpt lat="44.55315" lon="4.15635">
        <ele>618</ele>
        <time>2022-06-09T17:02:28Z</time>
      </trkpt>
      <trkpt lat="44.55296" lon="4.15644">
        <ele>613</ele>
        <time>2022-06-09T17:02:32Z</time>
      </trkpt>
      <trkpt lat="44.55265" lon="4.15643">
        <ele>605</ele>
        <time>2022-06-09T17:02:39Z</time>
      </trkpt>
      <trkpt lat="44.5525" lon="4.15635">
        <ele>602</ele>
        <time>2022-06-09T17:02:43Z</time>
      </trkpt>
      <trkpt lat="44.55232" lon="4.15614">
        <ele>602</ele>
        <time>2022-06-09T17:02:49Z</time>
      </trkpt>
      <trkpt lat="44.55215" lon="4.1561">
        <ele>598</ele>
        <time>2022-06-09T17:02:53Z</time>
      </trkpt>
      <trkpt lat="44.55185" lon="4.15619">
        <ele>589</ele>
        <time>2022-06-09T17:03:00Z</time>
      </trkpt>
      <trkpt lat="44.55184" lon="4.15623">
        <ele>588</ele>
        <time>2022-06-09T17:03:01Z</time>
      </trkpt>
      <trkpt lat="44.55187" lon="4.15623">
        <ele>589</ele>
        <time>2022-06-09T17:03:01Z</time>
      </trkpt>
      <trkpt lat="44.55176" lon="4.15618">
        <ele>587</ele>
        <time>2022-06-09T17:03:04Z</time>
      </trkpt>
      <trkpt lat="44.55179" lon="4.15616">
        <ele>588</ele>
        <time>2022-06-09T17:03:05Z</time>
      </trkpt>
      <trkpt lat="44.55176" lon="4.15616">
        <ele>588</ele>
        <time>2022-06-09T17:03:05Z</time>
      </trkpt>
      <trkpt lat="44.55183" lon="4.15622">
        <ele>588</ele>
        <time>2022-06-09T17:03:07Z</time>
      </trkpt>
      <trkpt lat="44.55181" lon="4.15623">
        <ele>588</ele>
        <time>2022-06-09T17:03:08Z</time>
      </trkpt>
      <trkpt lat="44.55192" lon="4.15624">
        <ele>590</ele>
        <time>2022-06-09T17:03:10Z</time>
      </trkpt>
      <trkpt lat="44.55197" lon="4.15628">
        <ele>591</ele>
        <time>2022-06-09T17:03:12Z</time>
      </trkpt>
      <trkpt lat="44.55199" lon="4.15633">
        <ele>590</ele>
        <time>2022-06-09T17:03:13Z</time>
      </trkpt>
      <trkpt lat="44.55197" lon="4.15639">
        <ele>589</ele>
        <time>2022-06-09T17:03:14Z</time>
      </trkpt>
      <trkpt lat="44.55198" lon="4.15629">
        <ele>591</ele>
        <time>2022-06-09T17:03:16Z</time>
      </trkpt>
      <trkpt lat="44.55196" lon="4.15626">
        <ele>591</ele>
        <time>2022-06-09T17:03:16Z</time>
      </trkpt>
      <trkpt lat="44.55177" lon="4.15617">
        <ele>588</ele>
        <time>2022-06-09T17:03:21Z</time>
      </trkpt>
      <trkpt lat="44.55186" lon="4.1562">
        <ele>589</ele>
        <time>2022-06-09T17:03:23Z</time>
      </trkpt>
      <trkpt lat="44.55177" lon="4.15613">
        <ele>588</ele>
        <time>2022-06-09T17:03:25Z</time>
      </trkpt>
      <trkpt lat="44.55175" lon="4.15614">
        <ele>588</ele>
        <time>2022-06-09T17:03:26Z</time>
      </trkpt>
      <trkpt lat="44.55174" lon="4.1561">
        <ele>588</ele>
        <time>2022-06-09T17:03:27Z</time>
      </trkpt>
      <trkpt lat="44.55177" lon="4.15612">
        <ele>589</ele>
        <time>2022-06-09T17:03:27Z</time>
      </trkpt>
      <trkpt lat="44.55177" lon="4.15615">
        <ele>588</ele>
        <time>2022-06-09T17:03:28Z</time>
      </trkpt>
      <trkpt lat="44.55182" lon="4.15615">
        <ele>589</ele>
        <time>2022-06-09T17:03:29Z</time>
      </trkpt>
      <trkpt lat="44.5518" lon="4.15617">
        <ele>589</ele>
        <time>2022-06-09T17:03:30Z</time>
      </trkpt>
      <trkpt lat="44.55198" lon="4.15626">
        <ele>591</ele>
        <time>2022-06-09T17:03:34Z</time>
      </trkpt>
      <trkpt lat="44.552" lon="4.15639">
        <ele>590</ele>
        <time>2022-06-09T17:03:36Z</time>
      </trkpt>
      <trkpt lat="44.55198" lon="4.15627">
        <ele>591</ele>
        <time>2022-06-09T17:03:38Z</time>
      </trkpt>
      <trkpt lat="44.55151" lon="4.15612">
        <ele>583</ele>
        <time>2022-06-09T17:03:50Z</time>
      </trkpt>
      <trkpt lat="44.55101" lon="4.15561">
        <ele>577</ele>
        <time>2022-06-09T17:04:04Z</time>
      </trkpt>
      <trkpt lat="44.55099" lon="4.15564">
        <ele>576</ele>
        <time>2022-06-09T17:04:05Z</time>
      </trkpt>
      <trkpt lat="44.55101" lon="4.15562">
        <ele>577</ele>
        <time>2022-06-09T17:04:05Z</time>
      </trkpt>
      <trkpt lat="44.55132" lon="4.15596">
        <ele>581</ele>
        <time>2022-06-09T17:04:15Z</time>
      </trkpt>
      <trkpt lat="44.5516" lon="4.15619">
        <ele>584</ele>
        <time>2022-06-09T17:04:22Z</time>
      </trkpt>
      <trkpt lat="44.55196" lon="4.15628">
        <ele>591</ele>
        <time>2022-06-09T17:04:31Z</time>
      </trkpt>
      <trkpt lat="44.55197" lon="4.15632">
        <ele>590</ele>
        <time>2022-06-09T17:04:31Z</time>
      </trkpt>
      <trkpt lat="44.55194" lon="4.15642">
        <ele>588</ele>
        <time>2022-06-09T17:04:33Z</time>
      </trkpt>
      <trkpt lat="44.55168" lon="4.15676">
        <ele>578</ele>
        <time>2022-06-09T17:04:41Z</time>
      </trkpt>
      <trkpt lat="44.55154" lon="4.15716">
        <ele>583</ele>
        <time>2022-06-09T17:04:49Z</time>
      </trkpt>
      <trkpt lat="44.55151" lon="4.15719">
        <ele>583</ele>
        <time>2022-06-09T17:04:50Z</time>
      </trkpt>
      <trkpt lat="44.55141" lon="4.15719">
        <ele>583</ele>
        <time>2022-06-09T17:04:52Z</time>
      </trkpt>
      <trkpt lat="44.55133" lon="4.15726">
        <ele>584</ele>
        <time>2022-06-09T17:04:54Z</time>
      </trkpt>
      <trkpt lat="44.55131" lon="4.15732">
        <ele>585</ele>
        <time>2022-06-09T17:04:55Z</time>
      </trkpt>
      <trkpt lat="44.55132" lon="4.15749">
        <ele>588</ele>
        <time>2022-06-09T17:04:58Z</time>
      </trkpt>
      <trkpt lat="44.55128" lon="4.15755">
        <ele>590</ele>
        <time>2022-06-09T17:05:00Z</time>
      </trkpt>
      <trkpt lat="44.55118" lon="4.15753">
        <ele>590</ele>
        <time>2022-06-09T17:05:02Z</time>
      </trkpt>
      <trkpt lat="44.55108" lon="4.15727">
        <ele>585</ele>
        <time>2022-06-09T17:05:07Z</time>
      </trkpt>
      <trkpt lat="44.55093" lon="4.157">
        <ele>579</ele>
        <time>2022-06-09T17:05:13Z</time>
      </trkpt>
      <trkpt lat="44.55068" lon="4.15689">
        <ele>580</ele>
        <time>2022-06-09T17:05:19Z</time>
      </trkpt>
      <trkpt lat="44.5505" lon="4.15674">
        <ele>581</ele>
        <time>2022-06-09T17:05:24Z</time>
      </trkpt>
      <trkpt lat="44.55038" lon="4.1566">
        <ele>582</ele>
        <time>2022-06-09T17:05:27Z</time>
      </trkpt>
      <trkpt lat="44.55033" lon="4.15612">
        <ele>573</ele>
        <time>2022-06-09T17:05:35Z</time>
      </trkpt>
      <trkpt lat="44.55023" lon="4.1558">
        <ele>567</ele>
        <time>2022-06-09T17:05:41Z</time>
      </trkpt>
      <trkpt lat="44.55009" lon="4.15553">
        <ele>563</ele>
        <time>2022-06-09T17:05:47Z</time>
      </trkpt>
      <trkpt lat="44.54982" lon="4.15523">
        <ele>561</ele>
        <time>2022-06-09T17:05:55Z</time>
      </trkpt>
      <trkpt lat="44.54966" lon="4.15491">
        <ele>559</ele>
        <time>2022-06-09T17:06:01Z</time>
      </trkpt>
      <trkpt lat="44.5496" lon="4.15486">
        <ele>560</ele>
        <time>2022-06-09T17:06:03Z</time>
      </trkpt>
      <trkpt lat="44.54944" lon="4.1548">
        <ele>561</ele>
        <time>2022-06-09T17:06:07Z</time>
      </trkpt>
      <trkpt lat="44.54937" lon="4.15474">
        <ele>561</ele>
        <time>2022-06-09T17:06:09Z</time>
      </trkpt>
      <trkpt lat="44.54917" lon="4.1544">
        <ele>552</ele>
        <time>2022-06-09T17:06:16Z</time>
      </trkpt>
      <trkpt lat="44.54895" lon="4.15373">
        <ele>546</ele>
        <time>2022-06-09T17:06:28Z</time>
      </trkpt>
      <trkpt lat="44.54856" lon="4.15294">
        <ele>542</ele>
        <time>2022-06-09T17:06:44Z</time>
      </trkpt>
      <trkpt lat="44.54836" lon="4.15271">
        <ele>538</ele>
        <time>2022-06-09T17:06:50Z</time>
      </trkpt>
      <trkpt lat="44.54823" lon="4.15229">
        <ele>535</ele>
        <time>2022-06-09T17:06:58Z</time>
      </trkpt>
      <trkpt lat="44.54763" lon="4.15149">
        <ele>531</ele>
        <time>2022-06-09T17:07:17Z</time>
      </trkpt>
      <trkpt lat="44.54699" lon="4.15069">
        <ele>536</ele>
        <time>2022-06-09T17:07:37Z</time>
      </trkpt>
      <trkpt lat="44.547" lon="4.1506">
        <ele>535</ele>
        <time>2022-06-09T17:07:39Z</time>
      </trkpt>
      <trkpt lat="44.54709" lon="4.15041">
        <ele>532</ele>
        <time>2022-06-09T17:07:43Z</time>
      </trkpt>
      <trkpt lat="44.5471" lon="4.15025">
        <ele>531</ele>
        <time>2022-06-09T17:07:45Z</time>
      </trkpt>
      <trkpt lat="44.54709" lon="4.15008">
        <ele>530</ele>
        <time>2022-06-09T17:07:48Z</time>
      </trkpt>
      <trkpt lat="44.54702" lon="4.14974">
        <ele>529</ele>
        <time>2022-06-09T17:07:54Z</time>
      </trkpt>
      <trkpt lat="44.54679" lon="4.14915">
        <ele>524</ele>
        <time>2022-06-09T17:08:05Z</time>
      </trkpt>
      <trkpt lat="44.54661" lon="4.14881">
        <ele>520</ele>
        <time>2022-06-09T17:08:12Z</time>
      </trkpt>
      <trkpt lat="44.54645" lon="4.14867">
        <ele>523</ele>
        <time>2022-06-09T17:08:17Z</time>
      </trkpt>
      <trkpt lat="44.54637" lon="4.14854">
        <ele>523</ele>
        <time>2022-06-09T17:08:19Z</time>
      </trkpt>
      <trkpt lat="44.5463" lon="4.14822">
        <ele>520</ele>
        <time>2022-06-09T17:08:25Z</time>
      </trkpt>
      <trkpt lat="44.54613" lon="4.14778">
        <ele>519</ele>
        <time>2022-06-09T17:08:33Z</time>
      </trkpt>
      <trkpt lat="44.54574" lon="4.14696">
        <ele>513</ele>
        <time>2022-06-09T17:08:50Z</time>
      </trkpt>
      <trkpt lat="44.54534" lon="4.14586">
        <ele>510</ele>
        <time>2022-06-09T17:09:10Z</time>
      </trkpt>
      <trkpt lat="44.54514" lon="4.14495">
        <ele>500</ele>
        <time>2022-06-09T17:09:26Z</time>
      </trkpt>
      <trkpt lat="44.54512" lon="4.14493">
        <ele>500</ele>
        <time>2022-06-09T17:09:27Z</time>
      </trkpt>
      <trkpt lat="44.54475" lon="4.14488">
        <ele>510</ele>
        <time>2022-06-09T17:09:35Z</time>
      </trkpt>
      <trkpt lat="44.54463" lon="4.14448">
        <ele>507</ele>
        <time>2022-06-09T17:09:43Z</time>
      </trkpt>
      <trkpt lat="44.54461" lon="4.14432">
        <ele>505</ele>
        <time>2022-06-09T17:09:45Z</time>
      </trkpt>
      <trkpt lat="44.54442" lon="4.144">
        <ele>504</ele>
        <time>2022-06-09T17:09:52Z</time>
      </trkpt>
      <trkpt lat="44.54407" lon="4.14372">
        <ele>507</ele>
        <time>2022-06-09T17:10:02Z</time>
      </trkpt>
      <trkpt lat="44.54391" lon="4.14345">
        <ele>505</ele>
        <time>2022-06-09T17:10:08Z</time>
      </trkpt>
      <trkpt lat="44.54362" lon="4.1431">
        <ele>509</ele>
        <time>2022-06-09T17:10:16Z</time>
      </trkpt>
      <trkpt lat="44.54336" lon="4.1429">
        <ele>515</ele>
        <time>2022-06-09T17:10:23Z</time>
      </trkpt>
      <trkpt lat="44.54312" lon="4.14289">
        <ele>524</ele>
        <time>2022-06-09T17:10:29Z</time>
      </trkpt>
      <trkpt lat="44.54309" lon="4.14281">
        <ele>524</ele>
        <time>2022-06-09T17:10:30Z</time>
      </trkpt>
      <trkpt lat="44.54308" lon="4.14219">
        <ele>514</ele>
        <time>2022-06-09T17:10:41Z</time>
      </trkpt>
      <trkpt lat="44.54301" lon="4.14159">
        <ele>509</ele>
        <time>2022-06-09T17:10:51Z</time>
      </trkpt>
      <trkpt lat="44.54273" lon="4.1412">
        <ele>513</ele>
        <time>2022-06-09T17:11:00Z</time>
      </trkpt>
      <trkpt lat="44.54231" lon="4.14106">
        <ele>526</ele>
        <time>2022-06-09T17:11:10Z</time>
      </trkpt>
      <trkpt lat="44.54211" lon="4.14104">
        <ele>533</ele>
        <time>2022-06-09T17:11:15Z</time>
      </trkpt>
      <trkpt lat="44.54204" lon="4.14098">
        <ele>535</ele>
        <time>2022-06-09T17:11:17Z</time>
      </trkpt>
      <trkpt lat="44.54202" lon="4.14093">
        <ele>535</ele>
        <time>2022-06-09T17:11:18Z</time>
      </trkpt>
      <trkpt lat="44.54204" lon="4.14077">
        <ele>533</ele>
        <time>2022-06-09T17:11:20Z</time>
      </trkpt>
      <trkpt lat="44.5422" lon="4.14053">
        <ele>529</ele>
        <time>2022-06-09T17:11:26Z</time>
      </trkpt>
      <trkpt lat="44.54268" lon="4.13952">
        <ele>517</ele>
        <time>2022-06-09T17:11:46Z</time>
      </trkpt>
      <trkpt lat="44.54272" lon="4.13911">
        <ele>519</ele>
        <time>2022-06-09T17:11:53Z</time>
      </trkpt>
      <trkpt lat="44.54259" lon="4.13858">
        <ele>523</ele>
        <time>2022-06-09T17:12:02Z</time>
      </trkpt>
      <trkpt lat="44.54215" lon="4.13733">
        <ele>519</ele>
        <time>2022-06-09T17:12:26Z</time>
      </trkpt>
      <trkpt lat="44.54205" lon="4.1371">
        <ele>517</ele>
        <time>2022-06-09T17:12:30Z</time>
      </trkpt>
      <trkpt lat="44.54178" lon="4.13709">
        <ele>521</ele>
        <time>2022-06-09T17:12:36Z</time>
      </trkpt>
      <trkpt lat="44.5414" lon="4.13745">
        <ele>528</ele>
        <time>2022-06-09T17:12:47Z</time>
      </trkpt>
      <trkpt lat="44.54101" lon="4.1377">
        <ele>532</ele>
        <time>2022-06-09T17:12:57Z</time>
      </trkpt>
      <trkpt lat="44.54078" lon="4.13789">
        <ele>538</ele>
        <time>2022-06-09T17:13:03Z</time>
      </trkpt>
      <trkpt lat="44.5407" lon="4.13788">
        <ele>540</ele>
        <time>2022-06-09T17:13:05Z</time>
      </trkpt>
      <trkpt lat="44.54064" lon="4.13781">
        <ele>540</ele>
        <time>2022-06-09T17:13:07Z</time>
      </trkpt>
      <trkpt lat="44.54061" lon="4.1377">
        <ele>538</ele>
        <time>2022-06-09T17:13:09Z</time>
      </trkpt>
      <trkpt lat="44.54062" lon="4.13742">
        <ele>531</ele>
        <time>2022-06-09T17:13:14Z</time>
      </trkpt>
      <trkpt lat="44.5406" lon="4.13728">
        <ele>528</ele>
        <time>2022-06-09T17:13:16Z</time>
      </trkpt>
      <trkpt lat="44.54055" lon="4.13705">
        <ele>524</ele>
        <time>2022-06-09T17:13:20Z</time>
      </trkpt>
      <trkpt lat="44.54042" lon="4.13667">
        <ele>519</ele>
        <time>2022-06-09T17:13:27Z</time>
      </trkpt>
      <trkpt lat="44.54012" lon="4.13615">
        <ele>514</ele>
        <time>2022-06-09T17:13:38Z</time>
      </trkpt>
      <trkpt lat="44.53988" lon="4.13584">
        <ele>512</ele>
        <time>2022-06-09T17:13:46Z</time>
      </trkpt>
      <trkpt lat="44.53938" lon="4.13543">
        <ele>511</ele>
        <time>2022-06-09T17:13:59Z</time>
      </trkpt>
      <trkpt lat="44.53875" lon="4.13515">
        <ele>499</ele>
        <time>2022-06-09T17:14:15Z</time>
      </trkpt>
      <trkpt lat="44.53862" lon="4.13516">
        <ele>498</ele>
        <time>2022-06-09T17:14:18Z</time>
      </trkpt>
      <trkpt lat="44.53846" lon="4.13532">
        <ele>500</ele>
        <time>2022-06-09T17:14:22Z</time>
      </trkpt>
      <trkpt lat="44.53819" lon="4.13598">
        <ele>516</ele>
        <time>2022-06-09T17:14:35Z</time>
      </trkpt>
      <trkpt lat="44.5381" lon="4.13611">
        <ele>520</ele>
        <time>2022-06-09T17:14:38Z</time>
      </trkpt>
      <trkpt lat="44.53804" lon="4.13612">
        <ele>520</ele>
        <time>2022-06-09T17:14:39Z</time>
      </trkpt>
      <trkpt lat="44.53798" lon="4.13609">
        <ele>518</ele>
        <time>2022-06-09T17:14:41Z</time>
      </trkpt>
      <trkpt lat="44.53788" lon="4.13598">
        <ele>514</ele>
        <time>2022-06-09T17:14:44Z</time>
      </trkpt>
      <trkpt lat="44.53763" lon="4.13586">
        <ele>506</ele>
        <time>2022-06-09T17:14:50Z</time>
      </trkpt>
      <trkpt lat="44.53746" lon="4.13571">
        <ele>501</ele>
        <time>2022-06-09T17:14:55Z</time>
      </trkpt>
      <trkpt lat="44.53706" lon="4.13556">
        <ele>509</ele>
        <time>2022-06-09T17:15:04Z</time>
      </trkpt>
      <trkpt lat="44.53696" lon="4.13547">
        <ele>508</ele>
        <time>2022-06-09T17:15:07Z</time>
      </trkpt>
      <trkpt lat="44.53662" lon="4.13484">
        <ele>492</ele>
        <time>2022-06-09T17:15:20Z</time>
      </trkpt>
      <trkpt lat="44.53637" lon="4.13446">
        <ele>488</ele>
        <time>2022-06-09T17:15:29Z</time>
      </trkpt>
      <trkpt lat="44.5363" lon="4.1344">
        <ele>489</ele>
        <time>2022-06-09T17:15:31Z</time>
      </trkpt>
      <trkpt lat="44.53585" lon="4.13378">
        <ele>484</ele>
        <time>2022-06-09T17:15:46Z</time>
      </trkpt>
      <trkpt lat="44.53545" lon="4.13302">
        <ele>469</ele>
        <time>2022-06-09T17:16:01Z</time>
      </trkpt>
      <trkpt lat="44.53533" lon="4.13289">
        <ele>468</ele>
        <time>2022-06-09T17:16:05Z</time>
      </trkpt>
      <trkpt lat="44.53518" lon="4.1328">
        <ele>469</ele>
        <time>2022-06-09T17:16:09Z</time>
      </trkpt>
      <trkpt lat="44.53452" lon="4.13252">
        <ele>461</ele>
        <time>2022-06-09T17:16:25Z</time>
      </trkpt>
      <trkpt lat="44.53445" lon="4.13251">
        <ele>460</ele>
        <time>2022-06-09T17:16:26Z</time>
      </trkpt>
      <trkpt lat="44.53439" lon="4.13255">
        <ele>460</ele>
        <time>2022-06-09T17:16:28Z</time>
      </trkpt>
      <trkpt lat="44.53435" lon="4.13262">
        <ele>461</ele>
        <time>2022-06-09T17:16:30Z</time>
      </trkpt>
      <trkpt lat="44.53416" lon="4.13362">
        <ele>466</ele>
        <time>2022-06-09T17:16:47Z</time>
      </trkpt>
      <trkpt lat="44.53386" lon="4.13462">
        <ele>465</ele>
        <time>2022-06-09T17:17:05Z</time>
      </trkpt>
      <trkpt lat="44.53339" lon="4.13585">
        <ele>466</ele>
        <time>2022-06-09T17:17:28Z</time>
      </trkpt>
      <trkpt lat="44.53334" lon="4.13632">
        <ele>474</ele>
        <time>2022-06-09T17:17:36Z</time>
      </trkpt>
      <trkpt lat="44.53329" lon="4.13641">
        <ele>477</ele>
        <time>2022-06-09T17:17:38Z</time>
      </trkpt>
      <trkpt lat="44.53325" lon="4.13643">
        <ele>478</ele>
        <time>2022-06-09T17:17:39Z</time>
      </trkpt>
      <trkpt lat="44.53321" lon="4.13643">
        <ele>479</ele>
        <time>2022-06-09T17:17:40Z</time>
      </trkpt>
      <trkpt lat="44.53315" lon="4.13637">
        <ele>479</ele>
        <time>2022-06-09T17:17:41Z</time>
      </trkpt>
      <trkpt lat="44.53307" lon="4.13624">
        <ele>478</ele>
        <time>2022-06-09T17:17:44Z</time>
      </trkpt>
      <trkpt lat="44.53288" lon="4.13543">
        <ele>465</ele>
        <time>2022-06-09T17:17:59Z</time>
      </trkpt>
      <trkpt lat="44.53284" lon="4.13541">
        <ele>466</ele>
        <time>2022-06-09T17:18:00Z</time>
      </trkpt>
      <trkpt lat="44.53284" lon="4.13545">
        <ele>467</ele>
        <time>2022-06-09T17:18:00Z</time>
      </trkpt>
      <trkpt lat="44.53286" lon="4.13543">
        <ele>466</ele>
        <time>2022-06-09T17:18:01Z</time>
      </trkpt>
      <trkpt lat="44.53289" lon="4.13544">
        <ele>465</ele>
        <time>2022-06-09T17:18:01Z</time>
      </trkpt>
      <trkpt lat="44.53287" lon="4.13541">
        <ele>465</ele>
        <time>2022-06-09T17:18:02Z</time>
      </trkpt>
      <trkpt lat="44.53286" lon="4.13547">
        <ele>467</ele>
        <time>2022-06-09T17:18:03Z</time>
      </trkpt>
      <trkpt lat="44.53299" lon="4.13577">
        <ele>470</ele>
        <time>2022-06-09T17:18:09Z</time>
      </trkpt>
      <trkpt lat="44.53296" lon="4.13575">
        <ele>471</ele>
        <time>2022-06-09T17:18:10Z</time>
      </trkpt>
      <trkpt lat="44.533" lon="4.13575">
        <ele>470</ele>
        <time>2022-06-09T17:18:11Z</time>
      </trkpt>
      <trkpt lat="44.533" lon="4.13587">
        <ele>472</ele>
        <time>2022-06-09T17:18:13Z</time>
      </trkpt>
      <trkpt lat="44.53307" lon="4.13616">
        <ele>477</ele>
        <time>2022-06-09T17:18:18Z</time>
      </trkpt>
      <trkpt lat="44.53321" lon="4.13643">
        <ele>479</ele>
        <time>2022-06-09T17:18:23Z</time>
      </trkpt>
      <trkpt lat="44.53341" lon="4.13637">
        <ele>478</ele>
        <time>2022-06-09T17:18:28Z</time>
      </trkpt>
      <trkpt lat="44.53346" lon="4.13596">
        <ele>472</ele>
        <time>2022-06-09T17:18:35Z</time>
      </trkpt>
      <trkpt lat="44.53377" lon="4.13502">
        <ele>467</ele>
        <time>2022-06-09T17:18:52Z</time>
      </trkpt>
      <trkpt lat="44.53396" lon="4.13452">
        <ele>468</ele>
        <time>2022-06-09T17:19:02Z</time>
      </trkpt>
      <trkpt lat="44.53411" lon="4.134">
        <ele>467</ele>
        <time>2022-06-09T17:19:11Z</time>
      </trkpt>
      <trkpt lat="44.53431" lon="4.13311">
        <ele>467</ele>
        <time>2022-06-09T17:19:27Z</time>
      </trkpt>
      <trkpt lat="44.53436" lon="4.1327">
        <ele>462</ele>
        <time>2022-06-09T17:19:34Z</time>
      </trkpt>
      <trkpt lat="44.53455" lon="4.13257">
        <ele>462</ele>
        <time>2022-06-09T17:19:39Z</time>
      </trkpt>
      <trkpt lat="44.53513" lon="4.13283">
        <ele>472</ele>
        <time>2022-06-09T17:19:53Z</time>
      </trkpt>
      <trkpt lat="44.53549" lon="4.13322">
        <ele>474</ele>
        <time>2022-06-09T17:20:03Z</time>
      </trkpt>
      <trkpt lat="44.53591" lon="4.13394">
        <ele>488</ele>
        <time>2022-06-09T17:20:19Z</time>
      </trkpt>
      <trkpt lat="44.53618" lon="4.13433">
        <ele>491</ele>
        <time>2022-06-09T17:20:28Z</time>
      </trkpt>
      <trkpt lat="44.53644" lon="4.13463">
        <ele>492</ele>
        <time>2022-06-09T17:20:36Z</time>
      </trkpt>
      <trkpt lat="44.53668" lon="4.13497">
        <ele>495</ele>
        <time>2022-06-09T17:20:44Z</time>
      </trkpt>
      <trkpt lat="44.53689" lon="4.13534">
        <ele>505</ele>
        <time>2022-06-09T17:20:52Z</time>
      </trkpt>
      <trkpt lat="44.53714" lon="4.13566">
        <ele>510</ele>
        <time>2022-06-09T17:20:59Z</time>
      </trkpt>
      <trkpt lat="44.5374" lon="4.13574">
        <ele>504</ele>
        <time>2022-06-09T17:21:06Z</time>
      </trkpt>
      <trkpt lat="44.53762" lon="4.13592">
        <ele>509</ele>
        <time>2022-06-09T17:21:12Z</time>
      </trkpt>
      <trkpt lat="44.5379" lon="4.13604">
        <ele>516</ele>
        <time>2022-06-09T17:21:18Z</time>
      </trkpt>
      <trkpt lat="44.53818" lon="4.13609">
        <ele>520</ele>
        <time>2022-06-09T17:21:25Z</time>
      </trkpt>
      <trkpt lat="44.53828" lon="4.13576">
        <ele>510</ele>
        <time>2022-06-09T17:21:31Z</time>
      </trkpt>
      <trkpt lat="44.53847" lon="4.13527">
        <ele>499</ele>
        <time>2022-06-09T17:21:40Z</time>
      </trkpt>
      <trkpt lat="44.53857" lon="4.13516">
        <ele>497</ele>
        <time>2022-06-09T17:21:43Z</time>
      </trkpt>
      <trkpt lat="44.53888" lon="4.1352">
        <ele>502</ele>
        <time>2022-06-09T17:21:51Z</time>
      </trkpt>
      <trkpt lat="44.53906" lon="4.13529">
        <ele>508</ele>
        <time>2022-06-09T17:21:55Z</time>
      </trkpt>
      <trkpt lat="44.53947" lon="4.13556">
        <ele>513</ele>
        <time>2022-06-09T17:22:06Z</time>
      </trkpt>
      <trkpt lat="44.53969" lon="4.13576">
        <ele>515</ele>
        <time>2022-06-09T17:22:12Z</time>
      </trkpt>
      <trkpt lat="44.53993" lon="4.13605">
        <ele>517</ele>
        <time>2022-06-09T17:22:19Z</time>
      </trkpt>
      <trkpt lat="44.5403" lon="4.13665">
        <ele>522</ele>
        <time>2022-06-09T17:22:32Z</time>
      </trkpt>
      <trkpt lat="44.54044" lon="4.13704">
        <ele>527</ele>
        <time>2022-06-09T17:22:40Z</time>
      </trkpt>
      <trkpt lat="44.54054" lon="4.13743">
        <ele>533</ele>
        <time>2022-06-09T17:22:47Z</time>
      </trkpt>
      <trkpt lat="44.54052" lon="4.13753">
        <ele>537</ele>
        <time>2022-06-09T17:22:48Z</time>
      </trkpt>
      <trkpt lat="44.54047" lon="4.13762">
        <ele>540</ele>
        <time>2022-06-09T17:22:50Z</time>
      </trkpt>
      <trkpt lat="44.54064" lon="4.13783">
        <ele>540</ele>
        <time>2022-06-09T17:22:55Z</time>
      </trkpt>
      <trkpt lat="44.54093" lon="4.13765">
        <ele>530</ele>
        <time>2022-06-09T17:23:03Z</time>
      </trkpt>
      <trkpt lat="44.54129" lon="4.13752">
        <ele>529</ele>
        <time>2022-06-09T17:23:12Z</time>
      </trkpt>
      <trkpt lat="44.54142" lon="4.13745">
        <ele>528</ele>
        <time>2022-06-09T17:23:15Z</time>
      </trkpt>
      <trkpt lat="44.54144" lon="4.13748">
        <ele>529</ele>
        <time>2022-06-09T17:23:15Z</time>
      </trkpt>
      <trkpt lat="44.54143" lon="4.13744">
        <ele>528</ele>
        <time>2022-06-09T17:23:16Z</time>
      </trkpt>
      <trkpt lat="44.54154" lon="4.13739">
        <ele>527</ele>
        <time>2022-06-09T17:23:19Z</time>
      </trkpt>
      <trkpt lat="44.54175" lon="4.13708">
        <ele>521</ele>
        <time>2022-06-09T17:23:26Z</time>
      </trkpt>
      <trkpt lat="44.54198" lon="4.13706">
        <ele>518</ele>
        <time>2022-06-09T17:23:31Z</time>
      </trkpt>
      <trkpt lat="44.54206" lon="4.1371">
        <ele>517</ele>
        <time>2022-06-09T17:23:33Z</time>
      </trkpt>
      <trkpt lat="44.54216" lon="4.13693">
        <ele>514</ele>
        <time>2022-06-09T17:23:37Z</time>
      </trkpt>
      <trkpt lat="44.54226" lon="4.13654">
        <ele>510</ele>
        <time>2022-06-09T17:23:44Z</time>
      </trkpt>
      <trkpt lat="44.54223" lon="4.13646">
        <ele>509</ele>
        <time>2022-06-09T17:23:45Z</time>
      </trkpt>
      <trkpt lat="44.54222" lon="4.13631">
        <ele>509</ele>
        <time>2022-06-09T17:23:48Z</time>
      </trkpt>
      <trkpt lat="44.54213" lon="4.13619">
        <ele>508</ele>
        <time>2022-06-09T17:23:51Z</time>
      </trkpt>
      <trkpt lat="44.54222" lon="4.13568">
        <ele>504</ele>
        <time>2022-06-09T17:24:00Z</time>
      </trkpt>
      <trkpt lat="44.54227" lon="4.13567">
        <ele>505</ele>
        <time>2022-06-09T17:24:01Z</time>
      </trkpt>
      <trkpt lat="44.54232" lon="4.13559">
        <ele>504</ele>
        <time>2022-06-09T17:24:03Z</time>
      </trkpt>
      <trkpt lat="44.54235" lon="4.1354">
        <ele>501</ele>
        <time>2022-06-09T17:24:06Z</time>
      </trkpt>
      <trkpt lat="44.5423" lon="4.13534">
        <ele>500</ele>
        <time>2022-06-09T17:24:07Z</time>
      </trkpt>
      <trkpt lat="44.54227" lon="4.13477">
        <ele>487</ele>
        <time>2022-06-09T17:24:17Z</time>
      </trkpt>
      <trkpt lat="44.54223" lon="4.13471">
        <ele>485</ele>
        <time>2022-06-09T17:24:18Z</time>
      </trkpt>
      <trkpt lat="44.5423" lon="4.13448">
        <ele>479</ele>
        <time>2022-06-09T17:24:22Z</time>
      </trkpt>
      <trkpt lat="44.54226" lon="4.13436">
        <ele>476</ele>
        <time>2022-06-09T17:24:25Z</time>
      </trkpt>
      <trkpt lat="44.54222" lon="4.13435">
        <ele>476</ele>
        <time>2022-06-09T17:24:25Z</time>
      </trkpt>
      <trkpt lat="44.54215" lon="4.13438">
        <ele>476</ele>
        <time>2022-06-09T17:24:27Z</time>
      </trkpt>
      <trkpt lat="44.54217" lon="4.13432">
        <ele>475</ele>
        <time>2022-06-09T17:24:28Z</time>
      </trkpt>
      <trkpt lat="44.54214" lon="4.13432">
        <ele>475</ele>
        <time>2022-06-09T17:24:29Z</time>
      </trkpt>
      <trkpt lat="44.54219" lon="4.13425">
        <ele>473</ele>
        <time>2022-06-09T17:24:31Z</time>
      </trkpt>
      <trkpt lat="44.54206" lon="4.13428">
        <ele>473</ele>
        <time>2022-06-09T17:24:34Z</time>
      </trkpt>
      <trkpt lat="44.54192" lon="4.13424">
        <ele>472</ele>
        <time>2022-06-09T17:24:37Z</time>
      </trkpt>
      <trkpt lat="44.54209" lon="4.13398">
        <ele>463</ele>
        <time>2022-06-09T17:24:43Z</time>
      </trkpt>
      <trkpt lat="44.5424" lon="4.13367">
        <ele>453</ele>
        <time>2022-06-09T17:24:52Z</time>
      </trkpt>
      <trkpt lat="44.54257" lon="4.13363">
        <ele>449</ele>
        <time>2022-06-09T17:24:56Z</time>
      </trkpt>
      <trkpt lat="44.54249" lon="4.13341">
        <ele>444</ele>
        <time>2022-06-09T17:25:00Z</time>
      </trkpt>
      <trkpt lat="44.54251" lon="4.1334">
        <ele>443</ele>
        <time>2022-06-09T17:25:00Z</time>
      </trkpt>
      <trkpt lat="44.5427" lon="4.13346">
        <ele>439</ele>
        <time>2022-06-09T17:25:05Z</time>
      </trkpt>
      <trkpt lat="44.543" lon="4.1338">
        <ele>438</ele>
        <time>2022-06-09T17:25:14Z</time>
      </trkpt>
      <trkpt lat="44.54306" lon="4.1338">
        <ele>436</ele>
        <time>2022-06-09T17:25:15Z</time>
      </trkpt>
      <trkpt lat="44.54301" lon="4.13368">
        <ele>434</ele>
        <time>2022-06-09T17:25:18Z</time>
      </trkpt>
      <trkpt lat="44.54302" lon="4.13358">
        <ele>431</ele>
        <time>2022-06-09T17:25:19Z</time>
      </trkpt>
      <trkpt lat="44.54316" lon="4.13359">
        <ele>426</ele>
        <time>2022-06-09T17:25:23Z</time>
      </trkpt>
      <trkpt lat="44.54314" lon="4.1335">
        <ele>425</ele>
        <time>2022-06-09T17:25:24Z</time>
      </trkpt>
      <trkpt lat="44.5432" lon="4.13352">
        <ele>423</ele>
        <time>2022-06-09T17:25:26Z</time>
      </trkpt>
      <trkpt lat="44.5431" lon="4.1333">
        <ele>421</ele>
        <time>2022-06-09T17:25:30Z</time>
      </trkpt>
      <trkpt lat="44.5432" lon="4.13341">
        <ele>420</ele>
        <time>2022-06-09T17:25:33Z</time>
      </trkpt>
      <trkpt lat="44.54319" lon="4.1332">
        <ele>416</ele>
        <time>2022-06-09T17:25:37Z</time>
      </trkpt>
      <trkpt lat="44.54314" lon="4.1328">
        <ele>408</ele>
        <time>2022-06-09T17:25:43Z</time>
      </trkpt>
      <trkpt lat="44.54303" lon="4.13258">
        <ele>404</ele>
        <time>2022-06-09T17:25:48Z</time>
      </trkpt>
      <trkpt lat="44.54294" lon="4.13246">
        <ele>403</ele>
        <time>2022-06-09T17:25:51Z</time>
      </trkpt>
      <trkpt lat="44.54301" lon="4.13212">
        <ele>411</ele>
        <time>2022-06-09T17:25:57Z</time>
      </trkpt>
      <trkpt lat="44.54302" lon="4.132">
        <ele>414</ele>
        <time>2022-06-09T17:25:59Z</time>
      </trkpt>
      <trkpt lat="44.543" lon="4.13201">
        <ele>414</ele>
        <time>2022-06-09T17:25:59Z</time>
      </trkpt>
      <trkpt lat="44.5431" lon="4.132">
        <ele>415</ele>
        <time>2022-06-09T17:26:01Z</time>
      </trkpt>
      <trkpt lat="44.543" lon="4.13189">
        <ele>417</ele>
        <time>2022-06-09T17:26:04Z</time>
      </trkpt>
      <trkpt lat="44.54281" lon="4.13176">
        <ele>418</ele>
        <time>2022-06-09T17:26:09Z</time>
      </trkpt>
      <trkpt lat="44.5427" lon="4.13177">
        <ele>417</ele>
        <time>2022-06-09T17:26:12Z</time>
      </trkpt>
      <trkpt lat="44.5426" lon="4.13183">
        <ele>415</ele>
        <time>2022-06-09T17:26:14Z</time>
      </trkpt>
      <trkpt lat="44.54258" lon="4.13179">
        <ele>416</ele>
        <time>2022-06-09T17:26:15Z</time>
      </trkpt>
      <trkpt lat="44.54262" lon="4.13172">
        <ele>417</ele>
        <time>2022-06-09T17:26:17Z</time>
      </trkpt>
      <trkpt lat="44.54251" lon="4.13165">
        <ele>418</ele>
        <time>2022-06-09T17:26:20Z</time>
      </trkpt>
      <trkpt lat="44.54235" lon="4.13142">
        <ele>427</ele>
        <time>2022-06-09T17:26:25Z</time>
      </trkpt>
      <trkpt lat="44.54215" lon="4.13126">
        <ele>432</ele>
        <time>2022-06-09T17:26:30Z</time>
      </trkpt>
      <trkpt lat="44.5421" lon="4.13118">
        <ele>435</ele>
        <time>2022-06-09T17:26:32Z</time>
      </trkpt>
      <trkpt lat="44.54227" lon="4.1312">
        <ele>436</ele>
        <time>2022-06-09T17:26:36Z</time>
      </trkpt>
      <trkpt lat="44.54205" lon="4.13097">
        <ele>444</ele>
        <time>2022-06-09T17:26:42Z</time>
      </trkpt>
      <trkpt lat="44.542" lon="4.13085">
        <ele>448</ele>
        <time>2022-06-09T17:26:45Z</time>
      </trkpt>
      <trkpt lat="44.54188" lon="4.13076">
        <ele>450</ele>
        <time>2022-06-09T17:26:48Z</time>
      </trkpt>
      <trkpt lat="44.54162" lon="4.13071">
        <ele>447</ele>
        <time>2022-06-09T17:26:54Z</time>
      </trkpt>
      <trkpt lat="44.54152" lon="4.13064">
        <ele>448</ele>
        <time>2022-06-09T17:26:57Z</time>
      </trkpt>
      <trkpt lat="44.54144" lon="4.13051">
        <ele>451</ele>
        <time>2022-06-09T17:26:59Z</time>
      </trkpt>
      <trkpt lat="44.54132" lon="4.13045">
        <ele>450</ele>
        <time>2022-06-09T17:27:02Z</time>
      </trkpt>
      <trkpt lat="44.54103" lon="4.13006">
        <ele>456</ele>
        <time>2022-06-09T17:27:12Z</time>
      </trkpt>
      <trkpt lat="44.54093" lon="4.12973">
        <ele>462</ele>
        <time>2022-06-09T17:27:18Z</time>
      </trkpt>
      <trkpt lat="44.54061" lon="4.12936">
        <ele>458</ele>
        <time>2022-06-09T17:27:28Z</time>
      </trkpt>
      <trkpt lat="44.54058" lon="4.12923">
        <ele>460</ele>
        <time>2022-06-09T17:27:30Z</time>
      </trkpt>
      <trkpt lat="44.5406" lon="4.12929">
        <ele>459</ele>
        <time>2022-06-09T17:27:31Z</time>
      </trkpt>
      <trkpt lat="44.54081" lon="4.12936">
        <ele>467</ele>
        <time>2022-06-09T17:27:36Z</time>
      </trkpt>
      <trkpt lat="44.54096" lon="4.12944">
        <ele>470</ele>
        <time>2022-06-09T17:27:40Z</time>
      </trkpt>
      <trkpt lat="44.5413" lon="4.12957">
        <ele>479</ele>
        <time>2022-06-09T17:27:48Z</time>
      </trkpt>
      <trkpt lat="44.54149" lon="4.1296">
        <ele>485</ele>
        <time>2022-06-09T17:27:52Z</time>
      </trkpt>
      <trkpt lat="44.54184" lon="4.12957">
        <ele>495</ele>
        <time>2022-06-09T17:28:01Z</time>
      </trkpt>
      <trkpt lat="44.54201" lon="4.12961">
        <ele>496</ele>
        <time>2022-06-09T17:28:05Z</time>
      </trkpt>
      <trkpt lat="44.54202" lon="4.12959">
        <ele>496</ele>
        <time>2022-06-09T17:28:05Z</time>
      </trkpt>
      <trkpt lat="44.54202" lon="4.12954">
        <ele>498</ele>
        <time>2022-06-09T17:28:06Z</time>
      </trkpt>
      <trkpt lat="44.54174" lon="4.12927">
        <ele>502</ele>
        <time>2022-06-09T17:28:14Z</time>
      </trkpt>
      <trkpt lat="44.54164" lon="4.12921">
        <ele>502</ele>
        <time>2022-06-09T17:28:16Z</time>
      </trkpt>
      <trkpt lat="44.54164" lon="4.12913">
        <ele>504</ele>
        <time>2022-06-09T17:28:18Z</time>
      </trkpt>
      <trkpt lat="44.54177" lon="4.12917">
        <ele>505</ele>
        <time>2022-06-09T17:28:21Z</time>
      </trkpt>
      <trkpt lat="44.54224" lon="4.12908">
        <ele>512</ele>
        <time>2022-06-09T17:28:32Z</time>
      </trkpt>
      <trkpt lat="44.54239" lon="4.12918">
        <ele>511</ele>
        <time>2022-06-09T17:28:36Z</time>
      </trkpt>
      <trkpt lat="44.54272" lon="4.1292">
        <ele>514</ele>
        <time>2022-06-09T17:28:43Z</time>
      </trkpt>
      <trkpt lat="44.54304" lon="4.12933">
        <ele>513</ele>
        <time>2022-06-09T17:28:51Z</time>
      </trkpt>
      <trkpt lat="44.54311" lon="4.12929">
        <ele>514</ele>
        <time>2022-06-09T17:28:53Z</time>
      </trkpt>
      <trkpt lat="44.54311" lon="4.12922">
        <ele>515</ele>
        <time>2022-06-09T17:28:54Z</time>
      </trkpt>
      <trkpt lat="44.54303" lon="4.12915">
        <ele>517</ele>
        <time>2022-06-09T17:28:56Z</time>
      </trkpt>
      <trkpt lat="44.54252" lon="4.12887">
        <ele>522</ele>
        <time>2022-06-09T17:29:09Z</time>
      </trkpt>
      <trkpt lat="44.54223" lon="4.12863">
        <ele>524</ele>
        <time>2022-06-09T17:29:17Z</time>
      </trkpt>
      <trkpt lat="44.54179" lon="4.12839">
        <ele>521</ele>
        <time>2022-06-09T17:29:28Z</time>
      </trkpt>
      <trkpt lat="44.54171" lon="4.12832">
        <ele>521</ele>
        <time>2022-06-09T17:29:30Z</time>
      </trkpt>
      <trkpt lat="44.5417" lon="4.12811">
        <ele>520</ele>
        <time>2022-06-09T17:29:34Z</time>
      </trkpt>
      <trkpt lat="44.54198" lon="4.12702">
        <ele>527</ele>
        <time>2022-06-09T17:29:53Z</time>
      </trkpt>
      <trkpt lat="44.54203" lon="4.12704">
        <ele>529</ele>
        <time>2022-06-09T17:29:54Z</time>
      </trkpt>
      <trkpt lat="44.54197" lon="4.12774">
        <ele>529</ele>
        <time>2022-06-09T17:30:06Z</time>
      </trkpt>
      <trkpt lat="44.542" lon="4.12788">
        <ele>529</ele>
        <time>2022-06-09T17:30:08Z</time>
      </trkpt>
      <trkpt lat="44.54211" lon="4.12803">
        <ele>532</ele>
        <time>2022-06-09T17:30:12Z</time>
      </trkpt>
      <trkpt lat="44.54259" lon="4.12825">
        <ele>539</ele>
        <time>2022-06-09T17:30:24Z</time>
      </trkpt>
      <trkpt lat="44.54273" lon="4.12827">
        <ele>539</ele>
        <time>2022-06-09T17:30:27Z</time>
      </trkpt>
      <trkpt lat="44.54304" lon="4.1282">
        <ele>541</ele>
        <time>2022-06-09T17:30:34Z</time>
      </trkpt>
      <trkpt lat="44.54319" lon="4.1281">
        <ele>545</ele>
        <time>2022-06-09T17:30:38Z</time>
      </trkpt>
      <trkpt lat="44.54323" lon="4.12811">
        <ele>544</ele>
        <time>2022-06-09T17:30:39Z</time>
      </trkpt>
      <trkpt lat="44.54334" lon="4.12822">
        <ele>542</ele>
        <time>2022-06-09T17:30:42Z</time>
      </trkpt>
      <trkpt lat="44.54344" lon="4.12828">
        <ele>540</ele>
        <time>2022-06-09T17:30:45Z</time>
      </trkpt>
      <trkpt lat="44.54367" lon="4.12821">
        <ele>541</ele>
        <time>2022-06-09T17:30:50Z</time>
      </trkpt>
      <trkpt lat="44.5442" lon="4.12786">
        <ele>551</ele>
        <time>2022-06-09T17:31:04Z</time>
      </trkpt>
      <trkpt lat="44.54432" lon="4.12771">
        <ele>556</ele>
        <time>2022-06-09T17:31:08Z</time>
      </trkpt>
      <trkpt lat="44.54441" lon="4.12753">
        <ele>562</ele>
        <time>2022-06-09T17:31:11Z</time>
      </trkpt>
      <trkpt lat="44.54447" lon="4.12753">
        <ele>562</ele>
        <time>2022-06-09T17:31:13Z</time>
      </trkpt>
      <trkpt lat="44.54473" lon="4.1277">
        <ele>559</ele>
        <time>2022-06-09T17:31:20Z</time>
      </trkpt>
      <trkpt lat="44.54514" lon="4.12744">
        <ele>569</ele>
        <time>2022-06-09T17:31:30Z</time>
      </trkpt>
      <trkpt lat="44.54529" lon="4.12739">
        <ele>574</ele>
        <time>2022-06-09T17:31:34Z</time>
      </trkpt>
      <trkpt lat="44.54531" lon="4.12736">
        <ele>575</ele>
        <time>2022-06-09T17:31:34Z</time>
      </trkpt>
      <trkpt lat="44.54528" lon="4.12729">
        <ele>576</ele>
        <time>2022-06-09T17:31:36Z</time>
      </trkpt>
      <trkpt lat="44.54504" lon="4.12727">
        <ele>572</ele>
        <time>2022-06-09T17:31:41Z</time>
      </trkpt>
      <trkpt lat="44.54481" lon="4.12714">
        <ele>575</ele>
        <time>2022-06-09T17:31:47Z</time>
      </trkpt>
      <trkpt lat="44.54461" lon="4.12693">
        <ele>581</ele>
        <time>2022-06-09T17:31:53Z</time>
      </trkpt>
      <trkpt lat="44.54415" lon="4.12692">
        <ele>579</ele>
        <time>2022-06-09T17:32:04Z</time>
      </trkpt>
      <trkpt lat="44.54413" lon="4.12689">
        <ele>580</ele>
        <time>2022-06-09T17:32:04Z</time>
      </trkpt>
      <trkpt lat="44.54427" lon="4.12673">
        <ele>586</ele>
        <time>2022-06-09T17:32:09Z</time>
      </trkpt>
      <trkpt lat="44.54443" lon="4.12661">
        <ele>590</ele>
        <time>2022-06-09T17:32:13Z</time>
      </trkpt>
      <trkpt lat="44.5446" lon="4.12652">
        <ele>594</ele>
        <time>2022-06-09T17:32:17Z</time>
      </trkpt>
      <trkpt lat="44.54509" lon="4.12651">
        <ele>597</ele>
        <time>2022-06-09T17:32:29Z</time>
      </trkpt>
      <trkpt lat="44.54519" lon="4.12646">
        <ele>599</ele>
        <time>2022-06-09T17:32:31Z</time>
      </trkpt>
      <trkpt lat="44.54516" lon="4.12644">
        <ele>600</ele>
        <time>2022-06-09T17:32:32Z</time>
      </trkpt>
      <trkpt lat="44.54484" lon="4.12636">
        <ele>600</ele>
        <time>2022-06-09T17:32:39Z</time>
      </trkpt>
      <trkpt lat="44.54447" lon="4.12634">
        <ele>599</ele>
        <time>2022-06-09T17:32:48Z</time>
      </trkpt>
      <trkpt lat="44.5439" lon="4.12644">
        <ele>591</ele>
        <time>2022-06-09T17:33:01Z</time>
      </trkpt>
      <trkpt lat="44.54369" lon="4.1264">
        <ele>589</ele>
        <time>2022-06-09T17:33:06Z</time>
      </trkpt>
      <trkpt lat="44.54347" lon="4.12628">
        <ele>588</ele>
        <time>2022-06-09T17:33:12Z</time>
      </trkpt>
      <trkpt lat="44.54332" lon="4.12581">
        <ele>590</ele>
        <time>2022-06-09T17:33:20Z</time>
      </trkpt>
      <trkpt lat="44.54326" lon="4.12518">
        <ele>590</ele>
        <time>2022-06-09T17:33:31Z</time>
      </trkpt>
      <trkpt lat="44.54324" lon="4.12522">
        <ele>589</ele>
        <time>2022-06-09T17:33:32Z</time>
      </trkpt>
      <trkpt lat="44.54334" lon="4.12593">
        <ele>590</ele>
        <time>2022-06-09T17:33:44Z</time>
      </trkpt>
      <trkpt lat="44.54348" lon="4.12624">
        <ele>589</ele>
        <time>2022-06-09T17:33:50Z</time>
      </trkpt>
      <trkpt lat="44.54356" lon="4.12633">
        <ele>588</ele>
        <time>2022-06-09T17:33:52Z</time>
      </trkpt>
      <trkpt lat="44.54362" lon="4.12634">
        <ele>589</ele>
        <time>2022-06-09T17:33:54Z</time>
      </trkpt>
      <trkpt lat="44.5436" lon="4.12633">
        <ele>589</ele>
        <time>2022-06-09T17:33:54Z</time>
      </trkpt>
      <trkpt lat="44.54359" lon="4.12638">
        <ele>588</ele>
        <time>2022-06-09T17:33:55Z</time>
      </trkpt>
      <trkpt lat="44.5436" lon="4.12629">
        <ele>590</ele>
        <time>2022-06-09T17:33:57Z</time>
      </trkpt>
      <trkpt lat="44.5436" lon="4.12634">
        <ele>589</ele>
        <time>2022-06-09T17:33:58Z</time>
      </trkpt>
      <trkpt lat="44.54362" lon="4.12633">
        <ele>589</ele>
        <time>2022-06-09T17:33:58Z</time>
      </trkpt>
      <trkpt lat="44.54351" lon="4.1263">
        <ele>588</ele>
        <time>2022-06-09T17:34:01Z</time>
      </trkpt>
      <trkpt lat="44.54348" lon="4.12635">
        <ele>587</ele>
        <time>2022-06-09T17:34:02Z</time>
      </trkpt>
      <trkpt lat="44.54339" lon="4.12637">
        <ele>585</ele>
        <time>2022-06-09T17:34:04Z</time>
      </trkpt>
      <trkpt lat="44.54335" lon="4.12643">
        <ele>584</ele>
        <time>2022-06-09T17:34:05Z</time>
      </trkpt>
      <trkpt lat="44.54333" lon="4.12656">
        <ele>582</ele>
        <time>2022-06-09T17:34:07Z</time>
      </trkpt>
      <trkpt lat="44.54333" lon="4.12654">
        <ele>582</ele>
        <time>2022-06-09T17:34:08Z</time>
      </trkpt>
      <trkpt lat="44.54334" lon="4.12659">
        <ele>582</ele>
        <time>2022-06-09T17:34:09Z</time>
      </trkpt>
      <trkpt lat="44.54339" lon="4.12657">
        <ele>583</ele>
        <time>2022-06-09T17:34:10Z</time>
      </trkpt>
      <trkpt lat="44.54337" lon="4.12656">
        <ele>583</ele>
        <time>2022-06-09T17:34:10Z</time>
      </trkpt>
      <trkpt lat="44.54335" lon="4.1266">
        <ele>582</ele>
        <time>2022-06-09T17:34:11Z</time>
      </trkpt>
      <trkpt lat="44.54336" lon="4.12662">
        <ele>582</ele>
        <time>2022-06-09T17:34:12Z</time>
      </trkpt>
      <trkpt lat="44.54339" lon="4.12661">
        <ele>582</ele>
        <time>2022-06-09T17:34:12Z</time>
      </trkpt>
      <trkpt lat="44.54338" lon="4.12657">
        <ele>583</ele>
        <time>2022-06-09T17:34:13Z</time>
      </trkpt>
      <trkpt lat="44.54337" lon="4.12663">
        <ele>582</ele>
        <time>2022-06-09T17:34:14Z</time>
      </trkpt>
      <trkpt lat="44.54335" lon="4.12656">
        <ele>582</ele>
        <time>2022-06-09T17:34:15Z</time>
      </trkpt>
      <trkpt lat="44.54336" lon="4.12665">
        <ele>581</ele>
        <time>2022-06-09T17:34:17Z</time>
      </trkpt>
      <trkpt lat="44.54332" lon="4.12658">
        <ele>582</ele>
        <time>2022-06-09T17:34:18Z</time>
      </trkpt>
      <trkpt lat="44.54335" lon="4.12657">
        <ele>582</ele>
        <time>2022-06-09T17:34:19Z</time>
      </trkpt>
      <trkpt lat="44.54337" lon="4.12662">
        <ele>582</ele>
        <time>2022-06-09T17:34:20Z</time>
      </trkpt>
      <trkpt lat="44.54335" lon="4.12666">
        <ele>581</ele>
        <time>2022-06-09T17:34:21Z</time>
      </trkpt>
      <trkpt lat="44.54337" lon="4.12658">
        <ele>582</ele>
        <time>2022-06-09T17:34:22Z</time>
      </trkpt>
      <trkpt lat="44.5434" lon="4.12658">
        <ele>583</ele>
        <time>2022-06-09T17:34:23Z</time>
      </trkpt>
      <trkpt lat="44.54337" lon="4.1266">
        <ele>582</ele>
        <time>2022-06-09T17:34:24Z</time>
      </trkpt>
      <trkpt lat="44.54338" lon="4.12652">
        <ele>583</ele>
        <time>2022-06-09T17:34:25Z</time>
      </trkpt>
      <trkpt lat="44.54337" lon="4.12657">
        <ele>583</ele>
        <time>2022-06-09T17:34:26Z</time>
      </trkpt>
      <trkpt lat="44.54335" lon="4.12654">
        <ele>583</ele>
        <time>2022-06-09T17:34:27Z</time>
      </trkpt>
      <trkpt lat="44.54338" lon="4.12654">
        <ele>583</ele>
        <time>2022-06-09T17:34:27Z</time>
      </trkpt>
      <trkpt lat="44.54336" lon="4.12652">
        <ele>583</ele>
        <time>2022-06-09T17:34:28Z</time>
      </trkpt>
      <trkpt lat="44.54338" lon="4.12657">
        <ele>583</ele>
        <time>2022-06-09T17:34:29Z</time>
      </trkpt>
      <trkpt lat="44.54335" lon="4.12648">
        <ele>583</ele>
        <time>2022-06-09T17:34:30Z</time>
      </trkpt>
      <trkpt lat="44.54332" lon="4.12648">
        <ele>583</ele>
        <time>2022-06-09T17:34:31Z</time>
      </trkpt>
      <trkpt lat="44.54333" lon="4.12651">
        <ele>583</ele>
        <time>2022-06-09T17:34:32Z</time>
      </trkpt>
    </trkseg>
  </trk>
</gpx>